Darstellungsparameter: Aktuell verwendete Einstellungen:
Skalierung der Graphiken ... ?
xyx+y,   Skalierungsfaktor:      Skalierung: Modus: x, Faktor: 1
Darstellungszeitraum ... ?
Vom - - bis: - -   Zeitraum: 12.11.2019 - 10.12.2019
Min/Max/Avg-Anzeige ... ?
Zeige MMA aktuell
Zeige MMA Monat
Zeige MMA alles
Zeige --A aktuell
Zeige --A Monat
Zeige --A alles
Keine MMA-Anzeige
MMA:
Average (ber die Originaldaten)
MMA-Basis: 23.02.2003 - 11.12.2019
Quicknavigation für Darstellung... ?
Tage:      1T, 2T, 3T, 5T -1T -2T -3T -5T +1T +2T +3T +5T
Wochen: 1W, 2W, 3W -1W -2W -3W +1W +2W +3W
Monate: 1M, 3M, 6M -1M -3M -6M +1M +3M +6M
Jahre:    1J, 3J, 5J, 10J -1J -3J -5J -10J +1J +3J +5J +10J
Nutze für die Darstellung ... ?
Originaldaten oder Mittelwerte auf ...
Stundenbasis Tagesbasis Wochenbasis
Monatsbasis Jahresbasis      Datenbasis: Original-Daten
Darstellen als:
Statistik (Auto) Statistik J:M      Darstellung:
Zur Graphik,    zurück zur Übersicht aller Sensoren.
 
Tabellarische Datenbersicht: ?
 
Sensor: Nr:Datum:Temp:Feuchte:
Aussen-T/F 1 12-11-2019 00:09:17 4.3 C 40 %
2 12-11-2019 00:19:17 4.4 C 40 %
3 12-11-2019 00:29:17 4.3 C 40 %
4 12-11-2019 00:39:17 4.5 C 39 %
5 12-11-2019 00:49:17 3.8 C 38 %
6 12-11-2019 00:59:17 4 C 40 %
7 12-11-2019 01:09:17 4.5 C 37 %
8 12-11-2019 01:19:17 4.8 C 35 %
9 12-11-2019 01:29:17 4.7 C 32 %
10 12-11-2019 01:39:17 5 C 28 %
11 12-11-2019 01:49:17 4.9 C 28 %
12 12-11-2019 01:59:17 5 C 27 %
13 12-11-2019 02:09:17 5.2 C 25 %
14 12-11-2019 02:19:17 4.9 C 30 %
15 12-11-2019 02:29:17 4.7 C 31 %
16 12-11-2019 02:39:17 4.7 C 32 %
17 12-11-2019 02:49:17 5.1 C 26 %
18 12-11-2019 02:59:17 5 C 28 %
19 12-11-2019 03:09:17 5.1 C 26 %
20 12-11-2019 03:19:17 5 C 26 %
21 12-11-2019 03:29:17 4.8 C 28 %
22 12-11-2019 03:39:17 4.9 C 27 %
23 12-11-2019 03:49:17 4.8 C 27 %
24 12-11-2019 03:59:17 4.8 C 28 %
25 12-11-2019 04:09:17 4.8 C 29 %
Sensor: Nr:Datum:Temp:Feuchte:
Aussen-T/F 26 12-11-2019 04:19:17 5.1 C 25 %
27 12-11-2019 04:29:17 5 C 25 %
28 12-11-2019 04:39:17 5.2 C 23 %
29 12-11-2019 04:49:17 5 C 25 %
30 12-11-2019 04:59:17 4.9 C 26 %
31 12-11-2019 05:09:17 4.7 C 26 %
32 12-11-2019 05:19:17 4.5 C 30 %
33 12-11-2019 05:29:17 4.5 C 31 %
34 12-11-2019 05:39:17 4.4 C 31 %
35 12-11-2019 05:49:17 4.4 C 30 %
36 12-11-2019 05:59:17 4.5 C 30 %
37 12-11-2019 06:09:17 4.6 C 30 %
38 12-11-2019 06:19:18 4.8 C 29 %
39 12-11-2019 06:29:18 4.9 C 26 %
40 12-11-2019 06:39:17 4.7 C 26 %
41 12-11-2019 06:49:17 4.8 C 26 %
42 12-11-2019 06:59:17 4.9 C 26 %
43 12-11-2019 07:09:17 4.9 C 25 %
44 12-11-2019 07:19:17 5 C 25 %
45 12-11-2019 07:29:17 5 C 23 %
46 12-11-2019 07:39:17 5.2 C 21 %
47 12-11-2019 07:49:17 5.5 C 23 %
48 12-11-2019 07:59:17 5 C 23 %
49 12-11-2019 08:09:17 5.1 C 25 %
50 12-11-2019 08:19:17 5.1 C 25 %
Sensor: Nr:Datum:Temp:Feuchte:
Aussen-T/F 51 12-11-2019 08:29:17 5.2 C 25 %
52 12-11-2019 08:39:17 5.4 C 20 %
53 12-11-2019 08:49:17 5.3 C 21 %
54 12-11-2019 08:59:17 5.6 C 20 %
55 12-11-2019 09:09:17 6 C 20 %
56 12-11-2019 09:19:17 6.3 C 20 %
57 12-11-2019 09:29:17 6.4 C 20 %
58 12-11-2019 09:39:17 7.2 C 20 %
59 12-11-2019 09:49:17 7.1 C 20 %
60 12-11-2019 09:59:17 7.2 C 20 %
61 12-11-2019 10:09:17 7.5 C 20 %
62 12-11-2019 10:19:17 7.8 C 20 %
63 12-11-2019 10:29:17 7.8 C 20 %
64 12-11-2019 10:39:17 7.9 C 20 %
65 12-11-2019 10:49:17 8.3 C 20 %
66 12-11-2019 10:59:17 8.2 C 20 %
67 12-11-2019 11:09:17 8.1 C 20 %
68 12-11-2019 11:19:17 8 C 20 %
69 12-11-2019 11:29:17 7.5 C 20 %
70 12-11-2019 11:39:17 7.1 C 20 %
71 12-11-2019 11:49:17 7 C 20 %
72 12-11-2019 11:59:17 7.1 C 20 %
73 12-11-2019 12:09:17 7.6 C 20 %
74 12-11-2019 12:19:17 7.8 C 20 %
75 12-11-2019 12:29:17 8.4 C 20 %
Sensor: Nr:Datum:Temp:Feuchte:
Aussen-T/F 76 12-11-2019 12:39:17 7.9 C 20 %
77 12-11-2019 12:49:17 7.6 C 20 %
78 12-11-2019 12:59:17 7.7 C 20 %
79 12-11-2019 13:09:17 7.8 C 20 %
80 12-11-2019 13:19:17 7.5 C 20 %
81 12-11-2019 13:29:17 7.5 C 20 %
82 12-11-2019 13:39:17 7.3 C 20 %
83 12-11-2019 13:49:17 7.3 C 20 %
84 12-11-2019 13:59:17 7.5 C 20 %
85 12-11-2019 14:09:17 7.5 C 20 %
86 12-11-2019 14:19:17 7.9 C 20 %
87 12-11-2019 14:29:17 7.8 C 20 %
88 12-11-2019 14:39:17 7.6 C 20 %
89 12-11-2019 14:49:17 7.6 C 20 %
90 12-11-2019 14:59:17 7.7 C 20 %
91 12-11-2019 15:09:17 7.8 C 20 %
92 12-11-2019 15:19:17 7.8 C 20 %
93 12-11-2019 15:29:17 7.8 C 20 %
94 12-11-2019 15:39:17 7.4 C 20 %
95 12-11-2019 15:49:17 7.2 C 20 %
96 12-11-2019 15:59:17 7.2 C 20 %
97 12-11-2019 16:09:17 7.1 C 20 %
98 12-11-2019 16:19:17 7 C 20 %
99 12-11-2019 16:29:17 6.9 C 20 %
100 12-11-2019 16:39:17 6.8 C 20 %
Sensor: Nr:Datum:Temp:Feuchte:
Aussen-T/F 101 12-11-2019 16:49:17 6.4 C 20 %
102 12-11-2019 16:59:17 6.4 C 20 %
103 12-11-2019 17:09:17 6.3 C 20 %
104 12-11-2019 17:19:17 6 C 20 %
105 12-11-2019 17:29:17 6 C 20 %
106 12-11-2019 17:39:17 6.1 C 20 %
107 12-11-2019 17:49:17 5.7 C 20 %
108 12-11-2019 17:59:17 5.5 C 20 %
109 12-11-2019 18:09:17 4.8 C 26 %
110 12-11-2019 18:19:17 4.7 C 26 %
111 12-11-2019 18:29:17 5.1 C 21 %
112 12-11-2019 18:39:17 4.9 C 26 %
113 12-11-2019 18:49:17 4.6 C 25 %
114 12-11-2019 18:59:17 4.8 C 23 %
115 12-11-2019 19:09:18 4.4 C 25 %
116 12-11-2019 19:19:17 3.7 C 28 %
117 12-11-2019 19:29:17 3.2 C 30 %
118 12-11-2019 19:39:17 3 C 31 %
119 12-11-2019 19:49:18 2.8 C 32 %
120 12-11-2019 19:59:18 2.5 C 34 %
121 12-11-2019 20:09:17 2.5 C 34 %
122 12-11-2019 20:19:17 2.2 C 33 %
123 12-11-2019 20:29:17 1.8 C 36 %
124 12-11-2019 20:39:17 1.5 C 37 %
125 12-11-2019 20:49:17 1.7 C 41 %
Sensor: Nr:Datum:Temp:Feuchte:
Aussen-T/F 126 12-11-2019 20:59:17 2.6 C 42 %
127 12-11-2019 21:09:17 3.2 C 35 %
128 12-11-2019 21:19:17 2.7 C 32 %
129 12-11-2019 21:29:17 2.1 C 33 %
130 12-11-2019 21:39:17 2.4 C 36 %
131 12-11-2019 21:49:17 2.6 C 35 %
132 12-11-2019 21:59:17 3.3 C 32 %
133 12-11-2019 22:09:17 3.4 C 32 %
134 12-11-2019 22:19:17 3.6 C 31 %
135 12-11-2019 22:29:17 4 C 27 %
136 12-11-2019 22:39:17 4.2 C 26 %
137 12-11-2019 22:49:17 4.2 C 26 %
138 12-11-2019 22:59:17 4.3 C 26 %
139 12-11-2019 23:09:17 4.4 C 23 %
140 12-11-2019 23:19:17 4.3 C 23 %
141 12-11-2019 23:29:17 4.3 C 23 %
142 12-11-2019 23:39:17 4.3 C 25 %
143 12-11-2019 23:49:17 4.4 C 25 %
144 12-11-2019 23:59:17 4.4 C 21 %
145 13-11-2019 00:09:17 4.4 C 21 %
146 13-11-2019 00:19:17 4.4 C 21 %
147 13-11-2019 00:29:17 4.3 C 23 %
148 13-11-2019 00:39:17 4.3 C 21 %
149 13-11-2019 00:49:17 4.3 C 21 %
150 13-11-2019 00:59:17 4.2 C 25 %
Sensor: Nr:Datum:Temp:Feuchte:
Aussen-T/F 151 13-11-2019 01:09:17 4.1 C 25 %
152 13-11-2019 01:19:17 4 C 25 %
153 13-11-2019 01:29:17 3.7 C 25 %
154 13-11-2019 01:39:17 3.6 C 26 %
155 13-11-2019 01:49:17 2.8 C 29 %
156 13-11-2019 01:59:17 2.4 C 31 %
157 13-11-2019 02:09:17 2.3 C 32 %
158 13-11-2019 02:19:17 2.2 C 32 %
159 13-11-2019 02:29:17 2.1 C 31 %
160 13-11-2019 02:39:17 2.8 C 29 %
161 13-11-2019 02:49:17 3.1 C 28 %
162 13-11-2019 02:59:17 3.9 C 21 %
163 13-11-2019 03:09:17 3.9 C 20 %
164 13-11-2019 03:19:17 4 C 20 %
165 13-11-2019 03:29:17 3.8 C 21 %
166 13-11-2019 03:39:17 4 C 20 %
167 13-11-2019 03:49:17 3.9 C 23 %
168 13-11-2019 03:59:17 4 C 20 %
169 13-11-2019 04:09:17 4.1 C 20 %
170 13-11-2019 04:19:17 3.9 C 21 %
171 13-11-2019 04:29:17 3.8 C 23 %
172 13-11-2019 04:39:17 4.2 C 20 %
173 13-11-2019 04:49:17 4 C 20 %
174 13-11-2019 04:59:17 3.9 C 21 %
175 13-11-2019 05:09:17 3.6 C 25 %
Sensor: Nr:Datum:Temp:Feuchte:
Aussen-T/F 176 13-11-2019 05:19:17 3.8 C 25 %
177 13-11-2019 05:29:17 3.7 C 26 %
178 13-11-2019 05:39:17 3.8 C 26 %
179 13-11-2019 05:49:17 3.8 C 26 %
180 13-11-2019 05:59:17 3.8 C 26 %
181 13-11-2019 06:09:17 3.8 C 26 %
182 13-11-2019 06:19:17 3.9 C 25 %
183 13-11-2019 06:29:17 3.9 C 25 %
184 13-11-2019 06:39:17 3.9 C 25 %
185 13-11-2019 06:49:17 3.2 C 25 %
186 13-11-2019 06:59:17 3.1 C 30 %
187 13-11-2019 07:09:17 3.3 C 30 %
188 13-11-2019 07:19:17 3.3 C 30 %
189 13-11-2019 07:29:17 3.7 C 27 %
190 13-11-2019 07:39:17 3.7 C 27 %
191 13-11-2019 07:49:17 3.8 C 26 %
192 13-11-2019 07:59:17 3.9 C 26 %
193 13-11-2019 08:09:17 4 C 25 %
194 13-11-2019 08:19:17 4.2 C 25 %
195 13-11-2019 08:29:17 4.3 C 21 %
196 13-11-2019 08:39:17 4.5 C 20 %
197 13-11-2019 08:49:17 4.5 C 21 %
198 13-11-2019 08:59:17 4.5 C 21 %
199 13-11-2019 09:09:17 4.7 C 21 %
200 13-11-2019 09:19:17 5.1 C 20 %
Sensor: Nr:Datum:Temp:Feuchte:
Aussen-T/F 201 13-11-2019 09:29:17 5.5 C 20 %
202 13-11-2019 09:39:17 5.6 C 20 %
203 13-11-2019 09:49:17 5.6 C 20 %
204 13-11-2019 09:59:17 5.5 C 20 %
205 13-11-2019 10:09:17 5.6 C 20 %
206 13-11-2019 10:19:17 5.7 C 20 %
207 13-11-2019 10:29:17 5.8 C 20 %
208 13-11-2019 10:39:17 5.9 C 20 %
209 13-11-2019 10:49:17 5.7 C 20 %
210 13-11-2019 10:59:17 5.7 C 20 %
211 13-11-2019 11:09:17 5.6 C 20 %
212 13-11-2019 11:19:17 5.8 C 20 %
213 13-11-2019 11:29:17 6 C 20 %
214 13-11-2019 11:39:17 6.1 C 20 %
215 13-11-2019 11:49:17 6.1 C 20 %
216 13-11-2019 11:59:17 6.6 C 20 %
217 13-11-2019 12:09:17 6.5 C 20 %
218 13-11-2019 12:19:17 6.6 C 20 %
219 13-11-2019 12:29:17 6.8 C 20 %
220 13-11-2019 12:39:17 6.7 C 20 %
221 13-11-2019 12:49:17 6.4 C 20 %
222 13-11-2019 12:59:17 6.7 C 20 %
223 13-11-2019 13:09:17 6.8 C 20 %
224 13-11-2019 13:19:17 6.7 C 20 %
225 13-11-2019 13:29:17 6.4 C 20 %
Sensor: Nr:Datum:Temp:Feuchte:
Aussen-T/F 226 13-11-2019 13:39:17 6.5 C 20 %
227 13-11-2019 13:49:17 6.4 C 20 %
228 13-11-2019 13:59:17 6.3 C 20 %
229 13-11-2019 14:09:17 6.3 C 20 %
230 13-11-2019 14:19:17 6.3 C 20 %
231 13-11-2019 14:29:17 6.2 C 20 %
232 13-11-2019 14:39:17 6.2 C 20 %
233 13-11-2019 14:49:17 6.2 C 20 %
234 13-11-2019 14:59:17 6.3 C 20 %
235 13-11-2019 15:09:17 6.3 C 20 %
236 13-11-2019 15:19:17 6.3 C 20 %
237 13-11-2019 15:29:17 6.2 C 20 %
238 13-11-2019 15:39:17 6.2 C 20 %
239 13-11-2019 15:49:17 6.2 C 20 %
240 13-11-2019 15:59:17 6.2 C 20 %
241 13-11-2019 16:09:17 6.2 C 20 %
242 13-11-2019 16:19:17 6.2 C 20 %
243 13-11-2019 16:29:17 6.1 C 20 %
244 13-11-2019 16:39:17 6 C 20 %
245 13-11-2019 16:49:17 6 C 20 %
246 13-11-2019 16:59:17 6 C 20 %
247 13-11-2019 17:09:17 6 C 20 %
248 13-11-2019 17:19:17 6 C 20 %
249 13-11-2019 17:29:17 5.9 C 20 %
250 13-11-2019 17:39:17 6 C 20 %
Sensor: Nr:Datum:Temp:Feuchte:
Aussen-T/F 251 13-11-2019 17:49:17 5.9 C 20 %
252 13-11-2019 17:59:17 5.9 C 20 %
253 13-11-2019 18:09:17 5.8 C 20 %
254 13-11-2019 18:19:17 5.8 C 20 %
255 13-11-2019 18:29:17 5.9 C 20 %
256 13-11-2019 18:39:17 5.8 C 20 %
257 13-11-2019 18:49:17 5.7 C 20 %
258 13-11-2019 18:59:17 5.6 C 21 %
259 13-11-2019 19:09:18 5.6 C 21 %
260 13-11-2019 19:19:17 5.6 C 23 %
261 13-11-2019 19:29:17 5.6 C 20 %
262 13-11-2019 19:39:17 5.6 C 21 %
263 13-11-2019 19:49:17 5.8 C 20 %
264 13-11-2019 19:59:17 5.8 C 20 %
265 13-11-2019 20:09:17 5.8 C 20 %
266 13-11-2019 20:19:17 5.9 C 20 %
267 13-11-2019 20:29:17 5.8 C 20 %
268 13-11-2019 20:39:17 5.8 C 20 %
269 13-11-2019 20:49:17 5.8 C 20 %
270 13-11-2019 20:59:17 5.6 C 20 %
271 13-11-2019 21:09:17 5.5 C 23 %
272 13-11-2019 21:19:17 5.4 C 25 %
273 13-11-2019 21:29:17 4.8 C 27 %
274 13-11-2019 21:39:17 4.8 C 27 %
275 13-11-2019 21:49:17 4.7 C 28 %
Sensor: Nr:Datum:Temp:Feuchte:
Aussen-T/F 276 13-11-2019 21:59:17 4.7 C 29 %
277 13-11-2019 22:09:17 4.2 C 28 %
278 13-11-2019 22:19:17 3.8 C 32 %
279 13-11-2019 22:29:17 3.8 C 33 %
280 13-11-2019 22:39:17 3.8 C 33 %
281 13-11-2019 22:49:17 4.1 C 32 %
282 13-11-2019 22:59:17 4 C 31 %
283 13-11-2019 23:09:17 4.1 C 29 %
284 13-11-2019 23:19:17 3.4 C 33 %
285 13-11-2019 23:29:17 3.6 C 33 %
286 13-11-2019 23:39:17 3.6 C 33 %
287 13-11-2019 23:49:17 3.9 C 33 %
288 13-11-2019 23:59:17 4.2 C 30 %
289 14-11-2019 00:09:17 4.4 C 30 %
290 14-11-2019 00:19:17 4.5 C 31 %
291 14-11-2019 00:29:17 4.7 C 30 %
292 14-11-2019 00:39:17 4.6 C 30 %
293 14-11-2019 00:49:17 4.7 C 31 %
294 14-11-2019 00:59:17 4.4 C 30 %
295 14-11-2019 01:09:17 3.7 C 31 %
296 14-11-2019 01:19:17 3.8 C 37 %
297 14-11-2019 01:29:17 3.7 C 37 %
298 14-11-2019 01:39:17 3.8 C 39 %
299 14-11-2019 01:49:17 3.8 C 38 %
300 14-11-2019 01:59:17 3.9 C 39 %
Sensor: Nr:Datum:Temp:Feuchte:
Aussen-T/F 301 14-11-2019 02:09:17 4 C 37 %
302 14-11-2019 02:19:17 4 C 35 %
303 14-11-2019 02:29:17 4.1 C 36 %
304 14-11-2019 02:39:17 4.4 C 35 %
305 14-11-2019 02:49:17 4.5 C 33 %
306 14-11-2019 02:59:17 4.8 C 31 %
307 14-11-2019 03:09:17 5 C 29 %
308 14-11-2019 03:19:17 4.8 C 30 %
309 14-11-2019 03:29:17 5 C 30 %
310 14-11-2019 03:39:17 5.1 C 29 %
311 14-11-2019 03:49:17 5.2 C 28 %
312 14-11-2019 03:59:17 5.1 C 28 %
313 14-11-2019 04:09:17 5.2 C 29 %
314 14-11-2019 04:19:17 5.1 C 29 %
315 14-11-2019 04:29:17 4.6 C 31 %
316 14-11-2019 04:39:17 4.5 C 32 %
317 14-11-2019 04:49:17 4.6 C 33 %
318 14-11-2019 04:59:17 4.2 C 31 %
319 14-11-2019 05:09:17 3.4 C 33 %
320 14-11-2019 05:19:17 3.3 C 40 %
321 14-11-2019 05:29:17 3.7 C 41 %
322 14-11-2019 05:39:18 4.1 C 40 %
323 14-11-2019 05:49:17 4.4 C 38 %
324 14-11-2019 05:59:17 4.4 C 36 %
325 14-11-2019 06:09:17 3.6 C 34 %
Sensor: Nr:Datum:Temp:Feuchte:
Aussen-T/F 326 14-11-2019 06:19:17 3.5 C 36 %
327 14-11-2019 06:29:17 3.5 C 36 %
328 14-11-2019 06:39:17 3.9 C 38 %
329 14-11-2019 06:49:17 4.2 C 36 %
330 14-11-2019 06:59:17 4.6 C 30 %
331 14-11-2019 07:09:17 4.6 C 30 %
332 14-11-2019 07:19:17 4.8 C 26 %
333 14-11-2019 07:29:17 4.8 C 25 %
334 14-11-2019 07:39:17 4.5 C 26 %
335 14-11-2019 07:49:17 4.5 C 26 %
336 14-11-2019 07:59:17 4.5 C 26 %
337 14-11-2019 08:09:17 4.2 C 26 %
338 14-11-2019 08:19:17 4.2 C 26 %
339 14-11-2019 08:29:17 4.6 C 26 %
340 14-11-2019 08:39:17 4.7 C 25 %
341 14-11-2019 08:49:17 4.6 C 25 %
342 14-11-2019 08:59:17 4.5 C 26 %
343 14-11-2019 09:09:17 5 C 21 %
344 14-11-2019 09:19:17 5 C 21 %
345 14-11-2019 09:29:17 5.4 C 20 %
346 14-11-2019 09:39:17 5.6 C 20 %
347 14-11-2019 09:49:17 5.6 C 20 %
348 14-11-2019 09:59:17 5.9 C 20 %
349 14-11-2019 10:09:17 6.1 C 20 %
350 14-11-2019 10:19:17 6.3 C 20 %
Sensor: Nr:Datum:Temp:Feuchte:
Aussen-T/F 351 14-11-2019 10:29:17 6.5 C 20 %
352 14-11-2019 10:39:17 6.7 C 20 %
353 14-11-2019 10:49:17 7.1 C 20 %
354 14-11-2019 10:59:17 7.2 C 20 %
355 14-11-2019 11:09:17 7.4 C 20 %
356 14-11-2019 11:19:17 7.9 C 20 %
357 14-11-2019 11:29:17 8.2 C 20 %
358 14-11-2019 11:39:17 8.2 C 20 %
359 14-11-2019 11:49:17 8.2 C 20 %
360 14-11-2019 11:59:17 8.9 C 20 %
361 14-11-2019 12:09:17 9.3 C 20 %
362 14-11-2019 12:19:17 9.1 C 20 %
363 14-11-2019 12:29:17 9 C 20 %
364 14-11-2019 12:39:17 8.6 C 20 %
365 14-11-2019 12:49:17 8.3 C 20 %
366 14-11-2019 12:59:17 8.3 C 20 %
367 14-11-2019 13:09:17 8.6 C 20 %
368 14-11-2019 13:19:17 8.8 C 20 %
369 14-11-2019 13:29:17 8.6 C 20 %
370 14-11-2019 13:39:17 8.7 C 20 %
371 14-11-2019 13:49:17 9.1 C 20 %
372 14-11-2019 13:59:17 9.6 C 20 %
373 14-11-2019 14:09:17 9.4 C 20 %
374 14-11-2019 14:19:17 9.2 C 20 %
375 14-11-2019 14:29:17 9 C 20 %
Sensor: Nr:Datum:Temp:Feuchte:
Aussen-T/F 376 14-11-2019 14:39:17 8.9 C 20 %
377 14-11-2019 14:49:17 8.5 C 20 %
378 14-11-2019 14:59:17 8.1 C 20 %
379 14-11-2019 15:09:17 7.9 C 20 %
380 14-11-2019 15:19:17 7.8 C 20 %
381 14-11-2019 15:29:17 7.3 C 20 %
382 14-11-2019 15:39:17 6.9 C 20 %
383 14-11-2019 15:49:17 6.7 C 20 %
384 14-11-2019 15:59:17 6.5 C 20 %
385 14-11-2019 16:09:17 6.5 C 20 %
386 14-11-2019 16:19:17 6 C 20 %
387 14-11-2019 16:29:17 5.6 C 20 %
388 14-11-2019 16:39:17 5.2 C 20 %
389 14-11-2019 16:49:17 4.8 C 20 %
390 14-11-2019 16:59:17 4.6 C 20 %
391 14-11-2019 17:09:17 4.4 C 20 %
392 14-11-2019 17:19:17 4.3 C 20 %
393 14-11-2019 17:29:17 3.9 C 20 %
394 14-11-2019 17:39:17 3.8 C 20 %
395 14-11-2019 17:49:17 3.8 C 20 %
396 14-11-2019 17:59:17 3.8 C 20 %
397 14-11-2019 18:09:17 4.1 C 20 %
398 14-11-2019 18:19:17 3.9 C 20 %
399 14-11-2019 18:29:17 3.8 C 20 %
400 14-11-2019 18:39:17 3.9 C 20 %
Sensor: Nr:Datum:Temp:Feuchte:
Aussen-T/F 401 14-11-2019 18:49:17 3.3 C 20 %
402 14-11-2019 18:59:17 3.4 C 20 %
403 14-11-2019 19:09:17 3.2 C 20 %
404 14-11-2019 19:19:17 2.6 C 25 %
405 14-11-2019 19:29:17 2.7 C 25 %
406 14-11-2019 19:39:17 2.7 C 25 %
407 14-11-2019 19:49:17 2.6 C 25 %
408 14-11-2019 19:59:18 2.7 C 26 %
409 14-11-2019 20:09:17 2.4 C 26 %
410 14-11-2019 20:19:17 2.3 C 30 %
411 14-11-2019 20:29:17 2.4 C 27 %
412 14-11-2019 20:39:17 2.6 C 26 %
413 14-11-2019 20:49:17 2.5 C 26 %
414 14-11-2019 20:59:17 2 C 27 %
415 14-11-2019 21:09:17 1.6 C 32 %
416 14-11-2019 21:19:17 1.6 C 36 %
417 14-11-2019 21:29:17 1.7 C 35 %
418 14-11-2019 21:39:17 1.6 C 35 %
419 14-11-2019 21:49:17 1.4 C 35 %
420 14-11-2019 21:59:17 1.4 C 36 %
421 14-11-2019 22:09:17 1.6 C 37 %
422 14-11-2019 22:19:17 1.5 C 36 %
423 14-11-2019 22:29:17 1.5 C 37 %
424 14-11-2019 22:39:17 1.6 C 39 %
425 14-11-2019 22:49:17 1.6 C 39 %
Sensor: Nr:Datum:Temp:Feuchte:
Aussen-T/F 426 14-11-2019 22:59:17 1.9 C 40 %
427 14-11-2019 23:09:17 2 C 38 %
428 14-11-2019 23:19:17 2 C 37 %
429 14-11-2019 23:29:17 2 C 36 %
430 14-11-2019 23:39:17 2.2 C 36 %
431 14-11-2019 23:49:17 2.1 C 36 %
432 14-11-2019 23:59:17 2.1 C 36 %
433 15-11-2019 00:09:17 2.1 C 36 %
434 15-11-2019 00:19:17 2.2 C 35 %
435 15-11-2019 00:29:17 2.3 C 36 %
436 15-11-2019 00:39:17 2.5 C 36 %
437 15-11-2019 00:49:17 2.8 C 33 %
438 15-11-2019 00:59:17 3 C 31 %
439 15-11-2019 01:09:17 3.2 C 30 %
440 15-11-2019 01:19:17 2.9 C 31 %
441 15-11-2019 01:29:17 2.8 C 32 %
442 15-11-2019 01:39:17 3.1 C 30 %
443 15-11-2019 01:49:17 3.2 C 30 %
444 15-11-2019 01:59:17 3.1 C 30 %
445 15-11-2019 02:09:17 2.7 C 30 %
446 15-11-2019 02:19:17 2.6 C 31 %
447 15-11-2019 02:29:17 2.6 C 31 %
448 15-11-2019 02:39:17 2.7 C 30 %
449 15-11-2019 02:49:17 2.8 C 31 %
450 15-11-2019 02:59:17 3.2 C 30 %
Sensor: Nr:Datum:Temp:Feuchte:
Aussen-T/F 451 15-11-2019 03:09:17 2.9 C 30 %
452 15-11-2019 03:19:17 2.7 C 30 %
453 15-11-2019 03:29:17 2.5 C 30 %
454 15-11-2019 03:39:17 2.3 C 30 %
455 15-11-2019 03:49:17 2.2 C 30 %
456 15-11-2019 03:59:17 2.2 C 31 %
457 15-11-2019 04:09:17 2.2 C 31 %
458 15-11-2019 04:19:17 2.6 C 30 %
459 15-11-2019 04:29:17 3.1 C 26 %
460 15-11-2019 04:39:17 3.2 C 25 %
461 15-11-2019 04:49:17 3 C 25 %
462 15-11-2019 04:59:17 3.1 C 25 %
463 15-11-2019 05:09:17 2.8 C 27 %
464 15-11-2019 05:19:17 2.6 C 26 %
465 15-11-2019 05:29:17 2.7 C 25 %
466 15-11-2019 05:39:17 2.5 C 27 %
467 15-11-2019 05:49:17 2.6 C 25 %
468 15-11-2019 05:59:17 3.2 C 23 %
469 15-11-2019 06:09:17 3.3 C 20 %
470 15-11-2019 06:19:17 3.4 C 20 %
471 15-11-2019 06:29:17 3.3 C 20 %
472 15-11-2019 06:39:17 3.4 C 20 %
473 15-11-2019 06:49:17 3.4 C 20 %
474 15-11-2019 06:59:17 3.1 C 20 %
475 15-11-2019 07:09:17 3 C 20 %
Sensor: Nr:Datum:Temp:Feuchte:
Aussen-T/F 476 15-11-2019 07:19:17 2.9 C 21 %
477 15-11-2019 07:29:17 3 C 21 %
478 15-11-2019 07:39:17 2.9 C 23 %
479 15-11-2019 07:49:17 2.8 C 25 %
480 15-11-2019 07:59:17 3.2 C 20 %
481 15-11-2019 08:09:17 3.3 C 20 %
482 15-11-2019 08:19:17 3.3 C 20 %
483 15-11-2019 08:29:17 3.3 C 20 %
484 15-11-2019 08:39:17 3.3 C 20 %
485 15-11-2019 08:49:17 3.1 C 23 %
486 15-11-2019 08:59:17 3.3 C 21 %
487 15-11-2019 09:09:17 3.3 C 21 %
488 15-11-2019 09:19:17 3.6 C 20 %
489 15-11-2019 09:29:17 4.1 C 20 %
490 15-11-2019 09:39:17 4.5 C 20 %
491 15-11-2019 09:49:17 4.4 C 20 %
492 15-11-2019 09:59:17 4.6 C 20 %
493 15-11-2019 10:09:17 4.9 C 20 %
494 15-11-2019 10:19:17 5.2 C 20 %
495 15-11-2019 10:29:17 5.5 C 20 %
496 15-11-2019 10:39:17 5.4 C 20 %
497 15-11-2019 10:49:17 5.5 C 20 %
498 15-11-2019 10:59:17 5.8 C 20 %
499 15-11-2019 11:09:17 5.9 C 20 %
500 15-11-2019 11:19:17 5.3 C 20 %
Sensor: Nr:Datum:Temp:Feuchte:
Aussen-T/F 501 15-11-2019 11:29:17 5.2 C 20 %
502 15-11-2019 11:39:17 5.8 C 20 %
503 15-11-2019 11:49:17 6.1 C 20 %
504 15-11-2019 11:59:17 6.4 C 20 %
505 15-11-2019 12:09:17 6.5 C 20 %
506 15-11-2019 12:19:17 6.5 C 20 %
507 15-11-2019 12:29:17 6.3 C 20 %
508 15-11-2019 12:39:17 6.3 C 20 %
509 15-11-2019 12:49:17 6.4 C 20 %
510 15-11-2019 12:59:17 6.5 C 20 %
511 15-11-2019 13:09:17 6.8 C 20 %
512 15-11-2019 13:19:17 6.9 C 20 %
513 15-11-2019 13:29:17 7 C 20 %
514 15-11-2019 13:39:17 7.4 C 20 %
515 15-11-2019 13:49:17 7.4 C 20 %
516 15-11-2019 13:59:17 7.3 C 20 %
517 15-11-2019 14:09:17 7.5 C 20 %
518 15-11-2019 14:19:17 7.6 C 20 %
519 15-11-2019 14:29:17 7.7 C 20 %
520 15-11-2019 14:39:17 7.5 C 20 %
521 15-11-2019 14:49:17 7.8 C 20 %
522 15-11-2019 14:59:17 8 C 20 %
523 15-11-2019 15:09:17 7.8 C 20 %
524 15-11-2019 15:19:17 7.7 C 20 %
525 15-11-2019 15:29:17 7.6 C 20 %
Sensor: Nr:Datum:Temp:Feuchte:
Aussen-T/F 526 15-11-2019 15:39:17 7.3 C 20 %
527 15-11-2019 15:49:17 7.1 C 20 %
528 15-11-2019 15:59:17 6.8 C 20 %
529 15-11-2019 16:09:17 6.7 C 20 %
530 15-11-2019 16:19:17 5.5 C 20 %
531 15-11-2019 16:29:17 5 C 20 %
532 15-11-2019 16:39:17 4.4 C 20 %
533 15-11-2019 16:49:17 4 C 23 %
534 15-11-2019 16:59:17 3.9 C 26 %
535 15-11-2019 17:09:17 3.8 C 27 %
536 15-11-2019 17:19:17 3.9 C 27 %
537 15-11-2019 17:29:17 3.8 C 28 %
538 15-11-2019 17:39:17 4 C 27 %
539 15-11-2019 17:49:17 3.8 C 28 %
540 15-11-2019 17:59:17 3.8 C 29 %
541 15-11-2019 18:09:17 3.8 C 29 %
542 15-11-2019 18:19:17 4.3 C 27 %
543 15-11-2019 18:29:17 4.2 C 26 %
544 15-11-2019 18:39:17 4.1 C 27 %
545 15-11-2019 18:49:17 4 C 28 %
546 15-11-2019 18:59:17 4 C 28 %
547 15-11-2019 19:09:17 3.9 C 31 %
548 15-11-2019 19:19:17 3.6 C 31 %
549 15-11-2019 19:29:17 3.7 C 32 %
550 15-11-2019 19:39:17 3.6 C 31 %
Sensor: Nr:Datum:Temp:Feuchte:
Aussen-T/F 551 15-11-2019 19:49:17 3.7 C 32 %
552 15-11-2019 19:59:17 3.7 C 32 %
553 15-11-2019 20:09:17 3.4 C 33 %
554 15-11-2019 20:19:17 3.3 C 34 %
555 15-11-2019 20:29:17 3.2 C 35 %
556 15-11-2019 20:39:17 3.5 C 32 %
557 15-11-2019 20:49:17 3.2 C 32 %
558 15-11-2019 20:59:17 3.5 C 32 %
559 15-11-2019 21:09:17 3.5 C 31 %
560 15-11-2019 21:19:17 3.5 C 31 %
561 15-11-2019 21:29:17 3.2 C 31 %
562 15-11-2019 21:39:17 3 C 34 %
563 15-11-2019 21:49:17 2.9 C 36 %
564 15-11-2019 21:59:17 3 C 36 %
565 15-11-2019 22:09:17 2.8 C 36 %
566 15-11-2019 22:19:17 2.6 C 37 %
567 15-11-2019 22:29:17 2.6 C 39 %
568 15-11-2019 22:39:17 2.7 C 39 %
569 15-11-2019 22:49:17 2.7 C 39 %
570 15-11-2019 22:59:17 2.5 C 38 %
571 15-11-2019 23:09:17 2.6 C 39 %
572 15-11-2019 23:19:17 2.7 C 39 %
573 15-11-2019 23:29:17 2.6 C 38 %
574 15-11-2019 23:39:17 2.5 C 38 %
575 15-11-2019 23:49:17 2.5 C 40 %
Sensor: Nr:Datum:Temp:Feuchte:
Aussen-T/F 576 15-11-2019 23:59:17 2.3 C 40 %
577 16-11-2019 00:09:17 2.3 C 40 %
578 16-11-2019 00:19:17 2.3 C 40 %
579 16-11-2019 00:29:17 2.3 C 40 %
580 16-11-2019 00:39:17 2.3 C 40 %
581 16-11-2019 00:49:17 2.4 C 40 %
582 16-11-2019 00:59:17 2.3 C 40 %
583 16-11-2019 01:09:17 2.3 C 40 %
584 16-11-2019 01:19:17 2.2 C 40 %
585 16-11-2019 01:29:17 2.2 C 40 %
586 16-11-2019 01:39:17 2.2 C 40 %
587 16-11-2019 01:49:17 2.3 C 40 %
588 16-11-2019 01:59:17 2.3 C 40 %
589 16-11-2019 02:09:17 2.3 C 40 %
590 16-11-2019 02:19:17 2.3 C 40 %
591 16-11-2019 02:29:17 2.2 C 40 %
592 16-11-2019 02:39:17 2.1 C 39 %
593 16-11-2019 02:49:17 2.1 C 40 %
594 16-11-2019 02:59:17 2 C 40 %
595 16-11-2019 03:09:17 2 C 40 %
596 16-11-2019 03:19:17 1.9 C 41 %
597 16-11-2019 03:29:17 1.5 C 40 %
598 16-11-2019 03:39:18 1.3 C 40 %
599 16-11-2019 03:49:17 1.3 C 41 %
600 16-11-2019 03:59:17 1.3 C 41 %
Sensor: Nr:Datum:Temp:Feuchte:
Aussen-T/F 601 16-11-2019 04:09:17 1.1 C 41 %
602 16-11-2019 04:19:17 0.8 C 41 %
603 16-11-2019 04:29:17 0.3 C 40 %
604 16-11-2019 04:39:17 0 C 41 %
605 16-11-2019 04:49:17 -0.2 C 41 %
606 16-11-2019 04:59:17 -0.1 C 42 %
607 16-11-2019 05:09:17 -0.4 C 42 %
608 16-11-2019 05:19:17 -0.5 C 42 %
609 16-11-2019 05:29:17 -0.7 C 42 %
610 16-11-2019 05:39:17 -0.6 C 42 %
611 16-11-2019 05:49:17 -0.8 C 42 %
612 16-11-2019 05:59:17 -1 C 42 %
613 16-11-2019 06:09:17 -1 C 42 %
614 16-11-2019 06:19:17 -1.1 C 42 %
615 16-11-2019 06:29:17 -1 C 43 %
616 16-11-2019 06:39:17 -1 C 43 %
617 16-11-2019 06:49:17 -1.4 C 42 %
618 16-11-2019 06:59:17 -1.5 C 42 %
619 16-11-2019 07:09:17 -1.5 C 42 %
620 16-11-2019 07:19:17 -1.6 C 42 %
621 16-11-2019 07:29:17 -1.4 C 43 %
622 16-11-2019 07:39:17 -1 C 43 %
623 16-11-2019 07:49:17 -0.9 C 43 %
624 16-11-2019 07:59:17 -0.7 C 43 %
625 16-11-2019 08:09:17 -0.7 C 43 %
Sensor: Nr:Datum:Temp:Feuchte:
Aussen-T/F 626 16-11-2019 08:19:17 -0.7 C 43 %
627 16-11-2019 08:29:17 -0.6 C 43 %
628 16-11-2019 08:39:17 -0.5 C 43 %
629 16-11-2019 08:49:17 -0.4 C 43 %
630 16-11-2019 08:59:17 -0.3 C 43 %
631 16-11-2019 09:09:17 -0.4 C 43 %
632 16-11-2019 09:19:17 -0.5 C 43 %
633 16-11-2019 09:29:17 -0.5 C 43 %
634 16-11-2019 09:39:17 -0.4 C 43 %
635 16-11-2019 09:49:17 -0.4 C 43 %
636 16-11-2019 09:59:17 -0.2 C 43 %
637 16-11-2019 10:09:17 0.2 C 43 %
638 16-11-2019 10:19:17 0.6 C 43 %
639 16-11-2019 10:29:17 0.6 C 41 %
640 16-11-2019 10:39:17 0.3 C 40 %
641 16-11-2019 10:49:17 0.5 C 40 %
642 16-11-2019 10:59:17 0.6 C 39 %
643 16-11-2019 11:09:17 0.7 C 38 %
644 16-11-2019 11:19:17 1.1 C 36 %
645 16-11-2019 11:29:17 1.6 C 32 %
646 16-11-2019 11:39:17 2.4 C 32 %
647 16-11-2019 11:49:17 2.1 C 30 %
648 16-11-2019 11:59:17 1.8 C 31 %
649 16-11-2019 12:09:17 1.6 C 32 %
650 16-11-2019 12:19:17 1.6 C 33 %
Sensor: Nr:Datum:Temp:Feuchte:
Aussen-T/F 651 16-11-2019 12:29:17 2.3 C 31 %
652 16-11-2019 12:39:17 2.5 C 30 %
653 16-11-2019 12:49:17 2.6 C 32 %
654 16-11-2019 12:59:17 2.6 C 33 %
655 16-11-2019 13:09:17 2.5 C 35 %
656 16-11-2019 13:19:17 2.6 C 36 %
657 16-11-2019 13:29:17 3.2 C 36 %
658 16-11-2019 13:39:17 3.7 C 35 %
659 16-11-2019 13:49:17 4 C 32 %
660 16-11-2019 13:59:17 3.9 C 32 %
661 16-11-2019 14:09:17 3.7 C 32 %
662 16-11-2019 14:19:17 3.7 C 33 %
663 16-11-2019 14:29:17 3.7 C 32 %
664 16-11-2019 14:39:17 3.9 C 32 %
665 16-11-2019 14:49:17 3.9 C 31 %
666 16-11-2019 14:59:17 4 C 30 %
667 16-11-2019 15:09:17 4.4 C 29 %
668 16-11-2019 15:19:17 4.7 C 29 %
669 16-11-2019 15:29:17 4.6 C 29 %
670 16-11-2019 15:39:17 4.4 C 28 %
671 16-11-2019 15:49:17 4.5 C 28 %
672 16-11-2019 15:59:17 4.2 C 28 %
673 16-11-2019 16:09:17 4 C 29 %
674 16-11-2019 16:19:17 4.3 C 26 %
675 16-11-2019 16:29:17 3.8 C 27 %
Sensor: Nr:Datum:Temp:Feuchte:
Aussen-T/F 676 16-11-2019 16:39:17 3.5 C 30 %
677 16-11-2019 16:49:17 3.6 C 31 %
678 16-11-2019 16:59:17 3.4 C 32 %
679 16-11-2019 17:09:17 3.5 C 32 %
680 16-11-2019 17:19:17 3.3 C 32 %
681 16-11-2019 17:29:17 2.6 C 36 %
682 16-11-2019 17:39:17 2.2 C 36 %
683 16-11-2019 17:49:17 2.3 C 39 %
684 16-11-2019 17:59:17 2.2 C 40 %
685 16-11-2019 18:09:17 2 C 39 %
686 16-11-2019 18:19:17 2.2 C 40 %
687 16-11-2019 18:29:17 2 C 40 %
688 16-11-2019 18:39:17 1.9 C 40 %
689 16-11-2019 18:49:17 1.7 C 40 %
690 16-11-2019 18:59:17 1.6 C 40 %
691 16-11-2019 19:09:17 1.4 C 40 %
692 16-11-2019 19:19:17 1.3 C 41 %
693 16-11-2019 19:29:17 1 C 41 %
694 16-11-2019 19:39:17 1.1 C 42 %
695 16-11-2019 19:49:17 0.7 C 42 %
696 16-11-2019 19:59:17 0.5 C 42 %
697 16-11-2019 20:09:17 0.5 C 43 %
698 16-11-2019 20:19:17 0.6 C 43 %
699 16-11-2019 20:29:17 0.7 C 44 %
700 16-11-2019 20:39:17 0.7 C 44 %
Sensor: Nr:Datum:Temp:Feuchte:
Aussen-T/F 701 16-11-2019 20:49:17 0.6 C 43 %
702 16-11-2019 20:59:17 0.6 C 43 %
703 16-11-2019 21:09:17 1.1 C 43 %
704 16-11-2019 21:19:17 0.3 C 43 %
705 16-11-2019 21:29:17 0.1 C 43 %
706 16-11-2019 21:39:17 0 C 43 %
707 16-11-2019 21:49:17 -0.2 C 42 %
708 16-11-2019 21:59:17 -0.3 C 43 %
709 16-11-2019 22:09:17 0 C 43 %
710 16-11-2019 22:19:17 -0.5 C 43 %
711 16-11-2019 22:29:17 -0.7 C 42 %
712 16-11-2019 22:39:17 -0.9 C 42 %
713 16-11-2019 22:49:17 -0.9 C 42 %
714 16-11-2019 22:59:17 -1 C 42 %
715 16-11-2019 23:09:17 -1.2 C 42 %
716 16-11-2019 23:19:17 -1 C 42 %
717 16-11-2019 23:29:17 -1.3 C 42 %
718 16-11-2019 23:39:17 -1.3 C 42 %
719 16-11-2019 23:49:17 -1.6 C 42 %
720 16-11-2019 23:59:17 -1.6 C 42 %
721 17-11-2019 00:09:17 -1.6 C 42 %
722 17-11-2019 00:19:17 -1.3 C 43 %
723 17-11-2019 00:29:17 -1.6 C 42 %
724 17-11-2019 00:39:17 -1.9 C 42 %
725 17-11-2019 00:49:17 -1.9 C 42 %
Sensor: Nr:Datum:Temp:Feuchte:
Aussen-T/F 726 17-11-2019 00:59:17 -2 C 41 %
727 17-11-2019 01:09:17 -2.2 C 41 %
728 17-11-2019 01:19:17 -1.4 C 42 %
729 17-11-2019 01:29:17 -2 C 41 %
730 17-11-2019 01:39:17 -1.7 C 42 %
731 17-11-2019 01:49:17 -1.3 C 42 %
732 17-11-2019 01:59:17 -1.2 C 42 %
733 17-11-2019 02:09:17 -1 C 43 %
734 17-11-2019 02:19:17 -1 C 43 %
735 17-11-2019 02:29:17 -0.5 C 43 %
736 17-11-2019 02:39:17 -0.3 C 43 %
737 17-11-2019 02:49:17 -0.2 C 43 %
738 17-11-2019 02:59:17 -0.2 C 43 %
739 17-11-2019 03:09:17 0 C 43 %
740 17-11-2019 03:19:17 0.1 C 43 %
741 17-11-2019 03:29:17 0.2 C 43 %
742 17-11-2019 03:39:17 0.3 C 43 %
743 17-11-2019 03:49:17 0.5 C 43 %
744 17-11-2019 03:59:17 0.5 C 43 %
745 17-11-2019 04:09:17 0.7 C 43 %
746 17-11-2019 04:19:17 0.8 C 43 %
747 17-11-2019 04:29:17 0.9 C 43 %
748 17-11-2019 04:39:17 0.9 C 43 %
749 17-11-2019 04:49:17 0.8 C 43 %
750 17-11-2019 04:59:17 0.8 C 43 %
Sensor: Nr:Datum:Temp:Feuchte:
Aussen-T/F 751 17-11-2019 05:09:17 0.8 C 43 %
752 17-11-2019 05:19:17 0.8 C 43 %
753 17-11-2019 05:29:17 1 C 42 %
754 17-11-2019 05:39:17 0.8 C 43 %
755 17-11-2019 05:49:17 0.8 C 43 %
756 17-11-2019 05:59:17 0.8 C 43 %
757 17-11-2019 06:09:17 0.8 C 43 %
758 17-11-2019 06:19:17 0.8 C 43 %
759 17-11-2019 06:29:17 0.8 C 43 %
760 17-11-2019 06:39:17 0.9 C 43 %
761 17-11-2019 06:49:17 1 C 41 %
762 17-11-2019 06:59:17 0.9 C 43 %
763 17-11-2019 07:09:17 1 C 41 %
764 17-11-2019 07:19:17 1 C 41 %
765 17-11-2019 07:29:17 1 C 41 %
766 17-11-2019 07:39:17 1.1 C 41 %
767 17-11-2019 07:49:17 1.1 C 41 %
768 17-11-2019 07:59:17 1.1 C 41 %
769 17-11-2019 08:09:17 1.2 C 41 %
770 17-11-2019 08:19:17 1.2 C 41 %
771 17-11-2019 08:29:17 1.2 C 41 %
772 17-11-2019 08:39:17 1.3 C 41 %
773 17-11-2019 08:49:17 1.4 C 41 %
774 17-11-2019 08:59:17 1.5 C 42 %
775 17-11-2019 09:09:17 1.5 C 42 %
Sensor: Nr:Datum:Temp:Feuchte:
Aussen-T/F 776 17-11-2019 09:19:17 1.8 C 42 %
777 17-11-2019 09:29:17 2 C 41 %
778 17-11-2019 09:39:17 2.1 C 41 %
779 17-11-2019 09:49:17 2.1 C 41 %
780 17-11-2019 09:59:17 2.3 C 41 %
781 17-11-2019 10:09:17 2.5 C 42 %
782 17-11-2019 10:19:17 2.6 C 42 %
783 17-11-2019 10:29:17 2.6 C 42 %
784 17-11-2019 10:39:17 2.7 C 41 %
785 17-11-2019 10:49:17 2.8 C 41 %
786 17-11-2019 10:59:17 3 C 41 %
787 17-11-2019 11:09:17 3.2 C 40 %
788 17-11-2019 11:19:17 3.3 C 40 %
789 17-11-2019 11:29:17 3.5 C 39 %
790 17-11-2019 11:39:17 3.5 C 39 %
791 17-11-2019 11:49:17 3.5 C 39 %
792 17-11-2019 11:59:17 3.7 C 38 %
793 17-11-2019 12:09:17 3.9 C 38 %
794 17-11-2019 12:19:17 3.8 C 38 %
795 17-11-2019 12:29:17 3.9 C 38 %
796 17-11-2019 12:39:17 4 C 37 %
797 17-11-2019 12:49:17 4.1 C 37 %
798 17-11-2019 12:59:17 4.4 C 37 %
799 17-11-2019 13:09:17 4.5 C 36 %
800 17-11-2019 13:19:17 4.6 C 33 %
Sensor: Nr:Datum:Temp:Feuchte:
Aussen-T/F 801 17-11-2019 13:29:17 4.7 C 32 %
802 17-11-2019 13:39:17 4.7 C 32 %
803 17-11-2019 13:49:17 4.8 C 32 %
804 17-11-2019 13:59:17 4.8 C 32 %
805 17-11-2019 14:09:17 4.9 C 33 %
806 17-11-2019 14:19:17 4.9 C 31 %
807 17-11-2019 14:29:17 5.1 C 31 %
808 17-11-2019 14:39:17 4.6 C 29 %
809 17-11-2019 14:49:17 4.4 C 31 %
810 17-11-2019 14:59:17 4.3 C 35 %
811 17-11-2019 15:09:17 4.3 C 35 %
812 17-11-2019 15:19:17 4.2 C 37 %
813 17-11-2019 15:29:17 4.1 C 37 %
814 17-11-2019 15:39:18 4.2 C 38 %
815 17-11-2019 15:49:17 4 C 38 %
816 17-11-2019 15:59:17 4 C 37 %
817 17-11-2019 16:09:17 4 C 38 %
818 17-11-2019 16:19:17 4 C 38 %
819 17-11-2019 16:29:17 3.8 C 40 %
820 17-11-2019 16:39:17 3.8 C 40 %
821 17-11-2019 16:49:17 3.8 C 39 %
822 17-11-2019 16:59:17 3.7 C 40 %
823 17-11-2019 17:09:17 3.7 C 40 %
824 17-11-2019 17:19:17 3.6 C 40 %
825 17-11-2019 17:29:17 3.6 C 40 %
Sensor: Nr:Datum:Temp:Feuchte:
Aussen-T/F 826 17-11-2019 17:39:17 3.6 C 40 %
827 17-11-2019 17:49:17 3.6 C 41 %
828 17-11-2019 17:59:17 3.7 C 41 %
829 17-11-2019 18:09:17 3.8 C 41 %
830 17-11-2019 18:19:17 3.9 C 42 %
831 17-11-2019 18:29:17 3.9 C 42 %
832 17-11-2019 18:39:17 3.9 C 41 %
833 17-11-2019 18:49:17 3.9 C 41 %
834 17-11-2019 18:59:17 3.8 C 41 %
835 17-11-2019 19:09:17 3.8 C 40 %
836 17-11-2019 19:19:17 3.8 C 41 %
837 17-11-2019 19:29:17 3.8 C 41 %
838 17-11-2019 19:39:17 3.8 C 41 %
839 17-11-2019 19:49:17 3.9 C 41 %
840 17-11-2019 19:59:17 3.9 C 41 %
841 17-11-2019 20:09:17 3.9 C 41 %
842 17-11-2019 20:19:17 3.9 C 41 %
843 17-11-2019 20:29:17 3.9 C 41 %
844 17-11-2019 20:39:17 3.9 C 41 %
845 17-11-2019 20:49:17 4 C 40 %
846 17-11-2019 20:59:17 4 C 40 %
847 17-11-2019 21:09:17 3.9 C 41 %
848 17-11-2019 21:19:17 4 C 40 %
849 17-11-2019 21:29:17 3.9 C 41 %
850 17-11-2019 21:39:17 3.9 C 41 %
Sensor: Nr:Datum:Temp:Feuchte:
Aussen-T/F 851 17-11-2019 21:49:17 3.9 C 41 %
852 17-11-2019 21:59:17 3.9 C 41 %
853 17-11-2019 22:09:17 3.9 C 41 %
854 17-11-2019 22:19:17 3.9 C 41 %
855 17-11-2019 22:29:17 3.9 C 41 %
856 17-11-2019 22:39:17 3.9 C 41 %
857 17-11-2019 22:49:17 3.9 C 41 %
858 17-11-2019 22:59:17 3.8 C 41 %
859 17-11-2019 23:09:17 3.8 C 41 %
860 17-11-2019 23:19:17 3.8 C 41 %
861 17-11-2019 23:29:17 3.8 C 41 %
862 17-11-2019 23:39:17 3.8 C 41 %
863 17-11-2019 23:49:17 3.7 C 41 %
864 17-11-2019 23:59:17 3.6 C 41 %
865 18-11-2019 00:09:17 3.6 C 40 %
866 18-11-2019 00:19:17 3.6 C 40 %
867 18-11-2019 00:29:17 3.5 C 40 %
868 18-11-2019 00:39:17 3.5 C 40 %
869 18-11-2019 00:49:17 3.4 C 40 %
870 18-11-2019 00:59:17 3.4 C 39 %
871 18-11-2019 01:09:17 3.4 C 39 %
872 18-11-2019 01:19:17 3.4 C 38 %
873 18-11-2019 01:29:17 3.4 C 38 %
874 18-11-2019 01:39:17 3.3 C 38 %
875 18-11-2019 01:49:17 3.4 C 39 %
Sensor: Nr:Datum:Temp:Feuchte:
Aussen-T/F 876 18-11-2019 01:59:17 3.4 C 39 %
877 18-11-2019 02:09:17 3.4 C 40 %
878 18-11-2019 02:19:17 3.3 C 40 %
879 18-11-2019 02:29:17 3.4 C 40 %
880 18-11-2019 02:39:17 3.4 C 40 %
881 18-11-2019 02:49:17 3.4 C 40 %
882 18-11-2019 02:59:17 3.3 C 40 %
883 18-11-2019 03:09:17 3.3 C 40 %
884 18-11-2019 03:19:17 3.4 C 41 %
885 18-11-2019 03:29:17 3.4 C 41 %
886 18-11-2019 03:39:17 3.3 C 40 %
887 18-11-2019 03:49:17 3.4 C 40 %
888 18-11-2019 03:59:17 3.4 C 40 %
889 18-11-2019 04:09:17 3.4 C 40 %
890 18-11-2019 04:19:17 3.3 C 40 %
891 18-11-2019 04:29:17 3.4 C 40 %
892 18-11-2019 04:39:18 3.3 C 40 %
893 18-11-2019 04:49:17 3.3 C 40 %
894 18-11-2019 04:59:17 3.3 C 40 %
895 18-11-2019 05:09:17 3.4 C 40 %
896 18-11-2019 05:19:18 3.3 C 40 %
897 18-11-2019 05:29:18 3.3 C 40 %
898 18-11-2019 05:39:17 3.3 C 41 %
899 18-11-2019 05:49:17 3.3 C 40 %
900 18-11-2019 05:59:17 3.3 C 41 %
Sensor: Nr:Datum:Temp:Feuchte:
Aussen-T/F 901 18-11-2019 06:09:17 3.3 C 41 %
902 18-11-2019 06:19:17 3.3 C 41 %
903 18-11-2019 06:29:17 3.2 C 41 %
904 18-11-2019 06:39:17 3.2 C 41 %
905 18-11-2019 06:49:17 3.2 C 41 %
906 18-11-2019 06:59:17 3.2 C 41 %
907 18-11-2019 07:09:17 3.2 C 41 %
908 18-11-2019 07:19:18 3.2 C 41 %
909 18-11-2019 07:29:18 3.2 C 41 %
910 18-11-2019 07:39:18 3.3 C 41 %
911 18-11-2019 07:49:17 3.3 C 41 %
912 18-11-2019 07:59:17 3.3 C 41 %
913 18-11-2019 08:09:17 3.3 C 41 %
914 18-11-2019 08:19:17 3.3 C 41 %
915 18-11-2019 08:29:17 3.4 C 41 %
916 18-11-2019 08:39:18 3.4 C 41 %
917 18-11-2019 08:49:18 3.4 C 41 %
918 18-11-2019 08:59:18 3.4 C 41 %
919 18-11-2019 09:09:17 3.5 C 41 %
920 18-11-2019 09:19:17 3.6 C 41 %
921 18-11-2019 09:29:17 3.6 C 40 %
922 18-11-2019 09:39:17 3.7 C 40 %
923 18-11-2019 09:49:17 3.9 C 38 %
924 18-11-2019 09:59:17 4.1 C 37 %
925 18-11-2019 10:09:17 4.1 C 35 %
Sensor: Nr:Datum:Temp:Feuchte:
Aussen-T/F 926 18-11-2019 10:19:31 4.2 C 35 %
927 18-11-2019 10:29:31 4.1 C 35 %
928 18-11-2019 10:39:17 4.1 C 35 %
929 18-11-2019 10:49:17 4.2 C 36 %
930 18-11-2019 10:59:17 4.1 C 35 %
931 18-11-2019 11:09:17 4.1 C 35 %
932 18-11-2019 11:19:17 4.2 C 35 %
933 18-11-2019 11:29:17 4.3 C 34 %
934 18-11-2019 11:39:17 4.4 C 34 %
935 18-11-2019 11:49:17 4.7 C 33 %
936 18-11-2019 11:59:17 5 C 29 %
937 18-11-2019 12:09:17 4.9 C 30 %
938 18-11-2019 12:19:17 5 C 28 %
939 18-11-2019 12:29:17 4.8 C 30 %
940 18-11-2019 12:39:17 4.8 C 30 %
941 18-11-2019 12:49:17 4.8 C 30 %
942 18-11-2019 12:59:17 4.8 C 30 %
943 18-11-2019 13:09:17 4.7 C 30 %
944 18-11-2019 13:19:17 4.7 C 31 %
945 18-11-2019 13:29:17 4.8 C 30 %
946 18-11-2019 13:39:17 4.8 C 30 %
947 18-11-2019 13:49:17 4.8 C 29 %
948 18-11-2019 13:59:17 4.8 C 30 %
949 18-11-2019 14:09:17 4.8 C 28 %
950 18-11-2019 14:19:17 4.8 C 30 %
Sensor: Nr:Datum:Temp:Feuchte:
Aussen-T/F 951 18-11-2019 14:29:17 4.8 C 30 %
952 18-11-2019 14:39:17 4.8 C 30 %
953 18-11-2019 14:49:17 4.6 C 30 %
954 18-11-2019 14:59:17 4.5 C 30 %
955 18-11-2019 15:09:17 4.5 C 31 %
956 18-11-2019 15:19:18 4.5 C 31 %
957 18-11-2019 15:29:18 4.5 C 30 %
958 18-11-2019 15:39:17 4.5 C 30 %
959 18-11-2019 15:49:17 4.4 C 30 %
960 18-11-2019 15:59:17 4.3 C 30 %
961 18-11-2019 16:09:17 4.2 C 31 %
962 18-11-2019 16:19:17 4.1 C 31 %
963 18-11-2019 16:29:17 4.1 C 30 %
964 18-11-2019 16:39:17 4.1 C 31 %
965 18-11-2019 16:49:17 4.1 C 32 %
966 18-11-2019 16:59:17 4.1 C 30 %
967 18-11-2019 17:09:17 4.1 C 30 %
968 18-11-2019 17:19:17 4.1 C 30 %
969 18-11-2019 17:29:17 4 C 31 %
970 18-11-2019 17:39:17 4 C 31 %
971 18-11-2019 17:49:17 4 C 31 %
972 18-11-2019 17:59:17 3.9 C 33 %
973 18-11-2019 18:09:17 3.9 C 34 %
974 18-11-2019 18:19:17 3.8 C 34 %
975 18-11-2019 18:29:17 3.8 C 35 %
Sensor: Nr:Datum:Temp:Feuchte:
Aussen-T/F 976 18-11-2019 18:39:17 3.7 C 34 %
977 18-11-2019 18:49:17 3.5 C 36 %
978 18-11-2019 18:59:17 3.5 C 35 %
979 18-11-2019 19:09:17 3.3 C 34 %
980 18-11-2019 19:19:17 3.2 C 34 %
981 18-11-2019 19:29:17 3 C 36 %
982 18-11-2019 19:39:17 2.9 C 36 %
983 18-11-2019 19:49:17 2.7 C 36 %
984 18-11-2019 19:59:17 2.7 C 36 %
985 18-11-2019 20:09:17 2.4 C 36 %
986 18-11-2019 20:19:17 2.3 C 37 %
987 18-11-2019 20:29:17 2.2 C 36 %
988 18-11-2019 20:39:17 2 C 37 %
989 18-11-2019 20:49:17 1.9 C 39 %
990 18-11-2019 20:59:17 1.8 C 38 %
991 18-11-2019 21:09:17 1.6 C 40 %
992 18-11-2019 21:19:17 1.5 C 39 %
993 18-11-2019 21:29:17 1.5 C 40 %
994 18-11-2019 21:39:17 1.5 C 40 %
995 18-11-2019 21:49:17 1.6 C 40 %
996 18-11-2019 21:59:17 1.8 C 40 %
997 18-11-2019 22:09:17 2 C 38 %
998 18-11-2019 22:19:17 2 C 38 %
999 18-11-2019 22:29:17 2.2 C 36 %
1000 18-11-2019 22:39:17 2.2 C 36 %
Sensor: Nr:Datum:Temp:Feuchte:
Aussen-T/F 1001 18-11-2019 22:49:17 2.2 C 36 %
1002 18-11-2019 22:59:17 2.2 C 36 %
1003 18-11-2019 23:09:17 2.2 C 36 %
1004 18-11-2019 23:19:17 2.4 C 36 %
1005 18-11-2019 23:29:17 2.6 C 36 %
1006 18-11-2019 23:39:17 2.7 C 35 %
1007 18-11-2019 23:49:17 2.7 C 35 %
1008 18-11-2019 23:59:17 2.8 C 36 %
1009 19-11-2019 00:09:17 2.9 C 36 %
1010 19-11-2019 00:19:17 2.9 C 36 %
1011 19-11-2019 00:29:17 3 C 36 %
1012 19-11-2019 00:39:17 3 C 35 %
1013 19-11-2019 00:49:18 3 C 35 %
1014 19-11-2019 00:59:18 3 C 36 %
1015 19-11-2019 01:09:17 3.2 C 36 %
1016 19-11-2019 01:19:17 3.2 C 36 %
1017 19-11-2019 01:29:17 3.2 C 36 %
1018 19-11-2019 01:39:18 3.3 C 37 %
1019 19-11-2019 01:49:18 3.4 C 36 %
1020 19-11-2019 01:59:18 3.3 C 36 %
1021 19-11-2019 02:09:18 3.3 C 36 %
1022 19-11-2019 02:19:17 3.4 C 36 %
1023 19-11-2019 02:29:17 3.3 C 36 %
1024 19-11-2019 02:39:17 3.4 C 37 %
1025 19-11-2019 02:49:17 3.3 C 37 %
Sensor: Nr:Datum:Temp:Feuchte:
Aussen-T/F 1026 19-11-2019 02:59:17 3.3 C 38 %
1027 19-11-2019 03:09:17 3.3 C 40 %
1028 19-11-2019 03:19:17 3.4 C 39 %
1029 19-11-2019 03:29:17 3.4 C 39 %
1030 19-11-2019 03:39:17 3.5 C 37 %
1031 19-11-2019 03:49:17 3.5 C 37 %
1032 19-11-2019 03:59:17 3.5 C 38 %
1033 19-11-2019 04:09:17 3.6 C 37 %
1034 19-11-2019 04:19:18 3.6 C 36 %
1035 19-11-2019 04:29:18 3.5 C 36 %
1036 19-11-2019 04:39:17 3.5 C 37 %
1037 19-11-2019 04:49:17 3.4 C 37 %
1038 19-11-2019 04:59:17 3.1 C 39 %
1039 19-11-2019 05:09:17 2.5 C 40 %
1040 19-11-2019 05:19:18 2.3 C 41 %
1041 19-11-2019 05:29:18 2 C 42 %
1042 19-11-2019 05:39:17 1.6 C 43 %
1043 19-11-2019 05:49:17 1.5 C 43 %
1044 19-11-2019 05:59:17 1.8 C 44 %
1045 19-11-2019 06:09:17 1.8 C 44 %
1046 19-11-2019 06:19:17 1.7 C 43 %
1047 19-11-2019 06:29:17 1.7 C 43 %
1048 19-11-2019 06:39:17 1.8 C 43 %
1049 19-11-2019 06:49:17 2 C 42 %
1050 19-11-2019 06:59:17 2.1 C 42 %
Sensor: Nr:Datum:Temp:Feuchte:
Aussen-T/F 1051 19-11-2019 07:09:17 2.4 C 42 %
1052 19-11-2019 07:19:17 2.2 C 42 %
1053 19-11-2019 07:29:17 1.5 C 42 %
1054 19-11-2019 07:39:17 1.3 C 42 %
1055 19-11-2019 07:49:17 1.2 C 42 %
1056 19-11-2019 07:59:17 1.8 C 43 %
1057 19-11-2019 08:09:17 2.1 C 42 %
1058 19-11-2019 08:19:17 2.5 C 42 %
1059 19-11-2019 08:29:17 2.8 C 42 %
1060 19-11-2019 08:39:17 2.5 C 41 %
1061 19-11-2019 08:49:17 2.6 C 41 %
1062 19-11-2019 08:59:17 3.2 C 41 %
1063 19-11-2019 09:09:17 3.3 C 40 %
1064 19-11-2019 09:19:17 3.3 C 39 %
1065 19-11-2019 09:29:17 3.4 C 38 %
1066 19-11-2019 09:39:17 3.3 C 35 %
1067 19-11-2019 09:49:17 3.2 C 35 %
1068 19-11-2019 09:59:17 3.1 C 35 %
1069 19-11-2019 10:09:17 3.1 C 36 %
1070 19-11-2019 10:19:17 3.2 C 36 %
1071 19-11-2019 10:29:17 3.3 C 37 %
1072 19-11-2019 10:39:17 3.2 C 38 %
1073 19-11-2019 10:49:17 3.3 C 38 %
1074 19-11-2019 10:59:17 3.4 C 38 %
1075 19-11-2019 11:09:17 3.5 C 38 %
Sensor: Nr:Datum:Temp:Feuchte:
Aussen-T/F 1076 19-11-2019 11:19:17 3.5 C 38 %
1077 19-11-2019 11:29:17 4.2 C 33 %
1078 19-11-2019 11:39:17 5 C 30 %
1079 19-11-2019 11:49:17 5.5 C 23 %
1080 19-11-2019 11:59:17 5.5 C 23 %
1081 19-11-2019 12:09:17 5.5 C 23 %
1082 19-11-2019 12:19:17 6.2 C 20 %
1083 19-11-2019 12:29:17 6.3 C 20 %
1084 19-11-2019 12:39:17 5.5 C 20 %
1085 19-11-2019 12:49:17 5.6 C 20 %
1086 19-11-2019 12:59:17 5.7 C 20 %
1087 19-11-2019 13:09:17 5.8 C 20 %
1088 19-11-2019 13:19:17 5.7 C 20 %
1089 19-11-2019 13:29:17 5.8 C 20 %
1090 19-11-2019 13:39:17 5.7 C 20 %
1091 19-11-2019 13:49:17 6 C 20 %
1092 19-11-2019 13:59:17 6.3 C 20 %
1093 19-11-2019 14:09:17 6.2 C 20 %
1094 19-11-2019 14:19:17 6.2 C 20 %
1095 19-11-2019 14:29:17 6 C 20 %
1096 19-11-2019 14:39:17 5.9 C 20 %
1097 19-11-2019 14:49:17 5.8 C 20 %
1098 19-11-2019 14:59:17 5.9 C 25 %
1099 19-11-2019 15:09:17 5.8 C 23 %
1100 19-11-2019 15:19:18 5.6 C 28 %
Sensor: Nr:Datum:Temp:Feuchte:
Aussen-T/F 1101 19-11-2019 15:29:18 5.4 C 30 %
1102 19-11-2019 15:39:17 5.1 C 32 %
1103 19-11-2019 15:49:17 4.9 C 30 %
1104 19-11-2019 15:59:17 4.8 C 32 %
1105 19-11-2019 16:09:17 4.7 C 35 %
1106 19-11-2019 16:19:17 4.5 C 36 %
1107 19-11-2019 16:29:17 4.4 C 35 %
1108 19-11-2019 16:39:17 4.4 C 35 %
1109 19-11-2019 16:49:17 3.8 C 38 %
1110 19-11-2019 16:59:17 3.5 C 39 %
1111 19-11-2019 17:09:17 3.3 C 40 %
1112 19-11-2019 17:19:17 3.2 C 41 %
1113 19-11-2019 17:29:17 2.9 C 41 %
1114 19-11-2019 17:39:17 2.8 C 42 %
1115 19-11-2019 17:49:17 2.7 C 42 %
1116 19-11-2019 17:59:17 2.7 C 42 %
1117 19-11-2019 18:09:17 2.4 C 42 %
1118 19-11-2019 18:19:17 2.2 C 42 %
1119 19-11-2019 18:29:17 2.3 C 42 %
1120 19-11-2019 18:39:17 2.5 C 42 %
1121 19-11-2019 18:49:17 2.6 C 42 %
1122 19-11-2019 18:59:17 2 C 41 %
1123 19-11-2019 19:09:17 1.4 C 41 %
1124 19-11-2019 19:19:17 1.4 C 42 %
1125 19-11-2019 19:29:17 1.5 C 42 %
Sensor: Nr:Datum:Temp:Feuchte:
Aussen-T/F 1126 19-11-2019 19:39:17 1.2 C 42 %
1127 19-11-2019 19:49:17 1 C 42 %
1128 19-11-2019 19:59:17 0.6 C 43 %
1129 19-11-2019 20:09:17 0.9 C 44 %
1130 19-11-2019 20:19:17 1.5 C 43 %
1131 19-11-2019 20:29:17 1.8 C 43 %
1132 19-11-2019 20:39:17 1.9 C 43 %
1133 19-11-2019 20:49:17 1.9 C 43 %
1134 19-11-2019 20:59:17 1.9 C 43 %
1135 19-11-2019 21:09:17 1.9 C 43 %
1136 19-11-2019 21:19:17 1.9 C 43 %
1137 19-11-2019 21:29:17 1.9 C 42 %
1138 19-11-2019 21:39:17 2 C 41 %
1139 19-11-2019 21:49:17 2 C 41 %
1140 19-11-2019 21:59:17 1.9 C 42 %
1141 19-11-2019 22:09:17 1.7 C 42 %
1142 19-11-2019 22:19:17 1.5 C 41 %
1143 19-11-2019 22:29:17 1.4 C 41 %
1144 19-11-2019 22:39:17 1.1 C 41 %
1145 19-11-2019 22:49:17 0.6 C 41 %
1146 19-11-2019 22:59:17 0.6 C 42 %
1147 19-11-2019 23:09:17 -0.1 C 42 %
1148 19-11-2019 23:19:17 -0.2 C 42 %
1149 19-11-2019 23:29:17 -0.4 C 42 %
1150 19-11-2019 23:39:17 -0.5 C 42 %
Sensor: Nr:Datum:Temp:Feuchte:
Aussen-T/F 1151 19-11-2019 23:49:17 -0.5 C 42 %
1152 19-11-2019 23:59:17 -0.6 C 42 %
1153 20-11-2019 00:09:17 -0.7 C 42 %
1154 20-11-2019 00:19:17 -0.6 C 42 %
1155 20-11-2019 00:29:17 -0.5 C 42 %
1156 20-11-2019 00:39:17 -0.7 C 42 %
1157 20-11-2019 00:49:17 -0.7 C 43 %
1158 20-11-2019 00:59:17 -0.8 C 42 %
1159 20-11-2019 01:09:17 -0.8 C 42 %
1160 20-11-2019 01:19:17 -1.1 C 42 %
1161 20-11-2019 01:29:17 -1.1 C 42 %
1162 20-11-2019 01:39:17 -0.7 C 43 %
1163 20-11-2019 01:49:17 -0.6 C 43 %
1164 20-11-2019 01:59:17 -0.5 C 43 %
1165 20-11-2019 02:09:17 -0.4 C 43 %
1166 20-11-2019 02:19:17 -0.4 C 43 %
1167 20-11-2019 02:29:17 -0.5 C 43 %
1168 20-11-2019 02:39:17 -0.5 C 43 %
1169 20-11-2019 02:49:17 -0.4 C 43 %
1170 20-11-2019 02:59:17 -0.4 C 43 %
1171 20-11-2019 03:09:17 -0.3 C 43 %
1172 20-11-2019 03:19:17 -0.3 C 43 %
1173 20-11-2019 03:29:17 -0.4 C 43 %
1174 20-11-2019 03:39:17 -0.5 C 43 %
1175 20-11-2019 03:49:17 -0.5 C 43 %
Sensor: Nr:Datum:Temp:Feuchte:
Aussen-T/F 1176 20-11-2019 03:59:17 -0.7 C 43 %
1177 20-11-2019 04:09:17 -0.6 C 43 %
1178 20-11-2019 04:19:17 -0.5 C 43 %
1179 20-11-2019 04:29:17 -0.6 C 42 %
1180 20-11-2019 04:39:17 -0.5 C 42 %
1181 20-11-2019 04:49:17 -0.5 C 42 %
1182 20-11-2019 04:59:17 -0.4 C 42 %
1183 20-11-2019 05:09:17 -0.3 C 42 %
1184 20-11-2019 05:19:17 -0.3 C 42 %
1185 20-11-2019 05:29:17 -0.3 C 42 %
1186 20-11-2019 05:39:17 -0.3 C 42 %
1187 20-11-2019 05:49:17 -0.3 C 42 %
1188 20-11-2019 05:59:17 -0.2 C 42 %
1189 20-11-2019 06:09:17 -0.1 C 42 %
1190 20-11-2019 06:19:17 -0.1 C 42 %
1191 20-11-2019 06:29:17 0 C 42 %
1192 20-11-2019 06:39:17 0 C 42 %
1193 20-11-2019 06:49:17 0 C 42 %
1194 20-11-2019 06:59:17 0.2 C 42 %
1195 20-11-2019 07:09:17 0.2 C 42 %
1196 20-11-2019 07:19:17 0.2 C 42 %
1197 20-11-2019 07:29:17 0.4 C 42 %
1198 20-11-2019 07:39:18 0.3 C 42 %
1199 20-11-2019 07:49:17 0.4 C 42 %
1200 20-11-2019 07:59:17 0.4 C 42 %
Sensor: Nr:Datum:Temp:Feuchte:
Aussen-T/F 1201 20-11-2019 08:09:17 0.4 C 42 %
1202 20-11-2019 08:19:17 0.5 C 42 %
1203 20-11-2019 08:29:17 0.6 C 42 %
1204 20-11-2019 08:39:17 0.7 C 43 %
1205 20-11-2019 08:49:17 0.8 C 43 %
1206 20-11-2019 08:59:17 0.9 C 43 %
1207 20-11-2019 09:09:17 1.1 C 42 %
1208 20-11-2019 09:19:17 1 C 42 %
1209 20-11-2019 09:29:17 1.2 C 42 %
1210 20-11-2019 09:39:17 1.6 C 42 %
1211 20-11-2019 09:49:17 1.7 C 42 %
1212 20-11-2019 09:59:17 2 C 41 %
1213 20-11-2019 10:09:17 2.1 C 41 %
1214 20-11-2019 10:19:17 2.4 C 41 %
1215 20-11-2019 10:29:17 2.9 C 41 %
1216 20-11-2019 10:39:17 3 C 39 %
1217 20-11-2019 10:49:17 2.6 C 39 %
1218 20-11-2019 10:59:17 2.5 C 38 %
1219 20-11-2019 11:09:17 2.6 C 38 %
1220 20-11-2019 11:19:17 3.3 C 38 %
1221 20-11-2019 11:29:17 3.3 C 37 %
1222 20-11-2019 11:39:17 3 C 35 %
1223 20-11-2019 11:49:17 3.7 C 35 %
1224 20-11-2019 11:59:17 4.3 C 31 %
1225 20-11-2019 12:09:17 3.9 C 30 %
Sensor: Nr:Datum:Temp:Feuchte:
Aussen-T/F 1226 20-11-2019 12:19:17 4.3 C 30 %
1227 20-11-2019 12:29:17 4.5 C 30 %
1228 20-11-2019 12:39:17 4.5 C 27 %
1229 20-11-2019 12:49:17 4.6 C 26 %
1230 20-11-2019 12:59:17 4.5 C 26 %
1231 20-11-2019 13:09:17 4.7 C 25 %
1232 20-11-2019 13:19:17 4.5 C 23 %
1233 20-11-2019 13:29:17 4.4 C 23 %
1234 20-11-2019 13:39:17 4.7 C 20 %
1235 20-11-2019 13:49:17 5.1 C 20 %
1236 20-11-2019 13:59:17 4.8 C 20 %
1237 20-11-2019 14:09:17 4.8 C 20 %
1238 20-11-2019 14:19:17 4.8 C 20 %
1239 20-11-2019 14:29:17 4.7 C 20 %
1240 20-11-2019 14:39:17 4.7 C 20 %
1241 20-11-2019 14:49:17 4.7 C 20 %
1242 20-11-2019 14:59:17 4.7 C 20 %
1243 20-11-2019 15:09:17 4.7 C 20 %
1244 20-11-2019 15:19:17 4.7 C 20 %
1245 20-11-2019 15:29:17 4.6 C 20 %
1246 20-11-2019 15:39:17 4.5 C 20 %
1247 20-11-2019 15:49:17 4.3 C 21 %
1248 20-11-2019 15:59:17 3.4 C 26 %
1249 20-11-2019 16:09:17 2.7 C 28 %
1250 20-11-2019 16:19:17 2.2 C 29 %
Sensor: Nr:Datum:Temp:Feuchte:
Aussen-T/F 1251 20-11-2019 16:29:17 1.8 C 30 %
1252 20-11-2019 16:39:17 1.8 C 30 %
1253 20-11-2019 16:49:17 1.5 C 32 %
1254 20-11-2019 16:59:17 1.5 C 32 %
1255 20-11-2019 17:09:17 1.7 C 32 %
1256 20-11-2019 17:19:17 1.8 C 34 %
1257 20-11-2019 17:29:17 1.7 C 35 %
1258 20-11-2019 17:39:17 0.9 C 35 %
1259 20-11-2019 17:49:17 0.5 C 38 %
1260 20-11-2019 17:59:17 0.6 C 40 %
1261 20-11-2019 18:09:17 0.3 C 40 %
1262 20-11-2019 18:19:17 0.2 C 41 %
1263 20-11-2019 18:29:17 0.1 C 40 %
1264 20-11-2019 18:39:17 0 C 41 %
1265 20-11-2019 18:49:17 -0.2 C 41 %
1266 20-11-2019 18:59:17 -0.7 C 41 %
1267 20-11-2019 19:09:17 -0.9 C 41 %
1268 20-11-2019 19:19:17 -1.1 C 41 %
1269 20-11-2019 19:29:17 -1.2 C 41 %
1270 20-11-2019 19:39:18 -1.2 C 42 %
1271 20-11-2019 19:49:18 -1.4 C 42 %
1272 20-11-2019 19:59:18 -1.5 C 42 %
1273 20-11-2019 20:09:18 -1.6 C 42 %
1274 20-11-2019 20:19:17 -1.7 C 42 %
1275 20-11-2019 20:29:17 -1.4 C 43 %
Sensor: Nr:Datum:Temp:Feuchte:
Aussen-T/F 1276 20-11-2019 20:39:17 -1.4 C 43 %
1277 20-11-2019 20:59:17 -1.7 C 43 %
1278 20-11-2019 20:59:17 -1.8 C 43 %
1279 20-11-2019 21:09:17 -1.8 C 42 %
1280 20-11-2019 21:19:17 -2 C 42 %
1281 20-11-2019 21:29:17 -2.1 C 42 %
1282 20-11-2019 21:39:17 -2.1 C 42 %
1283 20-11-2019 21:49:17 -2.3 C 42 %
1284 20-11-2019 21:59:17 -2.1 C 42 %
1285 20-11-2019 22:09:17 -2 C 43 %
1286 20-11-2019 22:19:17 -2.1 C 42 %
1287 20-11-2019 22:29:17 -2.2 C 42 %
1288 20-11-2019 22:39:17 -2.1 C 42 %
1289 20-11-2019 22:49:17 -1.8 C 43 %
1290 20-11-2019 22:59:17 -1.7 C 43 %
1291 20-11-2019 23:09:17 -1.6 C 43 %
1292 20-11-2019 23:19:17 -1.4 C 43 %
1293 20-11-2019 23:29:17 -1.6 C 43 %
1294 20-11-2019 23:39:17 -1.3 C 43 %
1295 20-11-2019 23:49:17 -1.1 C 43 %
1296 20-11-2019 23:59:17 -1.1 C 43 %
1297 21-11-2019 00:09:17 -1.3 C 43 %
1298 21-11-2019 00:29:17 -1.8 C 42 %
1299 21-11-2019 00:30:17 -1.9 C 42 %
1300 21-11-2019 00:39:17 -2 C 41 %
Sensor: Nr:Datum:Temp:Feuchte:
Aussen-T/F 1301 21-11-2019 00:50:17 -2.1 C 41 %
1302 21-11-2019 01:00:17 -2.4 C 41 %
1303 21-11-2019 01:10:17 -2.4 C 41 %
1304 21-11-2019 01:20:17 -2.5 C 41 %
1305 21-11-2019 01:30:17 -2.3 C 41 %
1306 21-11-2019 01:40:17 -2.7 C 40 %
1307 21-11-2019 01:50:17 -2.6 C 41 %
1308 21-11-2019 02:00:17 -2.6 C 40 %
1309 21-11-2019 02:10:17 -2.7 C 40 %
1310 21-11-2019 02:20:17 -2.2 C 42 %
1311 21-11-2019 02:30:17 -2.3 C 42 %
1312 21-11-2019 02:40:17 -1.9 C 42 %
1313 21-11-2019 02:50:17 -2.1 C 42 %
1314 21-11-2019 03:00:17 -2.2 C 41 %
1315 21-11-2019 03:10:17 -2.4 C 41 %
1316 21-11-2019 03:20:17 -2.3 C 41 %
1317 21-11-2019 03:30:17 -2.1 C 42 %
1318 21-11-2019 03:40:17 -1.8 C 42 %
1319 21-11-2019 03:50:17 -1.6 C 42 %
1320 21-11-2019 04:00:17 -1.5 C 42 %
1321 21-11-2019 04:10:17 -1.3 C 43 %
1322 21-11-2019 04:20:17 -1.1 C 43 %
1323 21-11-2019 04:30:17 -1 C 43 %
1324 21-11-2019 04:40:17 -1 C 43 %
1325 21-11-2019 04:50:17 -1 C 43 %
Sensor: Nr:Datum:Temp:Feuchte:
Aussen-T/F 1326 21-11-2019 05:00:17 -1 C 43 %
1327 21-11-2019 05:10:17 -0.7 C 43 %
1328 21-11-2019 05:20:17 -0.6 C 43 %
1329 21-11-2019 05:30:17 -0.6 C 43 %
1330 21-11-2019 05:40:17 -0.5 C 43 %
1331 21-11-2019 05:50:17 -0.4 C 43 %
1332 21-11-2019 06:00:17 -0.3 C 43 %
1333 21-11-2019 06:10:17 -0.3 C 43 %
1334 21-11-2019 06:20:17 -0.3 C 43 %
1335 21-11-2019 06:30:17 -0.3 C 43 %
1336 21-11-2019 06:40:17 -0.3 C 43 %
1337 21-11-2019 06:50:17 -0.2 C 43 %
1338 21-11-2019 07:00:17 -0.2 C 43 %
1339 21-11-2019 07:10:17 -0.2 C 43 %
1340 21-11-2019 07:20:17 -0.1 C 43 %
1341 21-11-2019 07:30:17 -0.2 C 43 %
1342 21-11-2019 07:40:17 -0.2 C 43 %
1343 21-11-2019 07:50:17 -0.1 C 43 %
1344 21-11-2019 08:00:17 -0.1 C 43 %
1345 21-11-2019 08:10:17 0 C 43 %
1346 21-11-2019 08:20:17 0 C 43 %
1347 21-11-2019 08:30:17 0.1 C 43 %
1348 21-11-2019 08:40:17 0.2 C 43 %
1349 21-11-2019 08:50:17 0.2 C 43 %
1350 21-11-2019 09:00:17 0.2 C 43 %
Sensor: Nr:Datum:Temp:Feuchte:
Aussen-T/F 1351 21-11-2019 09:10:17 0.3 C 43 %
1352 21-11-2019 09:20:17 0.4 C 43 %
1353 21-11-2019 09:30:17 0.6 C 43 %
1354 21-11-2019 09:40:17 0.8 C 43 %
1355 21-11-2019 09:50:17 1.1 C 42 %
1356 21-11-2019 10:00:17 1.1 C 41 %
1357 21-11-2019 10:10:17 1.2 C 40 %
1358 21-11-2019 10:20:17 1.6 C 40 %
1359 21-11-2019 10:30:17 1.5 C 39 %
1360 21-11-2019 10:40:17 1.5 C 39 %
1361 21-11-2019 10:50:17 1.7 C 38 %
1362 21-11-2019 11:00:17 2.1 C 37 %
1363 21-11-2019 11:10:17 2.2 C 37 %
1364 21-11-2019 11:20:17 2.3 C 34 %
1365 21-11-2019 11:30:17 2.5 C 33 %
1366 21-11-2019 11:40:17 2.7 C 33 %
1367 21-11-2019 11:50:17 3 C 32 %
1368 21-11-2019 12:00:17 2.8 C 32 %
1369 21-11-2019 12:10:17 2.5 C 33 %
1370 21-11-2019 12:20:17 2.6 C 34 %
1371 21-11-2019 12:30:18 2.8 C 35 %
1372 21-11-2019 12:40:18 3.1 C 35 %
1373 21-11-2019 12:50:18 3.3 C 34 %
1374 21-11-2019 13:00:17 3.1 C 31 %
1375 21-11-2019 13:10:17 3.7 C 34 %
Sensor: Nr:Datum:Temp:Feuchte:
Aussen-T/F 1376 21-11-2019 13:20:17 3.9 C 31 %
1377 21-11-2019 13:30:17 4.1 C 32 %
1378 21-11-2019 13:40:17 4 C 31 %
1379 21-11-2019 13:50:17 3.9 C 32 %
1380 21-11-2019 14:00:17 3.9 C 31 %
1381 21-11-2019 14:10:17 3.9 C 30 %
1382 21-11-2019 14:20:17 4.2 C 31 %
1383 21-11-2019 14:30:17 4.4 C 31 %
1384 21-11-2019 14:40:17 4.4 C 30 %
1385 21-11-2019 14:50:17 4.1 C 29 %
1386 21-11-2019 15:00:17 4.1 C 30 %
1387 21-11-2019 15:10:17 4.2 C 29 %
1388 21-11-2019 15:20:17 4.4 C 30 %
1389 21-11-2019 15:30:17 4.3 C 30 %
1390 21-11-2019 15:40:17 4.2 C 29 %
1391 21-11-2019 15:50:17 4.3 C 30 %
1392 21-11-2019 16:00:17 4.3 C 30 %
1393 21-11-2019 16:10:17 4.2 C 31 %
1394 21-11-2019 16:20:17 4 C 33 %
1395 21-11-2019 16:30:17 3.9 C 36 %
1396 21-11-2019 16:40:17 3.7 C 37 %
1397 21-11-2019 16:50:17 3.7 C 39 %
1398 21-11-2019 17:00:17 3.6 C 39 %
1399 21-11-2019 17:10:17 3.6 C 38 %
1400 21-11-2019 17:20:17 3.5 C 39 %
Sensor: Nr:Datum:Temp:Feuchte:
Aussen-T/F 1401 21-11-2019 17:30:17 3.4 C 39 %
1402 21-11-2019 17:40:17 3.4 C 39 %
1403 21-11-2019 17:50:17 3.3 C 39 %
1404 21-11-2019 18:00:17 3.3 C 39 %
1405 21-11-2019 18:10:17 3.3 C 39 %
1406 21-11-2019 18:20:17 3.3 C 38 %
1407 21-11-2019 18:30:17 3.3 C 39 %
1408 21-11-2019 18:40:17 3.4 C 39 %
1409 21-11-2019 18:50:17 3.3 C 40 %
1410 21-11-2019 19:00:17 3.3 C 40 %
1411 21-11-2019 19:10:17 3.2 C 40 %
1412 21-11-2019 19:20:17 3 C 39 %
1413 21-11-2019 19:30:17 3 C 40 %
1414 21-11-2019 19:40:17 3.1 C 41 %
1415 21-11-2019 19:50:17 2.9 C 41 %
1416 21-11-2019 20:00:17 2.5 C 40 %
1417 21-11-2019 20:10:17 2 C 40 %
1418 21-11-2019 20:20:17 1.9 C 42 %
1419 21-11-2019 20:30:17 2.1 C 42 %
1420 21-11-2019 20:40:17 1.6 C 42 %
1421 21-11-2019 20:50:17 1.5 C 42 %
1422 21-11-2019 21:00:17 1.6 C 43 %
1423 21-11-2019 21:10:17 1.6 C 43 %
1424 21-11-2019 21:20:17 1.3 C 43 %
1425 21-11-2019 21:30:17 1.3 C 43 %
Sensor: Nr:Datum:Temp:Feuchte:
Aussen-T/F 1426 21-11-2019 21:40:17 1.5 C 43 %
1427 21-11-2019 21:50:17 1.2 C 43 %
1428 21-11-2019 22:00:17 1 C 42 %
1429 21-11-2019 22:10:17 0.8 C 44 %
1430 21-11-2019 22:20:17 1.2 C 43 %
1431 21-11-2019 22:30:17 0.9 C 44 %
1432 21-11-2019 22:40:17 0.8 C 44 %
1433 21-11-2019 22:50:17 1 C 43 %
1434 21-11-2019 23:00:17 1.1 C 43 %
1435 21-11-2019 23:10:17 1.4 C 43 %
1436 21-11-2019 23:20:17 1 C 43 %
1437 21-11-2019 23:30:17 1 C 43 %
1438 21-11-2019 23:40:17 1.5 C 43 %
1439 21-11-2019 23:50:17 1.5 C 43 %
1440 22-11-2019 00:00:17 1.3 C 43 %
1441 22-11-2019 00:10:17 1.3 C 43 %
1442 22-11-2019 00:20:17 1.3 C 43 %
1443 22-11-2019 00:30:17 1.3 C 43 %
1444 22-11-2019 00:40:17 1 C 42 %
1445 22-11-2019 00:50:17 1.1 C 42 %
1446 22-11-2019 01:00:17 1 C 42 %
1447 22-11-2019 01:10:17 1.2 C 43 %
1448 22-11-2019 01:20:17 0.9 C 43 %
1449 22-11-2019 01:30:17 1 C 42 %
1450 22-11-2019 01:40:17 1 C 42 %
Sensor: Nr:Datum:Temp:Feuchte:
Aussen-T/F 1451 22-11-2019 01:50:17 0.6 C 43 %
1452 22-11-2019 02:00:17 0.4 C 43 %
1453 22-11-2019 02:10:17 0 C 42 %
1454 22-11-2019 02:20:17 1 C 42 %
1455 22-11-2019 02:30:17 0.8 C 44 %
1456 22-11-2019 02:40:17 0.7 C 43 %
1457 22-11-2019 02:50:17 0.5 C 43 %
1458 22-11-2019 03:00:17 0.6 C 43 %
1459 22-11-2019 03:10:17 0.8 C 44 %
1460 22-11-2019 03:20:17 0.8 C 43 %
1461 22-11-2019 03:30:17 0.6 C 43 %
1462 22-11-2019 03:40:17 0.7 C 43 %
1463 22-11-2019 03:50:17 1.1 C 42 %
1464 22-11-2019 04:00:17 1.1 C 42 %
1465 22-11-2019 04:10:17 1.1 C 42 %
1466 22-11-2019 04:20:17 1.2 C 42 %
1467 22-11-2019 04:30:17 1.3 C 42 %
1468 22-11-2019 04:40:17 1.3 C 42 %
1469 22-11-2019 04:50:17 1.2 C 42 %
1470 22-11-2019 05:00:18 1.4 C 42 %
1471 22-11-2019 05:10:18 1.6 C 42 %
1472 22-11-2019 05:20:17 1.9 C 42 %
1473 22-11-2019 05:30:17 2.1 C 41 %
1474 22-11-2019 05:40:17 2.2 C 41 %
1475 22-11-2019 05:50:17 2.6 C 41 %
Sensor: Nr:Datum:Temp:Feuchte:
Aussen-T/F 1476 22-11-2019 06:00:18 2.5 C 41 %
1477 22-11-2019 06:10:18 2.8 C 41 %
1478 22-11-2019 06:20:18 2.6 C 41 %
1479 22-11-2019 06:30:18 2.7 C 41 %
1480 22-11-2019 06:40:18 2.9 C 41 %
1481 22-11-2019 06:50:18 3 C 41 %
1482 22-11-2019 07:00:17 3 C 41 %
1483 22-11-2019 07:10:17 3 C 41 %
1484 22-11-2019 07:20:17 3.1 C 41 %
1485 22-11-2019 07:30:17 3.2 C 41 %
1486 22-11-2019 07:40:17 3.4 C 41 %
1487 22-11-2019 07:50:17 3.4 C 41 %
1488 22-11-2019 08:00:17 3.4 C 41 %
1489 22-11-2019 08:10:17 3.5 C 41 %
1490 22-11-2019 08:20:17 3.7 C 41 %
1491 22-11-2019 08:30:17 3.8 C 41 %
1492 22-11-2019 08:40:17 3.7 C 41 %
1493 22-11-2019 08:50:17 3.7 C 41 %
1494 22-11-2019 09:00:17 3.9 C 41 %
1495 22-11-2019 09:10:17 3.9 C 40 %
1496 22-11-2019 09:20:17 4 C 39 %
1497 22-11-2019 09:30:17 3.8 C 39 %
1498 22-11-2019 09:40:17 3.7 C 39 %
1499 22-11-2019 09:50:17 3.5 C 39 %
1500 22-11-2019 10:00:17 3.3 C 39 %
Sensor: Nr:Datum:Temp:Feuchte:
Aussen-T/F 1501 22-11-2019 10:10:17 3.5 C 40 %
1502 22-11-2019 10:20:17 3.5 C 39 %
1503 22-11-2019 10:30:17 3.6 C 40 %
1504 22-11-2019 10:40:17 4.1 C 39 %
1505 22-11-2019 10:50:17 4.3 C 39 %
1506 22-11-2019 11:00:17 4.2 C 38 %
1507 22-11-2019 11:10:17 4.4 C 38 %
1508 22-11-2019 11:20:17 4.5 C 37 %
1509 22-11-2019 11:30:17 5 C 35 %
1510 22-11-2019 11:40:17 5.3 C 33 %
1511 22-11-2019 11:50:17 5.3 C 32 %
1512 22-11-2019 12:00:17 5.6 C 32 %
1513 22-11-2019 12:10:17 5.5 C 32 %
1514 22-11-2019 12:20:17 5.6 C 32 %
1515 22-11-2019 12:30:17 5.6 C 32 %
1516 22-11-2019 12:40:17 5.8 C 32 %
1517 22-11-2019 12:50:17 5.8 C 31 %
1518 22-11-2019 13:00:17 5.7 C 30 %
1519 22-11-2019 13:10:17 5.9 C 31 %
1520 22-11-2019 13:20:17 6 C 30 %
1521 22-11-2019 13:30:17 5.7 C 29 %
1522 22-11-2019 13:40:17 5.5 C 29 %
1523 22-11-2019 13:50:17 5.5 C 29 %
1524 22-11-2019 14:00:17 5.5 C 29 %
1525 22-11-2019 14:10:17 5.7 C 29 %
Sensor: Nr:Datum:Temp:Feuchte:
Aussen-T/F 1526 22-11-2019 14:20:17 5.7 C 28 %
1527 22-11-2019 14:30:17 5.9 C 28 %
1528 22-11-2019 14:40:17 5.8 C 27 %
1529 22-11-2019 14:50:17 5.8 C 28 %
1530 22-11-2019 15:00:17 5.6 C 28 %
1531 22-11-2019 15:10:17 5.6 C 28 %
1532 22-11-2019 15:20:17 5.6 C 29 %
1533 22-11-2019 15:30:17 5.5 C 28 %
1534 22-11-2019 15:40:17 5.4 C 29 %
1535 22-11-2019 15:50:17 5.4 C 29 %
1536 22-11-2019 16:00:17 5.3 C 29 %
1537 22-11-2019 16:10:17 5.3 C 30 %
1538 22-11-2019 16:20:17 5.2 C 30 %
1539 22-11-2019 16:30:17 5.2 C 30 %
1540 22-11-2019 16:40:17 5.1 C 31 %
1541 22-11-2019 16:50:17 5 C 31 %
1542 22-11-2019 17:00:17 4.9 C 32 %
1543 22-11-2019 17:10:17 4.9 C 33 %
1544 22-11-2019 17:20:17 4.8 C 34 %
1545 22-11-2019 17:30:17 4.9 C 33 %
1546 22-11-2019 17:40:17 4.9 C 32 %
1547 22-11-2019 17:50:17 5 C 31 %
1548 22-11-2019 18:00:17 5 C 30 %
1549 22-11-2019 18:10:17 4.8 C 32 %
1550 22-11-2019 18:20:17 4.7 C 34 %
Sensor: Nr:Datum:Temp:Feuchte:
Aussen-T/F 1551 22-11-2019 18:30:17 4.8 C 33 %
1552 22-11-2019 18:40:17 4.8 C 32 %
1553 22-11-2019 18:50:17 4.8 C 32 %
1554 22-11-2019 19:00:17 4.8 C 31 %
1555 22-11-2019 19:10:17 4.7 C 32 %
1556 22-11-2019 19:20:17 4.8 C 30 %
1557 22-11-2019 19:30:17 4.8 C 30 %
1558 22-11-2019 19:40:17 4.8 C 30 %
1559 22-11-2019 19:50:17 4.7 C 31 %
1560 22-11-2019 20:00:17 4.6 C 31 %
1561 22-11-2019 20:10:17 4.6 C 30 %
1562 22-11-2019 20:20:17 4.6 C 30 %
1563 22-11-2019 20:30:17 4.5 C 30 %
1564 22-11-2019 20:40:17 4.5 C 30 %
1565 22-11-2019 20:50:17 4.3 C 30 %
1566 22-11-2019 21:00:17 4.3 C 30 %
1567 22-11-2019 21:10:17 4.4 C 31 %
1568 22-11-2019 21:20:17 4.3 C 31 %
1569 22-11-2019 21:30:17 4.3 C 31 %
1570 22-11-2019 21:40:17 4.3 C 31 %
1571 22-11-2019 21:50:17 4.3 C 30 %
1572 22-11-2019 22:00:17 4.2 C 31 %
1573 22-11-2019 22:10:17 4.2 C 31 %
1574 22-11-2019 22:20:17 4.2 C 30 %
1575 22-11-2019 22:30:17 4.2 C 30 %
Sensor: Nr:Datum:Temp:Feuchte:
Aussen-T/F 1576 22-11-2019 22:40:17 4.2 C 29 %
1577 22-11-2019 22:50:17 4.1 C 30 %
1578 22-11-2019 23:00:17 4 C 30 %
1579 22-11-2019 23:10:17 4.1 C 28 %
1580 22-11-2019 23:20:17 4 C 30 %
1581 22-11-2019 23:30:17 4 C 30 %
1582 22-11-2019 23:40:17 4 C 30 %
1583 22-11-2019 23:50:17 3.9 C 31 %
1584 23-11-2019 00:00:17 4 C 29 %
1585 23-11-2019 00:10:17 4 C 29 %
1586 23-11-2019 00:20:17 4 C 29 %
1587 23-11-2019 00:30:17 4 C 29 %
1588 23-11-2019 00:40:17 4 C 28 %
1589 23-11-2019 00:50:17 4 C 29 %
1590 23-11-2019 01:00:17 4.1 C 28 %
1591 23-11-2019 01:10:17 4.2 C 27 %
1592 23-11-2019 01:20:17 4.1 C 29 %
1593 23-11-2019 01:30:17 4 C 30 %
1594 23-11-2019 01:40:17 4.1 C 29 %
1595 23-11-2019 01:50:17 4 C 29 %
1596 23-11-2019 02:00:17 4.1 C 27 %
1597 23-11-2019 02:10:17 4.1 C 27 %
1598 23-11-2019 02:20:17 4 C 30 %
1599 23-11-2019 02:30:18 3.8 C 32 %
1600 23-11-2019 02:40:18 3.7 C 32 %
Sensor: Nr:Datum:Temp:Feuchte:
Aussen-T/F 1601 23-11-2019 02:50:17 3.6 C 32 %
1602 23-11-2019 03:00:17 3.6 C 33 %
1603 23-11-2019 03:10:17 3.7 C 32 %
1604 23-11-2019 03:20:17 3.8 C 31 %
1605 23-11-2019 03:30:17 3.7 C 32 %
1606 23-11-2019 03:40:17 3.5 C 33 %
1607 23-11-2019 03:50:17 3.2 C 34 %
1608 23-11-2019 04:00:17 3.2 C 35 %
1609 23-11-2019 04:10:17 3.1 C 38 %
1610 23-11-2019 04:20:17 3.3 C 36 %
1611 23-11-2019 04:30:17 3 C 36 %
1612 23-11-2019 04:40:17 3 C 37 %
1613 23-11-2019 04:50:17 3 C 37 %
1614 23-11-2019 05:00:17 3 C 38 %
1615 23-11-2019 05:10:17 3 C 39 %
1616 23-11-2019 05:20:17 2.7 C 39 %
1617 23-11-2019 05:30:17 2.9 C 40 %
1618 23-11-2019 05:40:17 2.8 C 40 %
1619 23-11-2019 05:50:17 2.9 C 40 %
1620 23-11-2019 06:00:17 3 C 39 %
1621 23-11-2019 06:10:17 3 C 39 %
1622 23-11-2019 06:20:17 3 C 39 %
1623 23-11-2019 06:30:17 3 C 40 %
1624 23-11-2019 06:40:17 3.1 C 40 %
1625 23-11-2019 06:50:17 3 C 40 %
Sensor: Nr:Datum:Temp:Feuchte:
Aussen-T/F 1626 23-11-2019 07:00:17 3.2 C 40 %
1627 23-11-2019 07:10:17 3.2 C 39 %
1628 23-11-2019 07:20:17 3.3 C 40 %
1629 23-11-2019 07:30:17 3.2 C 39 %
1630 23-11-2019 07:40:17 3.3 C 40 %
1631 23-11-2019 07:50:17 3.2 C 40 %
1632 23-11-2019 08:00:17 3.3 C 39 %
1633 23-11-2019 08:10:17 3.3 C 40 %
1634 23-11-2019 08:20:17 3.2 C 40 %
1635 23-11-2019 08:30:17 3.3 C 40 %
1636 23-11-2019 08:40:17 3.4 C 40 %
1637 23-11-2019 08:50:17 3.8 C 37 %
1638 23-11-2019 09:00:17 4.2 C 33 %
1639 23-11-2019 09:10:17 4.3 C 33 %
1640 23-11-2019 09:20:17 4.5 C 33 %
1641 23-11-2019 09:30:17 4.9 C 31 %
1642 23-11-2019 09:40:17 5.1 C 31 %
1643 23-11-2019 09:50:17 5.4 C 27 %
1644 23-11-2019 10:00:17 5.4 C 26 %
1645 23-11-2019 10:10:17 5.7 C 26 %
1646 23-11-2019 10:20:17 6 C 26 %
1647 23-11-2019 10:30:17 6 C 25 %
1648 23-11-2019 10:40:17 6.1 C 26 %
1649 23-11-2019 10:50:17 6.2 C 25 %
1650 23-11-2019 11:00:17 6.4 C 25 %
Sensor: Nr:Datum:Temp:Feuchte:
Aussen-T/F 1651 23-11-2019 11:10:17 6.6 C 25 %
1652 23-11-2019 11:20:17 6.7 C 25 %
1653 23-11-2019 11:30:17 7.1 C 21 %
1654 23-11-2019 11:40:17 7.1 C 23 %
1655 23-11-2019 11:50:17 7 C 25 %
1656 23-11-2019 12:00:17 6.4 C 28 %
1657 23-11-2019 12:10:17 6.4 C 28 %
1658 23-11-2019 12:20:17 6.5 C 27 %
1659 23-11-2019 12:30:17 6.5 C 28 %
1660 23-11-2019 12:40:17 6.5 C 29 %
1661 23-11-2019 12:50:17 7.3 C 25 %
1662 23-11-2019 13:00:17 7.3 C 25 %
1663 23-11-2019 13:10:17 6.7 C 28 %
1664 23-11-2019 13:20:17 6.8 C 29 %
1665 23-11-2019 13:30:17 6.6 C 29 %
1666 23-11-2019 13:40:17 6.6 C 30 %
1667 23-11-2019 13:50:17 6.6 C 30 %
1668 23-11-2019 14:00:17 6.6 C 30 %
1669 23-11-2019 14:10:17 6.8 C 30 %
1670 23-11-2019 14:20:17 7 C 29 %
1671 23-11-2019 14:30:17 7.2 C 27 %
1672 23-11-2019 14:40:17 7.1 C 28 %
1673 23-11-2019 14:50:17 7.2 C 28 %
1674 23-11-2019 15:00:17 7.7 C 26 %
1675 23-11-2019 15:10:17 8.1 C 26 %
Sensor: Nr:Datum:Temp:Feuchte:
Aussen-T/F 1676 23-11-2019 15:20:17 8.4 C 23 %
1677 23-11-2019 15:30:17 8.4 C 25 %
1678 23-11-2019 15:40:17 8.1 C 25 %
1679 23-11-2019 15:50:17 7.5 C 26 %
1680 23-11-2019 16:00:17 7.5 C 26 %
1681 23-11-2019 16:10:17 7.3 C 25 %
1682 23-11-2019 16:20:17 7.3 C 25 %
1683 23-11-2019 16:30:17 6.5 C 28 %
1684 23-11-2019 16:40:17 5.9 C 31 %
1685 23-11-2019 16:50:17 5.7 C 32 %
1686 23-11-2019 17:00:17 5.7 C 32 %
1687 23-11-2019 17:10:17 5.8 C 31 %
1688 23-11-2019 17:20:17 5.6 C 32 %
1689 23-11-2019 17:30:17 5.5 C 33 %
1690 23-11-2019 17:40:17 5.3 C 32 %
1691 23-11-2019 17:50:17 5.3 C 33 %
1692 23-11-2019 18:00:17 5.3 C 33 %
1693 23-11-2019 18:10:17 5 C 34 %
1694 23-11-2019 18:20:17 5.3 C 34 %
1695 23-11-2019 18:30:17 5.3 C 34 %
1696 23-11-2019 18:40:17 5.3 C 34 %
1697 23-11-2019 18:50:17 4.9 C 36 %
1698 23-11-2019 19:00:17 5.1 C 35 %
1699 23-11-2019 19:10:17 5 C 36 %
1700 23-11-2019 19:20:17 5 C 36 %
Sensor: Nr:Datum:Temp:Feuchte:
Aussen-T/F 1701 23-11-2019 19:30:17 5 C 36 %
1702 23-11-2019 19:40:17 4.7 C 36 %
1703 23-11-2019 19:50:17 4.7 C 38 %
1704 23-11-2019 20:00:17 4.5 C 40 %
1705 23-11-2019 20:10:17 4.2 C 39 %
1706 23-11-2019 20:20:17 4.1 C 40 %
1707 23-11-2019 20:30:17 3.6 C 40 %
1708 23-11-2019 20:40:18 3.6 C 40 %
1709 23-11-2019 20:50:17 3.6 C 42 %
1710 23-11-2019 21:00:17 3.6 C 42 %
1711 23-11-2019 21:10:17 3.5 C 42 %
1712 23-11-2019 21:20:17 3.3 C 41 %
1713 23-11-2019 21:30:17 3.2 C 41 %
1714 23-11-2019 21:40:17 3.2 C 42 %
1715 23-11-2019 21:50:17 3.2 C 42 %
1716 23-11-2019 22:00:17 3.1 C 42 %
1717 23-11-2019 22:10:17 2.8 C 42 %
1718 23-11-2019 22:20:17 2.6 C 42 %
1719 23-11-2019 22:30:17 2.7 C 42 %
1720 23-11-2019 22:40:17 2.6 C 42 %
1721 23-11-2019 22:50:17 2.6 C 42 %
1722 23-11-2019 23:00:17 2.5 C 42 %
1723 23-11-2019 23:10:17 2.2 C 42 %
1724 23-11-2019 23:20:17 2.2 C 42 %
1725 23-11-2019 23:30:17 2 C 42 %
Sensor: Nr:Datum:Temp:Feuchte:
Aussen-T/F 1726 23-11-2019 23:40:17 2.1 C 42 %
1727 23-11-2019 23:50:17 2.1 C 42 %
1728 24-11-2019 00:00:17 1.9 C 43 %
1729 24-11-2019 00:10:17 1.7 C 43 %
1730 24-11-2019 00:20:17 1.7 C 43 %
1731 24-11-2019 00:30:17 1.6 C 43 %
1732 24-11-2019 00:40:17 1.4 C 42 %
1733 24-11-2019 00:50:18 1.1 C 42 %
1734 24-11-2019 01:00:18 1.2 C 43 %
1735 24-11-2019 01:10:18 1.4 C 43 %
1736 24-11-2019 01:20:17 1.3 C 43 %
1737 24-11-2019 01:30:17 1.2 C 42 %
1738 24-11-2019 01:40:17 1.2 C 43 %
1739 24-11-2019 01:50:17 1.1 C 43 %
1740 24-11-2019 02:00:17 1.1 C 43 %
1741 24-11-2019 02:10:17 1.1 C 43 %
1742 24-11-2019 02:20:17 1.2 C 43 %
1743 24-11-2019 02:30:17 1 C 42 %
1744 24-11-2019 02:40:17 1.1 C 42 %
1745 24-11-2019 02:50:17 1.1 C 42 %
1746 24-11-2019 03:00:17 0.9 C 44 %
1747 24-11-2019 03:10:17 1.1 C 43 %
1748 24-11-2019 03:20:17 1.2 C 42 %
1749 24-11-2019 03:30:17 1 C 42 %
1750 24-11-2019 03:40:17 0.7 C 43 %
Sensor: Nr:Datum:Temp:Feuchte:
Aussen-T/F 1751 24-11-2019 03:50:17 0.6 C 43 %
1752 24-11-2019 04:00:17 0.5 C 43 %
1753 24-11-2019 04:10:17 0.5 C 43 %
1754 24-11-2019 04:20:17 0.6 C 43 %
1755 24-11-2019 04:30:17 0.5 C 43 %
1756 24-11-2019 04:40:17 0.5 C 43 %
1757 24-11-2019 04:50:17 0.6 C 44 %
1758 24-11-2019 05:00:17 0.6 C 44 %
1759 24-11-2019 05:10:17 0.8 C 44 %
1760 24-11-2019 05:20:17 1 C 42 %
1761 24-11-2019 05:30:17 1.1 C 42 %
1762 24-11-2019 05:40:17 1 C 42 %
1763 24-11-2019 05:50:17 0.6 C 43 %
1764 24-11-2019 06:00:18 0.4 C 43 %
1765 24-11-2019 06:10:18 0.5 C 43 %
1766 24-11-2019 06:20:17 0.5 C 43 %
1767 24-11-2019 06:30:17 0.5 C 43 %
1768 24-11-2019 06:40:17 0.5 C 43 %
1769 24-11-2019 06:50:17 0.3 C 43 %
1770 24-11-2019 07:00:18 0.4 C 43 %
1771 24-11-2019 07:10:18 0.1 C 43 %
1772 24-11-2019 07:20:18 0.1 C 43 %
1773 24-11-2019 07:30:17 0.1 C 43 %
1774 24-11-2019 07:40:17 -0.3 C 43 %
1775 24-11-2019 07:50:18 -0.3 C 43 %
Sensor: Nr:Datum:Temp:Feuchte:
Aussen-T/F 1776 24-11-2019 08:00:18 -0.1 C 43 %
1777 24-11-2019 08:10:18 0.1 C 43 %
1778 24-11-2019 08:20:17 -0.1 C 43 %
1779 24-11-2019 08:30:17 0.3 C 43 %
1780 24-11-2019 08:40:17 0.5 C 43 %
1781 24-11-2019 08:50:17 0.5 C 43 %
1782 24-11-2019 09:00:17 0.6 C 43 %
1783 24-11-2019 09:10:17 0.7 C 43 %
1784 24-11-2019 09:20:17 0.8 C 43 %
1785 24-11-2019 09:30:17 0.8 C 43 %
1786 24-11-2019 09:40:17 1 C 42 %
1787 24-11-2019 09:50:17 1.1 C 42 %
1788 24-11-2019 10:00:17 1.2 C 42 %
1789 24-11-2019 10:10:17 1.5 C 42 %
1790 24-11-2019 10:20:17 1.7 C 42 %
1791 24-11-2019 10:30:17 2 C 42 %
1792 24-11-2019 10:40:17 2.2 C 41 %
1793 24-11-2019 10:50:17 2.7 C 42 %
1794 24-11-2019 11:00:17 2.5 C 41 %
1795 24-11-2019 11:10:17 2.1 C 40 %
1796 24-11-2019 11:20:17 2.2 C 40 %
1797 24-11-2019 11:30:17 2.2 C 40 %
1798 24-11-2019 11:40:17 2.3 C 40 %
1799 24-11-2019 11:50:17 2.5 C 40 %
1800 24-11-2019 12:00:17 2.7 C 41 %
Sensor: Nr:Datum:Temp:Feuchte:
Aussen-T/F 1801 24-11-2019 12:10:17 3 C 40 %
1802 24-11-2019 12:20:17 3.4 C 40 %
1803 24-11-2019 12:30:17 3.8 C 40 %
1804 24-11-2019 12:40:17 4 C 38 %
1805 24-11-2019 12:50:17 4.2 C 38 %
1806 24-11-2019 13:00:17 4.6 C 38 %
1807 24-11-2019 13:10:17 5.1 C 35 %
1808 24-11-2019 13:20:17 5 C 35 %
1809 24-11-2019 13:30:17 5 C 35 %
1810 24-11-2019 13:40:17 4.7 C 35 %
1811 24-11-2019 13:50:17 4.8 C 35 %
1812 24-11-2019 14:00:17 5.1 C 35 %
1813 24-11-2019 14:10:17 5.1 C 35 %
1814 24-11-2019 14:20:17 5 C 35 %
1815 24-11-2019 14:30:17 4.8 C 37 %
1816 24-11-2019 14:40:17 4.6 C 37 %
1817 24-11-2019 14:50:17 4.6 C 39 %
1818 24-11-2019 15:00:17 4.5 C 38 %
1819 24-11-2019 15:10:17 4.7 C 40 %
1820 24-11-2019 15:20:17 4.9 C 39 %
1821 24-11-2019 15:30:17 4.8 C 38 %
1822 24-11-2019 15:40:17 4.7 C 38 %
1823 24-11-2019 15:50:17 4.6 C 38 %
1824 24-11-2019 16:00:17 4.5 C 40 %
1825 24-11-2019 16:10:17 4.2 C 39 %
Sensor: Nr:Datum:Temp:Feuchte:
Aussen-T/F 1826 24-11-2019 16:20:17 3.9 C 40 %
1827 24-11-2019 16:30:17 3.7 C 41 %
1828 24-11-2019 16:40:17 3.5 C 41 %
1829 24-11-2019 16:50:17 3.2 C 41 %
1830 24-11-2019 17:00:17 3 C 41 %
1831 24-11-2019 17:10:17 2.8 C 42 %
1832 24-11-2019 17:20:17 2.7 C 42 %
1833 24-11-2019 17:30:17 2.6 C 42 %
1834 24-11-2019 17:40:17 2.4 C 42 %
1835 24-11-2019 17:50:17 2.6 C 43 %
1836 24-11-2019 18:00:17 2.5 C 42 %
1837 24-11-2019 18:10:17 2.8 C 43 %
1838 24-11-2019 18:20:17 2.6 C 42 %
1839 24-11-2019 18:30:17 2.9 C 43 %
1840 24-11-2019 18:40:17 2.6 C 42 %
1841 24-11-2019 18:50:17 2.7 C 42 %
1842 24-11-2019 19:00:17 2.5 C 42 %
1843 24-11-2019 19:10:17 2.6 C 42 %
1844 24-11-2019 19:20:17 2.6 C 42 %
1845 24-11-2019 19:30:17 2.8 C 42 %
1846 24-11-2019 19:40:17 2.7 C 42 %
1847 24-11-2019 19:50:17 2.7 C 42 %
1848 24-11-2019 20:00:17 2.5 C 42 %
1849 24-11-2019 20:10:17 2.4 C 42 %
1850 24-11-2019 20:20:17 2.1 C 41 %
Sensor: Nr:Datum:Temp:Feuchte:
Aussen-T/F 1851 24-11-2019 20:30:17 2 C 41 %
1852 24-11-2019 20:40:17 2 C 41 %
1853 24-11-2019 20:50:17 2 C 42 %
1854 24-11-2019 21:00:17 1.8 C 42 %
1855 24-11-2019 21:10:17 2.2 C 42 %
1856 24-11-2019 21:20:17 2 C 42 %
1857 24-11-2019 21:30:17 2 C 42 %
1858 24-11-2019 21:40:17 1.8 C 43 %
1859 24-11-2019 21:50:17 1.8 C 43 %
1860 24-11-2019 22:00:17 1.7 C 42 %
1861 24-11-2019 22:10:17 1.3 C 42 %
1862 24-11-2019 22:20:17 1.2 C 42 %
1863 24-11-2019 22:30:17 1.2 C 42 %
1864 24-11-2019 22:40:17 1 C 42 %
1865 24-11-2019 22:50:17 1 C 42 %
1866 24-11-2019 23:00:17 1.2 C 42 %
1867 24-11-2019 23:10:17 1 C 42 %
1868 24-11-2019 23:20:17 1 C 42 %
1869 24-11-2019 23:30:17 0.8 C 43 %
1870 24-11-2019 23:40:17 0.8 C 43 %
1871 24-11-2019 23:50:17 0.9 C 43 %
1872 25-11-2019 00:00:18 0.8 C 43 %
1873 25-11-2019 00:10:18 0.9 C 43 %
1874 25-11-2019 00:20:17 1.2 C 42 %
1875 25-11-2019 00:30:17 1.4 C 42 %
Sensor: Nr:Datum:Temp:Feuchte:
Aussen-T/F 1876 25-11-2019 00:40:17 1.5 C 42 %
1877 25-11-2019 00:50:18 1.5 C 42 %
1878 25-11-2019 01:00:18 1.5 C 42 %
1879 25-11-2019 01:10:18 1.5 C 42 %
1880 25-11-2019 01:20:17 1.6 C 42 %
1881 25-11-2019 01:30:17 1.5 C 42 %
1882 25-11-2019 01:40:17 1.4 C 42 %
1883 25-11-2019 01:50:17 1.3 C 42 %
1884 25-11-2019 02:00:17 1.3 C 42 %
1885 25-11-2019 02:10:17 1.3 C 42 %
1886 25-11-2019 02:20:17 1.2 C 42 %
1887 25-11-2019 02:30:17 1.3 C 42 %
1888 25-11-2019 02:40:17 1.4 C 42 %
1889 25-11-2019 02:50:17 1.5 C 42 %
1890 25-11-2019 03:00:17 1.6 C 42 %
1891 25-11-2019 03:10:17 1.5 C 42 %
1892 25-11-2019 03:20:17 1.5 C 42 %
1893 25-11-2019 03:30:17 1.5 C 42 %
1894 25-11-2019 03:40:17 1.6 C 42 %
1895 25-11-2019 03:50:17 1.7 C 42 %
1896 25-11-2019 04:00:17 1.8 C 42 %
1897 25-11-2019 04:10:17 1.8 C 42 %
1898 25-11-2019 04:20:17 1.9 C 42 %
1899 25-11-2019 04:30:17 2 C 41 %
1900 25-11-2019 04:40:17 2.1 C 41 %
Sensor: Nr:Datum:Temp:Feuchte:
Aussen-T/F 1901 25-11-2019 04:50:17 2.1 C 41 %
1902 25-11-2019 05:00:17 2.2 C 41 %
1903 25-11-2019 05:10:17 2.1 C 41 %
1904 25-11-2019 05:20:17 2.2 C 41 %
1905 25-11-2019 05:30:17 2.4 C 41 %
1906 25-11-2019 05:40:17 2.4 C 41 %
1907 25-11-2019 05:50:17 2.5 C 41 %
1908 25-11-2019 06:00:17 2.5 C 41 %
1909 25-11-2019 06:10:17 2.5 C 41 %
1910 25-11-2019 06:20:17 2.5 C 41 %
1911 25-11-2019 06:30:17 2.6 C 41 %
1912 25-11-2019 06:40:17 2.6 C 41 %
1913 25-11-2019 06:50:17 2.8 C 41 %
1914 25-11-2019 07:00:17 2.8 C 41 %
1915 25-11-2019 07:10:17 2.8 C 41 %
1916 25-11-2019 07:20:17 2.8 C 41 %
1917 25-11-2019 07:30:17 2.8 C 41 %
1918 25-11-2019 07:40:17 2.8 C 41 %
1919 25-11-2019 07:50:17 2.8 C 41 %
1920 25-11-2019 08:00:17 2.9 C 41 %
1921 25-11-2019 08:10:17 3 C 41 %
1922 25-11-2019 08:20:17 3.1 C 41 %
1923 25-11-2019 08:30:18 3.2 C 41 %
1924 25-11-2019 08:40:18 3.3 C 42 %
1925 25-11-2019 08:50:17 3.4 C 42 %
Sensor: Nr:Datum:Temp:Feuchte:
Aussen-T/F 1926 25-11-2019 09:00:17 3.6 C 43 %
1927 25-11-2019 09:10:17 3.6 C 43 %
1928 25-11-2019 09:20:17 3.7 C 43 %
1929 25-11-2019 09:30:17 3.6 C 43 %
1930 25-11-2019 09:40:17 3.8 C 43 %
1931 25-11-2019 09:50:17 3.8 C 42 %
1932 25-11-2019 10:00:17 4.1 C 42 %
1933 25-11-2019 10:10:17 4.5 C 43 %
1934 25-11-2019 10:20:17 4.5 C 43 %
1935 25-11-2019 10:30:17 5.1 C 40 %
1936 25-11-2019 10:40:17 5.1 C 38 %
1937 25-11-2019 10:50:17 5.1 C 37 %
1938 25-11-2019 11:00:17 5.1 C 37 %
1939 25-11-2019 11:10:17 5.2 C 37 %
1940 25-11-2019 11:20:17 5.3 C 37 %
1941 25-11-2019 11:30:17 5.4 C 37 %
1942 25-11-2019 11:40:17 5.8 C 37 %
1943 25-11-2019 11:50:17 6.3 C 36 %
1944 25-11-2019 12:00:17 6.1 C 33 %
1945 25-11-2019 12:10:17 6.4 C 33 %
1946 25-11-2019 12:20:17 6.3 C 33 %
1947 25-11-2019 12:30:17 6.3 C 32 %
1948 25-11-2019 12:40:17 6.6 C 32 %
1949 25-11-2019 12:50:17 6.6 C 32 %
1950 25-11-2019 13:00:17 6.7 C 31 %
Sensor: Nr:Datum:Temp:Feuchte:
Aussen-T/F 1951 25-11-2019 13:10:17 6.8 C 33 %
1952 25-11-2019 13:20:17 7 C 32 %
1953 25-11-2019 13:30:17 7 C 32 %
1954 25-11-2019 13:40:17 7 C 33 %
1955 25-11-2019 13:50:17 6.9 C 32 %
1956 25-11-2019 14:00:17 6.9 C 33 %
1957 25-11-2019 14:10:17 6.8 C 31 %
1958 25-11-2019 14:20:17 6.8 C 35 %
1959 25-11-2019 14:30:17 6.8 C 36 %
1960 25-11-2019 14:40:17 6.9 C 36 %
1961 25-11-2019 14:50:17 6.8 C 35 %
1962 25-11-2019 15:00:17 6.7 C 35 %
1963 25-11-2019 15:10:17 6.7 C 35 %
1964 25-11-2019 15:20:17 6.7 C 34 %
1965 25-11-2019 15:30:17 6.7 C 35 %
1966 25-11-2019 15:40:17 6.6 C 33 %
1967 25-11-2019 15:50:17 6.5 C 34 %
1968 25-11-2019 16:00:17 6.5 C 35 %
1969 25-11-2019 16:10:17 6.4 C 36 %
1970 25-11-2019 16:20:17 6.3 C 36 %
1971 25-11-2019 16:30:17 6.2 C 37 %
1972 25-11-2019 16:40:17 6.1 C 38 %
1973 25-11-2019 16:50:17 6.1 C 38 %
1974 25-11-2019 17:00:17 6 C 38 %
1975 25-11-2019 17:10:17 6 C 38 %
Sensor: Nr:Datum:Temp:Feuchte:
Aussen-T/F 1976 25-11-2019 17:20:17 5.9 C 38 %
1977 25-11-2019 17:30:17 5.9 C 39 %
1978 25-11-2019 17:40:17 5.8 C 39 %
1979 25-11-2019 17:50:17 5.9 C 39 %
1980 25-11-2019 18:00:18 5.9 C 39 %
1981 25-11-2019 18:10:18 5.9 C 40 %
1982 25-11-2019 18:20:17 5.9 C 39 %
1983 25-11-2019 18:30:17 5.9 C 40 %
1984 25-11-2019 18:40:17 5.9 C 40 %
1985 25-11-2019 18:50:17 5.8 C 40 %
1986 25-11-2019 19:00:17 5.8 C 39 %
1987 25-11-2019 19:10:17 5.4 C 38 %
1988 25-11-2019 19:20:17 5 C 38 %
1989 25-11-2019 19:30:17 5.1 C 40 %
1990 25-11-2019 19:40:17 5 C 40 %
1991 25-11-2019 19:50:17 5.2 C 40 %
1992 25-11-2019 20:00:17 5.1 C 41 %
1993 25-11-2019 20:10:17 5.3 C 41 %
1994 25-11-2019 20:20:17 5.4 C 41 %
1995 25-11-2019 20:30:17 5.4 C 41 %
1996 25-11-2019 20:40:17 5.2 C 40 %
1997 25-11-2019 20:50:17 5.1 C 40 %
1998 25-11-2019 21:00:17 5.3 C 40 %
1999 25-11-2019 21:10:17 5.1 C 39 %
2000 25-11-2019 21:20:17 5.1 C 39 %
Sensor: Nr:Datum:Temp:Feuchte:
Aussen-T/F 2001 25-11-2019 21:30:17 5.2 C 40 %
2002 25-11-2019 21:40:17 5 C 40 %
2003 25-11-2019 21:50:17 4.7 C 40 %
2004 25-11-2019 22:00:17 4.7 C 40 %
2005 25-11-2019 22:10:17 4.3 C 40 %
2006 25-11-2019 22:20:17 4.1 C 40 %
2007 25-11-2019 22:30:17 3.9 C 41 %
2008 25-11-2019 22:40:17 4.1 C 41 %
2009 25-11-2019 22:50:17 3.8 C 42 %
2010 25-11-2019 23:00:17 3.5 C 42 %
2011 25-11-2019 23:10:17 3.3 C 42 %
2012 25-11-2019 23:20:17 3.1 C 42 %
2013 25-11-2019 23:30:17 2.7 C 42 %
2014 25-11-2019 23:40:17 3 C 42 %
2015 25-11-2019 23:50:17 2.8 C 43 %
2016 26-11-2019 00:00:17 2.3 C 42 %
2017 26-11-2019 00:10:17 2.3 C 42 %
2018 26-11-2019 00:20:17 2.5 C 42 %
2019 26-11-2019 00:30:17 2.4 C 42 %
2020 26-11-2019 00:40:17 2.5 C 43 %
2021 26-11-2019 00:50:17 3.1 C 42 %
2022 26-11-2019 01:00:17 3.3 C 42 %
2023 26-11-2019 01:10:17 3.4 C 42 %
2024 26-11-2019 01:20:17 3.4 C 42 %
2025 26-11-2019 01:30:17 3.4 C 42 %
Sensor: Nr:Datum:Temp:Feuchte:
Aussen-T/F 2026 26-11-2019 01:40:17 3.5 C 42 %
2027 26-11-2019 01:50:17 3.6 C 42 %
2028 26-11-2019 02:00:17 3.8 C 42 %
2029 26-11-2019 02:10:17 3.8 C 42 %
2030 26-11-2019 02:20:17 3.8 C 41 %
2031 26-11-2019 02:30:17 3.8 C 41 %
2032 26-11-2019 02:40:17 3.9 C 41 %
2033 26-11-2019 02:50:17 4.3 C 41 %
2034 26-11-2019 03:00:17 4.5 C 41 %
2035 26-11-2019 03:10:17 4.5 C 41 %
2036 26-11-2019 03:20:17 4.5 C 41 %
2037 26-11-2019 03:30:17 4.1 C 40 %
2038 26-11-2019 03:40:17 4.4 C 40 %
2039 26-11-2019 03:50:17 4.6 C 41 %
2040 26-11-2019 04:00:17 4.8 C 41 %
2041 26-11-2019 04:10:17 5.1 C 40 %
2042 26-11-2019 04:20:17 5.2 C 40 %
2043 26-11-2019 04:30:18 5.2 C 40 %
2044 26-11-2019 04:40:18 5.4 C 40 %
2045 26-11-2019 04:50:17 5.6 C 40 %
2046 26-11-2019 05:00:18 5.7 C 40 %
2047 26-11-2019 05:10:18 5.7 C 40 %
2048 26-11-2019 05:20:17 5.8 C 40 %
2049 26-11-2019 05:30:17 5.8 C 40 %
2050 26-11-2019 05:40:17 5.8 C 40 %
Sensor: Nr:Datum:Temp:Feuchte:
Aussen-T/F 2051 26-11-2019 05:50:17 5.9 C 40 %
2052 26-11-2019 06:00:17 5.9 C 40 %
2053 26-11-2019 06:10:17 5.9 C 40 %
2054 26-11-2019 06:20:17 6 C 39 %
2055 26-11-2019 06:30:17 6.2 C 40 %
2056 26-11-2019 06:40:17 6.2 C 39 %
2057 26-11-2019 06:50:17 6.2 C 39 %
2058 26-11-2019 07:00:17 6.5 C 40 %
2059 26-11-2019 07:10:17 6.5 C 40 %
2060 26-11-2019 07:20:17 6.6 C 39 %
2061 26-11-2019 07:30:17 6.6 C 39 %
2062 26-11-2019 07:40:17 6.6 C 39 %
2063 26-11-2019 07:50:17 6.7 C 39 %
2064 26-11-2019 08:00:17 6.8 C 39 %
2065 26-11-2019 08:10:17 6.9 C 39 %
2066 26-11-2019 08:20:17 6.8 C 38 %
2067 26-11-2019 08:30:17 6.8 C 38 %
2068 26-11-2019 08:40:17 6.7 C 38 %
2069 26-11-2019 08:50:17 6.8 C 38 %
2070 26-11-2019 09:00:17 7 C 37 %
2071 26-11-2019 09:10:17 7.4 C 38 %
2072 26-11-2019 09:20:17 7.6 C 37 %
2073 26-11-2019 09:30:17 7.9 C 36 %
2074 26-11-2019 09:40:17 8.3 C 33 %
2075 26-11-2019 09:50:17 8.5 C 31 %
Sensor: Nr:Datum:Temp:Feuchte:
Aussen-T/F 2076 26-11-2019 10:00:17 8.8 C 32 %
2077 26-11-2019 10:10:17 9.1 C 32 %
2078 26-11-2019 10:20:17 9.4 C 32 %
2079 26-11-2019 10:30:17 9.6 C 32 %
2080 26-11-2019 10:40:17 9.7 C 31 %
2081 26-11-2019 10:50:17 9.9 C 31 %
2082 26-11-2019 11:00:17 10.3 C 29 %
2083 26-11-2019 11:10:17 10.5 C 29 %
2084 26-11-2019 11:20:17 10.6 C 26 %
2085 26-11-2019 11:30:17 10.7 C 26 %
2086 26-11-2019 11:40:17 10.6 C 26 %
2087 26-11-2019 11:50:17 10.5 C 26 %
2088 26-11-2019 12:00:17 10.6 C 27 %
2089 26-11-2019 12:10:17 10.6 C 28 %
2090 26-11-2019 12:20:17 10.4 C 26 %
2091 26-11-2019 12:30:17 10.4 C 27 %
2092 26-11-2019 12:40:17 10.8 C 27 %
2093 26-11-2019 12:50:17 10.7 C 26 %
2094 26-11-2019 13:00:17 10.8 C 27 %
2095 26-11-2019 13:10:17 10.8 C 27 %
2096 26-11-2019 13:20:17 11 C 26 %
2097 26-11-2019 13:30:17 10.8 C 26 %
2098 26-11-2019 13:40:17 10.6 C 26 %
2099 26-11-2019 13:50:17 10.5 C 27 %
2100 26-11-2019 14:00:17 10.2 C 30 %
Sensor: Nr:Datum:Temp:Feuchte:
Aussen-T/F 2101 26-11-2019 14:10:17 10.2 C 30 %
2102 26-11-2019 14:20:17 10.5 C 30 %
2103 26-11-2019 14:30:17 10.2 C 28 %
2104 26-11-2019 14:40:17 10.6 C 28 %
2105 26-11-2019 14:50:17 10.6 C 28 %
2106 26-11-2019 15:00:17 10.7 C 27 %
2107 26-11-2019 15:10:17 10.9 C 26 %
2108 26-11-2019 15:20:17 11.1 C 26 %
2109 26-11-2019 15:30:17 11.1 C 26 %
2110 26-11-2019 15:40:17 10.6 C 27 %
2111 26-11-2019 15:50:17 10.5 C 28 %
2112 26-11-2019 16:00:17 10.1 C 30 %
2113 26-11-2019 16:10:17 10 C 30 %
2114 26-11-2019 16:20:17 9.9 C 31 %
2115 26-11-2019 16:30:17 10 C 30 %
2116 26-11-2019 16:40:17 10 C 29 %
2117 26-11-2019 16:50:17 9.7 C 30 %
2118 26-11-2019 17:00:17 9.6 C 30 %
2119 26-11-2019 17:10:17 9.4 C 31 %
2120 26-11-2019 17:20:17 9.3 C 31 %
2121 26-11-2019 17:30:17 9.2 C 31 %
2122 26-11-2019 17:40:17 9.1 C 31 %
2123 26-11-2019 17:50:17 8.9 C 32 %
2124 26-11-2019 18:00:17 8.8 C 34 %
2125 26-11-2019 18:10:17 8.9 C 36 %
Sensor: Nr:Datum:Temp:Feuchte:
Aussen-T/F 2126 26-11-2019 18:20:17 8.9 C 37 %
2127 26-11-2019 18:30:17 9 C 35 %
2128 26-11-2019 18:40:17 8.9 C 35 %
2129 26-11-2019 18:50:17 9.1 C 34 %
2130 26-11-2019 19:00:17 9.7 C 31 %
2131 26-11-2019 19:10:17 9.5 C 31 %
2132 26-11-2019 19:20:17 9.6 C 30 %
2133 26-11-2019 19:30:17 9.6 C 30 %
2134 26-11-2019 19:40:17 9.7 C 30 %
2135 26-11-2019 19:50:17 9.5 C 30 %
2136 26-11-2019 20:00:17 9.5 C 30 %
2137 26-11-2019 20:10:17 9.2 C 31 %
2138 26-11-2019 20:20:17 8.9 C 32 %
2139 26-11-2019 20:30:17 8.4 C 35 %
2140 26-11-2019 20:40:17 8.2 C 35 %
2141 26-11-2019 20:50:17 8 C 37 %
2142 26-11-2019 21:00:17 7.9 C 38 %
2143 26-11-2019 21:10:17 8.3 C 39 %
2144 26-11-2019 21:20:17 8.5 C 37 %
2145 26-11-2019 21:30:17 8.7 C 36 %
2146 26-11-2019 21:40:17 8.8 C 35 %
2147 26-11-2019 21:50:17 8.8 C 35 %
2148 26-11-2019 22:00:17 8.9 C 35 %
2149 26-11-2019 22:10:17 8.8 C 34 %
2150 26-11-2019 22:20:17 8.6 C 34 %
Sensor: Nr:Datum:Temp:Feuchte:
Aussen-T/F 2151 26-11-2019 22:30:17 8.4 C 35 %
2152 26-11-2019 22:40:17 8.1 C 35 %
2153 26-11-2019 22:50:17 7.8 C 36 %
2154 26-11-2019 23:00:17 7.9 C 39 %
2155 26-11-2019 23:10:17 7.9 C 39 %
2156 26-11-2019 23:20:17 8 C 38 %
2157 26-11-2019 23:30:17 7.8 C 38 %
2158 26-11-2019 23:40:17 7.7 C 38 %
2159 26-11-2019 23:50:17 7.8 C 39 %
2160 27-11-2019 00:00:17 7.6 C 39 %
2161 27-11-2019 00:10:17 7.5 C 39 %
2162 27-11-2019 00:20:17 7.6 C 40 %
2163 27-11-2019 00:30:17 7.6 C 39 %
2164 27-11-2019 00:40:17 7.9 C 40 %
2165 27-11-2019 00:50:17 7.7 C 39 %
2166 27-11-2019 01:00:17 7.4 C 39 %
2167 27-11-2019 01:10:17 7.6 C 40 %
2168 27-11-2019 01:20:17 7.6 C 40 %
2169 27-11-2019 01:30:17 7.8 C 40 %
2170 27-11-2019 01:40:17 7.8 C 40 %
2171 27-11-2019 01:50:17 8 C 39 %
2172 27-11-2019 02:00:17 8.1 C 39 %
2173 27-11-2019 02:10:17 8.1 C 38 %
2174 27-11-2019 02:20:17 8.1 C 38 %
2175 27-11-2019 02:30:17 8 C 39 %
Sensor: Nr:Datum:Temp:Feuchte:
Aussen-T/F 2176 27-11-2019 02:40:17 7.8 C 40 %
2177 27-11-2019 02:50:17 7.7 C 40 %
2178 27-11-2019 03:00:17 7.8 C 40 %
2179 27-11-2019 03:10:17 7.6 C 41 %
2180 27-11-2019 03:20:17 7.5 C 40 %
2181 27-11-2019 03:30:17 7.2 C 40 %
2182 27-11-2019 03:40:17 7.1 C 40 %
2183 27-11-2019 03:50:17 7 C 40 %
2184 27-11-2019 04:00:17 7.1 C 40 %
2185 27-11-2019 04:10:17 7.3 C 40 %
2186 27-11-2019 04:20:17 7.5 C 40 %
2187 27-11-2019 04:30:17 7.6 C 40 %
2188 27-11-2019 04:40:17 7.6 C 40 %
2189 27-11-2019 04:50:17 7.4 C 39 %
2190 27-11-2019 05:00:17 7.1 C 38 %
2191 27-11-2019 05:10:17 7.4 C 39 %
2192 27-11-2019 05:20:17 7.8 C 37 %
2193 27-11-2019 05:30:17 7.7 C 37 %
2194 27-11-2019 05:40:17 8 C 35 %
2195 27-11-2019 05:50:17 8 C 35 %
2196 27-11-2019 06:00:18 8 C 34 %
2197 27-11-2019 06:10:18 7.8 C 35 %
2198 27-11-2019 06:20:17 7.8 C 36 %
2199 27-11-2019 06:30:17 7.6 C 37 %
2200 27-11-2019 06:40:17 7.7 C 39 %
Sensor: Nr:Datum:Temp:Feuchte:
Aussen-T/F 2201 27-11-2019 06:50:17 7.6 C 39 %
2202 27-11-2019 07:00:17 7.8 C 37 %
2203 27-11-2019 07:10:17 7.8 C 35 %
2204 27-11-2019 07:20:17 7.9 C 35 %
2205 27-11-2019 07:30:17 8.1 C 34 %
2206 27-11-2019 07:40:17 8 C 32 %
2207 27-11-2019 07:50:17 8 C 34 %
2208 27-11-2019 08:00:17 8.2 C 33 %
2209 27-11-2019 08:10:17 8.2 C 33 %
2210 27-11-2019 08:20:17 8.3 C 34 %
2211 27-11-2019 08:30:17 8.4 C 33 %
2212 27-11-2019 08:40:17 8.4 C 33 %
2213 27-11-2019 08:50:17 8.4 C 35 %
2214 27-11-2019 09:00:17 8.6 C 35 %
2215 27-11-2019 09:10:17 8.6 C 36 %
2216 27-11-2019 09:20:17 8.8 C 36 %
2217 27-11-2019 09:30:17 9.1 C 33 %
2218 27-11-2019 09:40:17 9 C 34 %
2219 27-11-2019 09:50:17 9 C 34 %
2220 27-11-2019 10:00:17 9.1 C 35 %
2221 27-11-2019 10:10:17 9.2 C 35 %
2222 27-11-2019 10:20:17 9.3 C 35 %
2223 27-11-2019 10:30:17 9.7 C 31 %
2224 27-11-2019 10:40:17 10 C 29 %
2225 27-11-2019 10:50:17 10.4 C 27 %
Sensor: Nr:Datum:Temp:Feuchte:
Aussen-T/F 2226 27-11-2019 11:00:17 11 C 25 %
2227 27-11-2019 11:10:17 11.3 C 24 %
2228 27-11-2019 11:20:17 11.6 C 22 %
2229 27-11-2019 11:30:17 11.7 C 22 %
2230 27-11-2019 11:40:17 12.1 C 20 %
2231 27-11-2019 11:50:17 12.4 C 20 %
2232 27-11-2019 12:00:17 12.7 C 20 %
2233 27-11-2019 12:10:17 12.7 C 20 %
2234 27-11-2019 12:20:18 12.7 C 20 %
2235 27-11-2019 12:30:17 12.7 C 20 %
2236 27-11-2019 12:40:17 12.8 C 20 %
2237 27-11-2019 12:50:17 12.8 C 20 %
2238 27-11-2019 13:00:17 12.7 C 20 %
2239 27-11-2019 13:10:17 12.8 C 20 %
2240 27-11-2019 13:20:17 12.8 C 20 %
2241 27-11-2019 13:30:17 12.6 C 20 %
2242 27-11-2019 13:40:17 12.7 C 20 %
2243 27-11-2019 13:50:17 12.9 C 20 %
2244 27-11-2019 14:00:17 13.1 C 20 %
2245 27-11-2019 14:10:17 13 C 20 %
2246 27-11-2019 14:20:17 12.9 C 20 %
2247 27-11-2019 14:30:17 12.9 C 20 %
2248 27-11-2019 14:40:17 12.9 C 20 %
2249 27-11-2019 14:50:17 12.9 C 20 %
2250 27-11-2019 15:00:17 12.7 C 20 %
Sensor: Nr:Datum:Temp:Feuchte:
Aussen-T/F 2251 27-11-2019 15:10:17 12.8 C 20 %
2252 27-11-2019 15:20:17 12.8 C 20 %
2253 27-11-2019 15:30:17 12.8 C 20 %
2254 27-11-2019 15:40:17 12.5 C 20 %
2255 27-11-2019 15:50:17 12.2 C 20 %
2256 27-11-2019 16:00:17 11.5 C 20 %
2257 27-11-2019 16:10:17 11.1 C 20 %
2258 27-11-2019 16:20:17 10.8 C 25 %
2259 27-11-2019 16:30:17 10.3 C 26 %
2260 27-11-2019 16:40:17 9.9 C 29 %
2261 27-11-2019 16:50:18 9.7 C 30 %
2262 27-11-2019 17:00:17 9.5 C 31 %
2263 27-11-2019 17:10:17 9.8 C 31 %
2264 27-11-2019 17:20:17 9.8 C 31 %
2265 27-11-2019 17:30:17 9.8 C 31 %
2266 27-11-2019 17:40:17 9.7 C 33 %
2267 27-11-2019 17:50:17 9.6 C 33 %
2268 27-11-2019 18:00:17 9.7 C 32 %
2269 27-11-2019 18:10:17 9.7 C 32 %
2270 27-11-2019 18:20:17 9.9 C 31 %
2271 27-11-2019 18:30:17 9.9 C 31 %
2272 27-11-2019 18:40:17 9.8 C 32 %
2273 27-11-2019 18:50:17 9.7 C 34 %
2274 27-11-2019 19:00:17 9.7 C 36 %
2275 27-11-2019 19:10:17 9.8 C 34 %
Sensor: Nr:Datum:Temp:Feuchte:
Aussen-T/F 2276 27-11-2019 19:20:17 9.7 C 33 %
2277 27-11-2019 19:30:17 10 C 31 %
2278 27-11-2019 19:40:17 10 C 31 %
2279 27-11-2019 19:50:17 10.4 C 28 %
2280 27-11-2019 20:00:17 10.8 C 26 %
2281 27-11-2019 20:10:17 10.9 C 26 %
2282 27-11-2019 20:20:17 11 C 25 %
2283 27-11-2019 20:30:17 10.6 C 26 %
2284 27-11-2019 20:40:17 9.9 C 30 %
2285 27-11-2019 20:50:17 9.7 C 31 %
2286 27-11-2019 21:00:17 9.8 C 33 %
2287 27-11-2019 21:10:17 9.8 C 32 %
2288 27-11-2019 21:20:17 9.6 C 33 %
2289 27-11-2019 21:30:17 9.8 C 32 %
2290 27-11-2019 21:40:17 10.1 C 31 %
2291 27-11-2019 21:50:17 10.2 C 29 %
2292 27-11-2019 22:00:17 10.3 C 28 %
2293 27-11-2019 22:10:17 10.6 C 27 %
2294 27-11-2019 22:20:17 10.9 C 26 %
2295 27-11-2019 22:30:17 10.9 C 26 %
2296 27-11-2019 22:40:17 10.8 C 25 %
2297 27-11-2019 22:50:17 10.7 C 25 %
2298 27-11-2019 23:00:17 11.1 C 24 %
2299 27-11-2019 23:10:17 11.3 C 23 %
2300 27-11-2019 23:20:17 11.1 C 23 %
Sensor: Nr:Datum:Temp:Feuchte:
Aussen-T/F 2301 27-11-2019 23:30:17 11.5 C 21 %
2302 27-11-2019 23:40:18 11.5 C 21 %
2303 27-11-2019 23:50:17 11.2 C 21 %
2304 28-11-2019 00:00:18 11.2 C 21 %
2305 28-11-2019 00:10:18 11.3 C 20 %
2306 28-11-2019 00:20:17 11.2 C 20 %
2307 28-11-2019 00:30:17 11.2 C 20 %
2308 28-11-2019 00:40:17 11.5 C 20 %
2309 28-11-2019 00:50:17 11.3 C 20 %
2310 28-11-2019 01:00:17 11.4 C 20 %
2311 28-11-2019 01:10:17 11.4 C 20 %
2312 28-11-2019 01:20:17 11.4 C 20 %
2313 28-11-2019 01:30:17 11.4 C 20 %
2314 28-11-2019 01:40:17 11.1 C 20 %
2315 28-11-2019 01:50:17 11.1 C 20 %
2316 28-11-2019 02:00:18 10.8 C 20 %
2317 28-11-2019 02:10:18 10.5 C 20 %
2318 28-11-2019 02:20:17 10.7 C 20 %
2319 28-11-2019 02:30:17 11 C 20 %
2320 28-11-2019 02:40:17 10.5 C 21 %
2321 28-11-2019 02:50:17 10.8 C 20 %
2322 28-11-2019 03:00:17 10.9 C 20 %
2323 28-11-2019 03:10:17 10.3 C 20 %
2324 28-11-2019 03:20:18 10.8 C 20 %
2325 28-11-2019 03:30:18 10.6 C 20 %
Sensor: Nr:Datum:Temp:Feuchte:
Aussen-T/F 2326 28-11-2019 03:40:18 10.9 C 20 %
2327 28-11-2019 03:50:18 10.9 C 20 %
2328 28-11-2019 04:00:18 10.7 C 20 %
2329 28-11-2019 04:10:18 10.6 C 20 %
2330 28-11-2019 04:20:17 10.6 C 20 %
2331 28-11-2019 04:30:17 10.6 C 20 %
2332 28-11-2019 04:40:17 10.5 C 20 %
2333 28-11-2019 04:50:17 10.3 C 20 %
2334 28-11-2019 05:00:17 10.5 C 20 %
2335 28-11-2019 05:10:17 10.2 C 20 %
2336 28-11-2019 05:20:17 10.1 C 20 %
2337 28-11-2019 05:30:17 10.4 C 20 %
2338 28-11-2019 05:40:17 10.1 C 20 %
2339 28-11-2019 05:50:17 10.2 C 20 %
2340 28-11-2019 06:00:17 9.9 C 20 %
2341 28-11-2019 06:10:17 10.1 C 20 %
2342 28-11-2019 06:20:17 10.2 C 20 %
2343 28-11-2019 06:30:17 10.5 C 20 %
2344 28-11-2019 06:40:17 10.6 C 20 %
2345 28-11-2019 06:50:17 10.5 C 20 %
2346 28-11-2019 07:00:17 10.4 C 20 %
2347 28-11-2019 07:10:17 10 C 20 %
2348 28-11-2019 07:20:17 10 C 20 %
2349 28-11-2019 07:30:17 10 C 20 %
2350 28-11-2019 07:40:17 10.2 C 20 %
Sensor: Nr:Datum:Temp:Feuchte:
Aussen-T/F 2351 28-11-2019 07:50:17 10.3 C 20 %
2352 28-11-2019 08:00:17 10.4 C 20 %
2353 28-11-2019 08:10:17 10.2 C 20 %
2354 28-11-2019 08:20:17 10.2 C 20 %
2355 28-11-2019 08:30:17 10.1 C 20 %
2356 28-11-2019 08:40:17 10.1 C 20 %
2357 28-11-2019 08:50:17 10.1 C 20 %
2358 28-11-2019 09:00:17 10.3 C 20 %
2359 28-11-2019 09:10:17 10.7 C 20 %
2360 28-11-2019 09:20:17 11 C 20 %
2361 28-11-2019 09:30:17 11 C 20 %
2362 28-11-2019 09:40:17 11.1 C 20 %
2363 28-11-2019 09:50:17 11.1 C 20 %
2364 28-11-2019 10:00:17 11.3 C 20 %
2365 28-11-2019 10:10:17 11.3 C 20 %
2366 28-11-2019 10:20:17 11.5 C 20 %
2367 28-11-2019 10:30:17 11.6 C 20 %
2368 28-11-2019 10:40:17 11.7 C 20 %
2369 28-11-2019 10:50:17 11.7 C 20 %
2370 28-11-2019 11:00:17 11.7 C 20 %
2371 28-11-2019 11:10:17 11.8 C 20 %
2372 28-11-2019 11:20:17 11.9 C 20 %
2373 28-11-2019 11:30:17 11.9 C 20 %
2374 28-11-2019 11:40:17 12.2 C 20 %
2375 28-11-2019 11:50:17 11.9 C 20 %
Sensor: Nr:Datum:Temp:Feuchte:
Aussen-T/F 2376 28-11-2019 12:00:17 11.6 C 20 %
2377 28-11-2019 12:10:17 11.5 C 20 %
2378 28-11-2019 12:20:17 11.1 C 20 %
2379 28-11-2019 12:30:17 11.1 C 20 %
2380 28-11-2019 12:40:17 10.9 C 20 %
2381 28-11-2019 12:50:17 11.2 C 20 %
2382 28-11-2019 13:00:17 11.2 C 20 %
2383 28-11-2019 13:10:17 11.7 C 20 %
2384 28-11-2019 13:20:17 11.8 C 20 %
2385 28-11-2019 13:30:17 12.1 C 20 %
2386 28-11-2019 13:40:17 11.4 C 20 %
2387 28-11-2019 13:50:17 11.4 C 20 %
2388 28-11-2019 14:00:17 11.3 C 20 %
2389 28-11-2019 14:10:17 11.4 C 20 %
2390 28-11-2019 14:20:17 11.2 C 20 %
2391 28-11-2019 14:30:17 11.1 C 20 %
2392 28-11-2019 14:40:17 11.2 C 20 %
2393 28-11-2019 14:50:17 11.2 C 20 %
2394 28-11-2019 15:00:17 11.2 C 20 %
2395 28-11-2019 15:10:17 11.1 C 20 %
2396 28-11-2019 15:20:17 11 C 20 %
2397 28-11-2019 15:30:17 10.2 C 23 %
2398 28-11-2019 15:40:17 10.2 C 21 %
2399 28-11-2019 15:50:17 10.3 C 21 %
2400 28-11-2019 16:00:17 10.5 C 21 %
Sensor: Nr:Datum:Temp:Feuchte:
Aussen-T/F 2401 28-11-2019 16:10:17 10.3 C 22 %
2402 28-11-2019 16:20:17 10.5 C 21 %
2403 28-11-2019 16:30:17 10.6 C 21 %
2404 28-11-2019 16:40:17 10.4 C 21 %
2405 28-11-2019 16:50:17 10.4 C 21 %
2406 28-11-2019 17:00:17 10.3 C 22 %
2407 28-11-2019 17:10:17 9.7 C 27 %
2408 28-11-2019 17:20:17 9.5 C 29 %
2409 28-11-2019 17:30:17 9.4 C 30 %
2410 28-11-2019 17:40:17 9.3 C 30 %
2411 28-11-2019 17:50:17 9.6 C 28 %
2412 28-11-2019 18:00:17 9.8 C 27 %
2413 28-11-2019 18:10:17 10.2 C 25 %
2414 28-11-2019 18:20:17 10.3 C 25 %
2415 28-11-2019 18:30:17 10.2 C 25 %
2416 28-11-2019 18:40:17 10.2 C 25 %
2417 28-11-2019 18:50:17 10.2 C 25 %
2418 28-11-2019 19:00:17 10.1 C 25 %
2419 28-11-2019 19:10:17 9.8 C 26 %
2420 28-11-2019 19:20:17 9.8 C 26 %
2421 28-11-2019 19:30:17 9.8 C 26 %
2422 28-11-2019 19:40:17 9.9 C 26 %
2423 28-11-2019 19:50:17 10.1 C 25 %
2424 28-11-2019 20:00:17 10.1 C 26 %
2425 28-11-2019 20:10:17 9.8 C 26 %
Sensor: Nr:Datum:Temp:Feuchte:
Aussen-T/F 2426 28-11-2019 20:20:17 9.8 C 26 %
2427 28-11-2019 20:30:17 9.8 C 27 %
2428 28-11-2019 20:40:17 10.1 C 26 %
2429 28-11-2019 20:50:17 10 C 25 %
2430 28-11-2019 21:00:17 10.1 C 25 %
2431 28-11-2019 21:10:17 9.7 C 27 %
2432 28-11-2019 21:20:17 9.9 C 27 %
2433 28-11-2019 21:30:17 10.1 C 26 %
2434 28-11-2019 21:40:17 10 C 26 %
2435 28-11-2019 21:50:17 10 C 25 %
2436 28-11-2019 22:00:17 9.6 C 27 %
2437 28-11-2019 22:10:17 9.6 C 28 %
2438 28-11-2019 22:20:17 9.6 C 28 %
2439 28-11-2019 22:30:17 9.5 C 28 %
2440 28-11-2019 22:40:17 9.6 C 28 %
2441 28-11-2019 22:50:17 9.5 C 28 %
2442 28-11-2019 23:00:17 9.5 C 28 %
2443 28-11-2019 23:10:17 9.5 C 29 %
2444 28-11-2019 23:20:17 9.6 C 28 %
2445 28-11-2019 23:30:17 9.2 C 30 %
2446 28-11-2019 23:40:17 9.1 C 32 %
2447 28-11-2019 23:50:17 8.9 C 35 %
2448 29-11-2019 00:00:17 8.9 C 34 %
2449 29-11-2019 00:10:17 8.7 C 36 %
2450 29-11-2019 00:20:17 8.8 C 35 %
Sensor: Nr:Datum:Temp:Feuchte:
Aussen-T/F 2451 29-11-2019 00:30:17 8.7 C 36 %
2452 29-11-2019 00:40:17 8.7 C 35 %
2453 29-11-2019 00:50:17 8.6 C 35 %
2454 29-11-2019 01:00:17 8.6 C 36 %
2455 29-11-2019 01:10:17 8.5 C 37 %
2456 29-11-2019 01:20:17 8.3 C 37 %
2457 29-11-2019 01:30:17 8.3 C 36 %
2458 29-11-2019 01:40:17 8.3 C 36 %
2459 29-11-2019 01:50:17 8.1 C 39 %
2460 29-11-2019 02:00:17 8.1 C 40 %
2461 29-11-2019 02:10:17 8.1 C 40 %
2462 29-11-2019 02:20:17 8.1 C 40 %
2463 29-11-2019 02:30:17 8.1 C 40 %
2464 29-11-2019 02:40:17 8.1 C 40 %
2465 29-11-2019 02:50:17 8 C 40 %
2466 29-11-2019 03:00:17 8 C 40 %
2467 29-11-2019 03:10:17 8 C 40 %
2468 29-11-2019 03:20:17 7.9 C 40 %
2469 29-11-2019 03:30:17 7.8 C 40 %
2470 29-11-2019 03:40:17 7.7 C 40 %
2471 29-11-2019 03:50:17 7.6 C 40 %
2472 29-11-2019 04:00:17 7.6 C 40 %
2473 29-11-2019 04:10:17 7.6 C 40 %
2474 29-11-2019 04:20:17 7.6 C 40 %
2475 29-11-2019 04:30:17 7.5 C 40 %
Sensor: Nr:Datum:Temp:Feuchte:
Aussen-T/F 2476 29-11-2019 04:40:17 7.5 C 40 %
2477 29-11-2019 04:50:17 7.2 C 38 %
2478 29-11-2019 05:00:17 6.8 C 34 %
2479 29-11-2019 05:10:17 6.4 C 33 %
2480 29-11-2019 05:20:17 6.2 C 34 %
2481 29-11-2019 05:30:17 6.2 C 35 %
2482 29-11-2019 05:40:18 6.1 C 36 %
2483 29-11-2019 05:50:17 6 C 36 %
2484 29-11-2019 06:00:17 6 C 38 %
2485 29-11-2019 06:10:17 5.9 C 38 %
2486 29-11-2019 06:20:17 5.9 C 38 %
2487 29-11-2019 06:30:17 5.9 C 40 %
2488 29-11-2019 06:40:17 5.9 C 40 %
2489 29-11-2019 06:50:17 5.8 C 36 %
2490 29-11-2019 07:00:17 5.7 C 35 %
2491 29-11-2019 07:10:17 5.6 C 37 %
2492 29-11-2019 07:20:17 5.4 C 37 %
2493 29-11-2019 07:30:17 5.4 C 40 %
2494 29-11-2019 07:40:17 5.4 C 37 %
2495 29-11-2019 07:50:17 5.4 C 39 %
2496 29-11-2019 08:00:17 5.3 C 40 %
2497 29-11-2019 08:10:17 5.2 C 40 %
2498 29-11-2019 08:20:17 5.1 C 40 %
2499 29-11-2019 08:30:17 5 C 40 %
2500 29-11-2019 08:40:17 5 C 40 %
Sensor: Nr:Datum:Temp:Feuchte:
Aussen-T/F 2501 29-11-2019 08:50:17 5 C 39 %
2502 29-11-2019 09:00:17 5 C 39 %
2503 29-11-2019 09:10:17 5 C 39 %
2504 29-11-2019 09:20:17 4.8 C 37 %
2505 29-11-2019 09:30:17 4.6 C 37 %
2506 29-11-2019 09:40:17 4.6 C 37 %
2507 29-11-2019 09:50:17 4.7 C 36 %
2508 29-11-2019 10:00:17 4.8 C 32 %
2509 29-11-2019 10:10:17 5.1 C 31 %
2510 29-11-2019 10:20:17 5.8 C 27 %
2511 29-11-2019 10:30:17 5.9 C 29 %
2512 29-11-2019 10:40:17 5.7 C 27 %
2513 29-11-2019 10:50:17 5.4 C 28 %
2514 29-11-2019 11:00:17 5.6 C 30 %
2515 29-11-2019 11:10:17 5.9 C 26 %
2516 29-11-2019 11:20:17 6 C 27 %
2517 29-11-2019 11:30:17 6.4 C 26 %
2518 29-11-2019 11:40:17 7 C 23 %
2519 29-11-2019 11:50:17 7.3 C 21 %
2520 29-11-2019 12:00:17 7.2 C 20 %
2521 29-11-2019 12:10:17 7.2 C 20 %
2522 29-11-2019 12:20:17 7.1 C 20 %
2523 29-11-2019 12:30:17 7.6 C 20 %
2524 29-11-2019 12:40:17 7.2 C 20 %
2525 29-11-2019 12:50:17 6.9 C 21 %
Sensor: Nr:Datum:Temp:Feuchte:
Aussen-T/F 2526 29-11-2019 13:00:17 6.6 C 21 %
2527 29-11-2019 13:10:17 6.2 C 23 %
2528 29-11-2019 13:20:17 5.9 C 25 %
2529 29-11-2019 13:30:17 6.1 C 25 %
2530 29-11-2019 13:40:17 6.1 C 25 %
2531 29-11-2019 13:50:17 6.5 C 20 %
2532 29-11-2019 14:00:17 6.5 C 20 %
2533 29-11-2019 14:10:17 7 C 20 %
2534 29-11-2019 14:20:17 7.3 C 20 %
2535 29-11-2019 14:30:17 7.3 C 20 %
2536 29-11-2019 14:40:17 6.9 C 20 %
2537 29-11-2019 14:50:17 6.5 C 20 %
2538 29-11-2019 15:00:17 7.3 C 20 %
2539 29-11-2019 15:10:17 7.3 C 20 %
2540 29-11-2019 15:20:17 7.2 C 20 %
2541 29-11-2019 15:30:17 7.2 C 20 %
2542 29-11-2019 15:40:17 7.2 C 20 %
2543 29-11-2019 15:50:17 6.7 C 20 %
2544 29-11-2019 16:00:17 6.4 C 20 %
2545 29-11-2019 16:10:17 5.6 C 20 %
2546 29-11-2019 16:20:17 6.2 C 20 %
2547 29-11-2019 16:30:17 6 C 20 %
2548 29-11-2019 16:40:18 5.3 C 20 %
2549 29-11-2019 16:50:17 5.3 C 20 %
2550 29-11-2019 17:00:18 4.5 C 23 %
Sensor: Nr:Datum:Temp:Feuchte:
Aussen-T/F 2551 29-11-2019 17:10:18 4 C 26 %
2552 29-11-2019 17:20:17 4 C 26 %
2553 29-11-2019 17:30:18 3.9 C 27 %
2554 29-11-2019 17:40:18 4 C 26 %
2555 29-11-2019 17:50:17 3.8 C 27 %
2556 29-11-2019 18:00:17 4.2 C 26 %
2557 29-11-2019 18:10:18 4.6 C 25 %
2558 29-11-2019 18:20:17 5 C 21 %
2559 29-11-2019 18:30:17 5 C 21 %
2560 29-11-2019 18:40:17 4.8 C 23 %
2561 29-11-2019 18:50:17 4.7 C 26 %
2562 29-11-2019 19:00:17 4.8 C 21 %
2563 29-11-2019 19:10:17 4.8 C 21 %
2564 29-11-2019 19:20:17 4.8 C 21 %
2565 29-11-2019 19:30:17 4.4 C 25 %
2566 29-11-2019 19:40:17 4.6 C 21 %
2567 29-11-2019 19:50:17 4.4 C 25 %
2568 29-11-2019 20:00:17 4 C 26 %
2569 29-11-2019 20:10:17 4 C 26 %
2570 29-11-2019 20:20:17 4.3 C 25 %
2571 29-11-2019 20:30:17 4.7 C 23 %
2572 29-11-2019 20:40:17 4 C 25 %
2573 29-11-2019 20:50:17 3.9 C 26 %
2574 29-11-2019 21:00:17 3.8 C 28 %
2575 29-11-2019 21:10:17 3.9 C 27 %
Sensor: Nr:Datum:Temp:Feuchte:
Aussen-T/F 2576 29-11-2019 21:20:17 3.8 C 27 %
2577 29-11-2019 21:30:17 3.8 C 28 %
2578 29-11-2019 21:40:17 3.9 C 28 %
2579 29-11-2019 21:50:17 3.2 C 30 %
2580 29-11-2019 22:00:17 3.3 C 29 %
2581 29-11-2019 22:10:17 2.6 C 32 %
2582 29-11-2019 22:20:17 2.1 C 35 %
2583 29-11-2019 22:30:17 1.9 C 37 %
2584 29-11-2019 22:40:17 1.7 C 40 %
2585 29-11-2019 22:50:17 1.8 C 41 %
2586 29-11-2019 23:00:17 1.5 C 38 %
2587 29-11-2019 23:10:17 1.1 C 39 %
2588 29-11-2019 23:20:17 1.3 C 41 %
2589 29-11-2019 23:30:17 1.5 C 42 %
2590 29-11-2019 23:40:17 1.6 C 41 %
2591 29-11-2019 23:50:17 1.7 C 41 %
2592 30-11-2019 00:00:17 1.9 C 40 %
2593 30-11-2019 00:10:17 1.8 C 40 %
2594 30-11-2019 00:20:17 1.8 C 40 %
2595 30-11-2019 00:30:17 2 C 37 %
2596 30-11-2019 00:40:17 1.7 C 37 %
2597 30-11-2019 00:50:17 1.6 C 40 %
2598 30-11-2019 01:00:17 1.3 C 40 %
2599 30-11-2019 01:10:17 1 C 40 %
2600 30-11-2019 01:20:17 0.7 C 41 %
Sensor: Nr:Datum:Temp:Feuchte:
Aussen-T/F 2601 30-11-2019 01:30:17 0.5 C 42 %
2602 30-11-2019 01:40:17 0.7 C 44 %
2603 30-11-2019 01:50:17 0.5 C 43 %
2604 30-11-2019 02:00:17 0.4 C 44 %
2605 30-11-2019 02:10:17 0.9 C 45 %
2606 30-11-2019 02:20:17 1.1 C 44 %
2607 30-11-2019 02:30:17 1.2 C 44 %
2608 30-11-2019 02:40:17 0.8 C 43 %
2609 30-11-2019 02:50:17 0.8 C 43 %
2610 30-11-2019 03:00:17 0.9 C 43 %
2611 30-11-2019 03:10:17 0.7 C 43 %
2612 30-11-2019 03:20:17 0.3 C 41 %
2613 30-11-2019 03:30:17 0.5 C 44 %
2614 30-11-2019 03:40:17 0.2 C 43 %
2615 30-11-2019 03:50:17 0.6 C 44 %
2616 30-11-2019 04:00:17 1 C 44 %
2617 30-11-2019 04:10:17 1.3 C 43 %
2618 30-11-2019 04:20:17 1.3 C 41 %
2619 30-11-2019 04:30:17 1.4 C 40 %
2620 30-11-2019 04:40:17 1.3 C 40 %
2621 30-11-2019 04:50:17 1 C 38 %
2622 30-11-2019 05:00:17 0.6 C 40 %
2623 30-11-2019 05:10:17 1.1 C 41 %
2624 30-11-2019 05:20:17 0.8 C 40 %
2625 30-11-2019 05:30:17 0.3 C 40 %
Sensor: Nr:Datum:Temp:Feuchte:
Aussen-T/F 2626 30-11-2019 05:40:17 -0.5 C 40 %
2627 30-11-2019 05:50:17 -0.7 C 41 %
2628 30-11-2019 06:00:17 -0.7 C 43 %
2629 30-11-2019 06:10:17 -0.9 C 43 %
2630 30-11-2019 06:20:17 -1 C 43 %
2631 30-11-2019 06:30:17 -1.2 C 43 %
2632 30-11-2019 06:40:17 -1.3 C 43 %
2633 30-11-2019 06:50:17 -1.2 C 44 %
2634 30-11-2019 07:00:17 -1.4 C 44 %
2635 30-11-2019 07:10:17 -1.4 C 43 %
2636 30-11-2019 07:20:17 -1.4 C 43 %
2637 30-11-2019 07:30:17 -1.5 C 43 %
2638 30-11-2019 07:40:17 -1.2 C 44 %
2639 30-11-2019 07:50:17 -1.1 C 44 %
2640 30-11-2019 08:00:17 -1 C 44 %
2641 30-11-2019 08:10:17 -0.7 C 44 %
2642 30-11-2019 08:20:17 -0.6 C 44 %
2643 30-11-2019 08:30:17 -0.7 C 44 %
2644 30-11-2019 08:40:17 -0.6 C 44 %
2645 30-11-2019 08:50:17 -0.7 C 44 %
2646 30-11-2019 09:00:17 -0.7 C 44 %
2647 30-11-2019 09:10:17 -0.6 C 44 %
2648 30-11-2019 09:20:17 -0.7 C 44 %
2649 30-11-2019 09:30:17 -0.7 C 44 %
2650 30-11-2019 09:40:17 -0.6 C 44 %
Sensor: Nr:Datum:Temp:Feuchte:
Aussen-T/F 2651 30-11-2019 09:50:17 -0.3 C 44 %
2652 30-11-2019 10:00:17 -0.3 C 44 %
2653 30-11-2019 10:10:17 0 C 44 %
2654 30-11-2019 10:20:17 0.1 C 43 %
2655 30-11-2019 10:30:17 0.4 C 43 %
2656 30-11-2019 10:40:17 0.5 C 43 %
2657 30-11-2019 10:50:17 0.4 C 43 %
2658 30-11-2019 11:00:18 0.5 C 42 %
2659 30-11-2019 11:10:18 0.6 C 42 %
2660 30-11-2019 11:20:17 0.6 C 42 %
2661 30-11-2019 11:30:17 0.4 C 41 %
2662 30-11-2019 11:40:17 0.6 C 41 %
2663 30-11-2019 11:50:17 0.9 C 41 %
2664 30-11-2019 12:00:17 1.1 C 40 %
2665 30-11-2019 12:10:17 0.9 C 38 %
2666 30-11-2019 12:20:17 1.3 C 39 %
2667 30-11-2019 12:30:17 1.4 C 37 %
2668 30-11-2019 12:40:17 1.4 C 36 %
2669 30-11-2019 12:50:17 2.3 C 36 %
2670 30-11-2019 13:00:17 2.4 C 36 %
2671 30-11-2019 13:10:17 1.8 C 36 %
2672 30-11-2019 13:20:17 2.2 C 36 %
2673 30-11-2019 13:30:17 2.1 C 36 %
2674 30-11-2019 13:40:17 2.3 C 36 %
2675 30-11-2019 13:50:17 2.3 C 36 %
Sensor: Nr:Datum:Temp:Feuchte:
Aussen-T/F 2676 30-11-2019 14:00:17 2 C 36 %
2677 30-11-2019 14:10:17 2.1 C 38 %
2678 30-11-2019 14:20:17 2.2 C 38 %
2679 30-11-2019 14:30:17 2.2 C 38 %
2680 30-11-2019 14:40:17 2.4 C 38 %
2681 30-11-2019 14:50:17 2.2 C 37 %
2682 30-11-2019 15:00:17 1.9 C 39 %
2683 30-11-2019 15:10:17 1.8 C 40 %
2684 30-11-2019 15:20:18 1.9 C 41 %
2685 30-11-2019 15:30:17 1.8 C 41 %
2686 30-11-2019 15:40:17 1.6 C 41 %
2687 30-11-2019 15:50:17 1.7 C 42 %
2688 30-11-2019 16:00:17 1.5 C 42 %
2689 30-11-2019 16:10:17 1.5 C 42 %
2690 30-11-2019 16:20:17 1.4 C 43 %
2691 30-11-2019 16:30:17 1.3 C 43 %
2692 30-11-2019 16:40:17 1.3 C 43 %
2693 30-11-2019 16:50:17 1.1 C 43 %
2694 30-11-2019 17:00:17 0.9 C 44 %
2695 30-11-2019 17:10:17 0.9 C 44 %
2696 30-11-2019 17:20:17 0.6 C 44 %
2697 30-11-2019 17:30:17 0.6 C 44 %
2698 30-11-2019 17:40:17 0.6 C 44 %
2699 30-11-2019 17:50:17 0.5 C 44 %
2700 30-11-2019 18:00:17 0.4 C 44 %
Sensor: Nr:Datum:Temp:Feuchte:
Aussen-T/F 2701 30-11-2019 18:10:17 0.3 C 44 %
2702 30-11-2019 18:20:17 0.3 C 44 %
2703 30-11-2019 18:30:17 0.4 C 44 %
2704 30-11-2019 18:40:17 0.4 C 44 %
2705 30-11-2019 18:50:17 0.4 C 44 %
2706 30-11-2019 19:00:17 0.2 C 44 %
2707 30-11-2019 19:10:17 0 C 44 %
2708 30-11-2019 19:20:17 0 C 44 %
2709 30-11-2019 19:30:17 0 C 44 %
2710 30-11-2019 19:40:17 -0.1 C 44 %
2711 30-11-2019 19:50:17 -0.1 C 44 %
2712 30-11-2019 20:00:17 -0.2 C 44 %
2713 30-11-2019 20:10:18 -0.2 C 44 %
2714 30-11-2019 20:20:18 -0.2 C 44 %
2715 30-11-2019 20:30:17 -0.2 C 44 %
2716 30-11-2019 20:40:17 -0.4 C 44 %
2717 30-11-2019 20:50:17 -0.3 C 44 %
2718 30-11-2019 21:00:17 -0.2 C 44 %
2719 30-11-2019 21:10:17 -0.3 C 44 %
2720 30-11-2019 21:20:17 -0.3 C 44 %
2721 30-11-2019 21:30:17 -0.4 C 44 %
2722 30-11-2019 21:40:17 -0.2 C 44 %
2723 30-11-2019 21:50:17 -0.3 C 44 %
2724 30-11-2019 22:00:17 -0.3 C 44 %
2725 30-11-2019 22:10:17 -0.3 C 44 %
Sensor: Nr:Datum:Temp:Feuchte:
Aussen-T/F 2726 30-11-2019 22:20:17 -0.3 C 44 %
2727 30-11-2019 22:30:17 -0.1 C 44 %
2728 30-11-2019 22:40:17 0 C 44 %
2729 30-11-2019 22:50:17 0 C 44 %
2730 30-11-2019 23:00:17 0 C 44 %
2731 30-11-2019 23:10:17 0 C 44 %
2732 30-11-2019 23:20:17 -0.1 C 44 %
2733 30-11-2019 23:30:17 -0.4 C 43 %
2734 30-11-2019 23:40:17 -0.5 C 43 %
2735 30-11-2019 23:50:17 -0.4 C 43 %
2736 01-12-2019 00:00:17 -0.2 C 43 %
2737 01-12-2019 00:10:17 -0.3 C 43 %
2738 01-12-2019 00:20:17 -0.3 C 43 %
2739 01-12-2019 00:30:17 -0.3 C 43 %
2740 01-12-2019 00:40:17 -0.3 C 43 %
2741 01-12-2019 00:50:18 -0.2 C 43 %
2742 01-12-2019 01:00:17 0 C 44 %
2743 01-12-2019 01:10:17 -0.1 C 43 %
2744 01-12-2019 01:20:17 -0.1 C 43 %
2745 01-12-2019 01:30:17 -0.1 C 43 %
2746 01-12-2019 01:40:17 -0.1 C 43 %
2747 01-12-2019 01:50:17 -0.2 C 43 %
2748 01-12-2019 02:00:17 -0.1 C 43 %
2749 01-12-2019 02:10:17 -0.2 C 43 %
2750 01-12-2019 02:20:17 -0.2 C 43 %
Sensor: Nr:Datum:Temp:Feuchte:
Aussen-T/F 2751 01-12-2019 02:30:17 -0.2 C 43 %
2752 01-12-2019 02:40:17 -0.3 C 43 %
2753 01-12-2019 02:50:17 -0.2 C 43 %
2754 01-12-2019 03:00:17 -0.3 C 43 %
2755 01-12-2019 03:10:17 -0.3 C 43 %
2756 01-12-2019 03:20:17 -0.4 C 43 %
2757 01-12-2019 03:30:17 -0.4 C 43 %
2758 01-12-2019 03:40:17 -0.4 C 43 %
2759 01-12-2019 03:50:17 -0.4 C 43 %
2760 01-12-2019 04:00:17 -0.4 C 43 %
2761 01-12-2019 04:10:17 -0.8 C 42 %
2762 01-12-2019 04:20:17 -1.1 C 42 %
2763 01-12-2019 04:30:17 -1.3 C 42 %
2764 01-12-2019 04:40:17 -0.9 C 43 %
2765 01-12-2019 04:50:17 -0.9 C 43 %
2766 01-12-2019 05:00:17 -0.7 C 43 %
2767 01-12-2019 05:10:17 -0.8 C 43 %
2768 01-12-2019 05:20:17 -0.9 C 43 %
2769 01-12-2019 05:30:17 -1.1 C 43 %
2770 01-12-2019 05:40:17 -1 C 43 %
2771 01-12-2019 05:50:17 -0.9 C 43 %
2772 01-12-2019 06:00:17 -1 C 43 %
2773 01-12-2019 06:10:17 -1.1 C 43 %
2774 01-12-2019 06:20:17 -1.3 C 43 %
2775 01-12-2019 06:30:17 -1 C 43 %
Sensor: Nr:Datum:Temp:Feuchte:
Aussen-T/F 2776 01-12-2019 06:40:17 -0.9 C 43 %
2777 01-12-2019 06:50:17 -0.9 C 43 %
2778 01-12-2019 07:00:17 -0.8 C 43 %
2779 01-12-2019 07:10:17 -0.7 C 43 %
2780 01-12-2019 07:20:17 -0.5 C 43 %
2781 01-12-2019 07:30:17 -0.5 C 43 %
2782 01-12-2019 07:40:17 -0.3 C 43 %
2783 01-12-2019 07:50:17 -0.2 C 43 %
2784 01-12-2019 08:00:17 -0.1 C 43 %
2785 01-12-2019 08:10:17 -0.1 C 43 %
2786 01-12-2019 08:20:17 -0.2 C 43 %
2787 01-12-2019 08:30:17 -0.2 C 43 %
2788 01-12-2019 08:40:17 -0.2 C 43 %
2789 01-12-2019 08:50:17 0 C 43 %
2790 01-12-2019 09:00:17 0 C 42 %
2791 01-12-2019 09:10:17 0.2 C 42 %
2792 01-12-2019 09:20:17 0.1 C 42 %
2793 01-12-2019 09:30:17 0.1 C 42 %
2794 01-12-2019 09:40:17 0.2 C 41 %
2795 01-12-2019 09:50:17 0.3 C 41 %
2796 01-12-2019 10:00:17 0.5 C 41 %
2797 01-12-2019 10:10:17 0.6 C 41 %
2798 01-12-2019 10:20:17 0.7 C 40 %
2799 01-12-2019 10:30:17 0.8 C 39 %
2800 01-12-2019 10:40:17 1 C 38 %
Sensor: Nr:Datum:Temp:Feuchte:
Aussen-T/F 2801 01-12-2019 10:50:17 1.1 C 37 %
2802 01-12-2019 11:00:17 1.4 C 36 %
2803 01-12-2019 11:10:17 1.9 C 34 %
2804 01-12-2019 11:20:17 2.1 C 32 %
2805 01-12-2019 11:30:17 2.7 C 30 %
2806 01-12-2019 11:40:17 3 C 27 %
2807 01-12-2019 11:50:17 2.9 C 20 %
2808 01-12-2019 12:00:17 3 C 21 %
2809 01-12-2019 12:10:17 3.1 C 20 %
2810 01-12-2019 12:20:17 3.3 C 20 %
2811 01-12-2019 12:30:18 3.3 C 20 %
2812 01-12-2019 12:40:18 3.3 C 20 %
2813 01-12-2019 12:50:18 3.4 C 20 %
2814 01-12-2019 13:00:17 3.3 C 20 %
2815 01-12-2019 13:10:17 3.4 C 20 %
2816 01-12-2019 13:20:18 3.5 C 20 %
2817 01-12-2019 13:30:18 3.5 C 20 %
2818 01-12-2019 13:40:18 3.6 C 20 %
2819 01-12-2019 13:50:17 3.8 C 20 %
2820 01-12-2019 14:00:17 3.9 C 20 %
2821 01-12-2019 14:10:18 3.9 C 20 %
2822 01-12-2019 14:20:18 3.7 C 20 %
2823 01-12-2019 14:30:17 3.7 C 20 %
2824 01-12-2019 14:40:17 3.6 C 20 %
2825 01-12-2019 14:50:17 3.6 C 20 %
Sensor: Nr:Datum:Temp:Feuchte:
Aussen-T/F 2826 01-12-2019 15:00:17 3.5 C 20 %
2827 01-12-2019 15:10:17 3.3 C 20 %
2828 01-12-2019 15:20:17 3.2 C 21 %
2829 01-12-2019 15:30:17 3 C 20 %
2830 01-12-2019 15:40:17 3 C 21 %
2831 01-12-2019 15:50:17 2.7 C 25 %
2832 01-12-2019 16:00:17 2.6 C 25 %
2833 01-12-2019 16:10:17 2.5 C 25 %
2834 01-12-2019 16:20:17 2.4 C 25 %
2835 01-12-2019 16:30:18 2.4 C 25 %
2836 01-12-2019 16:40:18 2.2 C 25 %
2837 01-12-2019 16:50:18 2.2 C 25 %
2838 01-12-2019 17:00:18 2.2 C 25 %
2839 01-12-2019 17:10:18 2.2 C 25 %
2840 01-12-2019 17:20:17 2.3 C 25 %
2841 01-12-2019 17:30:17 2.3 C 25 %
2842 01-12-2019 17:40:17 2.3 C 25 %
2843 01-12-2019 17:50:17 2.3 C 25 %
2844 01-12-2019 18:00:17 2.3 C 25 %
2845 01-12-2019 18:10:17 2.3 C 25 %
2846 01-12-2019 18:20:17 2.3 C 25 %
2847 01-12-2019 18:30:17 2.3 C 25 %
2848 01-12-2019 18:40:17 2.3 C 25 %
2849 01-12-2019 18:50:17 2.3 C 23 %
2850 01-12-2019 19:00:17 2.3 C 23 %
Sensor: Nr:Datum:Temp:Feuchte:
Aussen-T/F 2851 01-12-2019 19:10:18 2.4 C 25 %
2852 01-12-2019 19:20:17 2.3 C 25 %
2853 01-12-2019 19:30:17 2.3 C 25 %
2854 01-12-2019 19:40:17 2.3 C 25 %
2855 01-12-2019 19:50:17 2.2 C 26 %
2856 01-12-2019 20:00:17 2.5 C 25 %
2857 01-12-2019 20:10:17 2.2 C 25 %
2858 01-12-2019 20:20:17 2.1 C 25 %
2859 01-12-2019 20:30:18 2.1 C 25 %
2860 01-12-2019 20:40:18 2.1 C 25 %
2861 01-12-2019 20:50:17 2 C 27 %
2862 01-12-2019 21:00:17 1.9 C 27 %
2863 01-12-2019 21:10:17 1.8 C 28 %
2864 01-12-2019 21:20:17 1.6 C 30 %
2865 01-12-2019 21:30:18 1.5 C 29 %
2866 01-12-2019 21:40:18 1.6 C 28 %
2867 01-12-2019 21:50:17 1.6 C 28 %
2868 01-12-2019 22:00:17 1.5 C 29 %
2869 01-12-2019 22:10:17 1.4 C 29 %
2870 01-12-2019 22:20:17 1.4 C 30 %
2871 01-12-2019 22:30:18 1.3 C 28 %
2872 01-12-2019 22:40:18 1.2 C 29 %
2873 01-12-2019 22:50:17 1.1 C 29 %
2874 01-12-2019 23:00:17 0.8 C 30 %
2875 01-12-2019 23:10:17 0.8 C 30 %
Sensor: Nr:Datum:Temp:Feuchte:
Aussen-T/F 2876 01-12-2019 23:20:18 0.7 C 30 %
2877 01-12-2019 23:30:17 0.5 C 32 %
2878 01-12-2019 23:40:17 0.3 C 33 %
2879 01-12-2019 23:50:17 0.2 C 33 %
2880 02-12-2019 00:00:17 0.1 C 33 %
2881 02-12-2019 00:10:17 0.2 C 33 %
2882 02-12-2019 00:20:17 0.3 C 32 %
2883 02-12-2019 00:30:17 0.3 C 32 %
2884 02-12-2019 00:40:17 0.2 C 32 %
2885 02-12-2019 00:50:18 0.2 C 35 %
2886 02-12-2019 01:00:17 0.1 C 36 %
2887 02-12-2019 01:10:17 0 C 38 %
2888 02-12-2019 01:20:17 -0.2 C 36 %
2889 02-12-2019 01:30:17 0.2 C 34 %
2890 02-12-2019 01:40:17 -0.2 C 35 %
2891 02-12-2019 01:50:17 -0.9 C 35 %
2892 02-12-2019 02:00:18 -0.9 C 37 %
2893 02-12-2019 02:10:18 -0.9 C 37 %
2894 02-12-2019 02:20:17 -0.5 C 37 %
2895 02-12-2019 02:30:17 -1 C 36 %
2896 02-12-2019 02:40:17 -1.1 C 37 %
2897 02-12-2019 02:50:17 -1.1 C 36 %
2898 02-12-2019 03:00:17 -1 C 37 %
2899 02-12-2019 03:10:17 -1.2 C 38 %
2900 02-12-2019 03:20:17 -1.3 C 37 %
Sensor: Nr:Datum:Temp:Feuchte:
Aussen-T/F 2901 02-12-2019 03:30:18 -1.3 C 38 %
2902 02-12-2019 03:40:18 -1.4 C 37 %
2903 02-12-2019 03:50:17 -1.4 C 37 %
2904 02-12-2019 04:00:18 -1.7 C 39 %
2905 02-12-2019 04:10:18 -1.4 C 40 %
2906 02-12-2019 04:20:17 -1.1 C 40 %
2907 02-12-2019 04:30:17 -1 C 40 %
2908 02-12-2019 04:40:17 -0.8 C 36 %
2909 02-12-2019 04:50:17 -1.1 C 37 %
2910 02-12-2019 05:00:17 -1.4 C 40 %
2911 02-12-2019 05:10:17 -1.1 C 40 %
2912 02-12-2019 05:20:17 -1.2 C 39 %
2913 02-12-2019 05:30:17 -1.6 C 40 %
2914 02-12-2019 05:40:17 -1.4 C 41 %
2915 02-12-2019 05:50:17 -1.3 C 42 %
2916 02-12-2019 06:00:17 -1.2 C 41 %
2917 02-12-2019 06:10:17 -1.3 C 39 %
2918 02-12-2019 06:20:17 -1.2 C 39 %
2919 02-12-2019 06:30:17 -1.4 C 38 %
2920 02-12-2019 06:40:17 -1.4 C 40 %
2921 02-12-2019 06:50:17 -1.8 C 37 %
2922 02-12-2019 07:00:17 -2.4 C 38 %
2923 02-12-2019 07:10:17 -2.6 C 40 %
2924 02-12-2019 07:20:17 -2.9 C 40 %
2925 02-12-2019 07:30:17 -2.7 C 42 %
Sensor: Nr:Datum:Temp:Feuchte:
Aussen-T/F 2926 02-12-2019 07:40:17 -2.6 C 42 %
2927 02-12-2019 07:50:17 -2.4 C 43 %
2928 02-12-2019 08:00:17 -1.9 C 45 %
2929 02-12-2019 08:10:18 -1.6 C 44 %
2930 02-12-2019 08:20:17 -1.3 C 44 %
2931 02-12-2019 08:30:17 -1 C 43 %
2932 02-12-2019 08:40:17 -0.7 C 43 %
2933 02-12-2019 08:50:17 -0.5 C 42 %
2934 02-12-2019 09:00:17 -0.5 C 40 %
2935 02-12-2019 09:10:17 -0.4 C 38 %
2936 02-12-2019 09:20:17 -0.4 C 36 %
2937 02-12-2019 09:30:17 -0.4 C 36 %
2938 02-12-2019 09:40:17 0 C 36 %
2939 02-12-2019 09:50:17 0 C 35 %
2940 02-12-2019 10:00:17 0.1 C 35 %
2941 02-12-2019 10:10:17 0.1 C 34 %
2942 02-12-2019 10:20:17 0.2 C 35 %
2943 02-12-2019 10:30:17 0.5 C 36 %
2944 02-12-2019 10:40:17 1 C 31 %
2945 02-12-2019 10:50:17 0.8 C 31 %
2946 02-12-2019 11:00:17 1.2 C 30 %
2947 02-12-2019 11:10:17 1.1 C 30 %
2948 02-12-2019 11:20:17 1.2 C 30 %
2949 02-12-2019 11:30:17 0.9 C 31 %
2950 02-12-2019 11:40:18 1 C 31 %
Sensor: Nr:Datum:Temp:Feuchte:
Aussen-T/F 2951 02-12-2019 11:50:17 0.8 C 32 %
2952 02-12-2019 12:00:18 1.6 C 31 %
2953 02-12-2019 12:10:18 2.3 C 27 %
2954 02-12-2019 12:20:17 2.8 C 25 %
2955 02-12-2019 12:30:17 3.1 C 26 %
2956 02-12-2019 12:40:17 3 C 25 %
2957 02-12-2019 12:50:18 3.2 C 26 %
2958 02-12-2019 13:00:17 3.2 C 26 %
2959 02-12-2019 13:10:17 3.5 C 25 %
2960 02-12-2019 13:20:17 3.9 C 25 %
2961 02-12-2019 13:30:17 3.9 C 25 %
2962 02-12-2019 13:40:17 3.8 C 25 %
2963 02-12-2019 13:50:17 3.6 C 25 %
2964 02-12-2019 14:00:17 4 C 26 %
2965 02-12-2019 14:10:17 3.7 C 28 %
2966 02-12-2019 14:20:17 3.7 C 30 %
2967 02-12-2019 14:30:17 4.1 C 27 %
2968 02-12-2019 14:40:17 4.3 C 27 %
2969 02-12-2019 14:50:17 4.5 C 27 %
2970 02-12-2019 15:00:18 4.3 C 28 %
2971 02-12-2019 15:10:18 4.3 C 29 %
2972 02-12-2019 15:20:17 4.7 C 27 %
2973 02-12-2019 15:30:17 4.4 C 27 %
2974 02-12-2019 15:40:17 4.1 C 31 %
2975 02-12-2019 15:50:17 3.9 C 36 %
Sensor: Nr:Datum:Temp:Feuchte:
Aussen-T/F 2976 02-12-2019 16:00:18 3.7 C 37 %
2977 02-12-2019 16:10:18 3.6 C 37 %
2978 02-12-2019 16:20:17 3.5 C 40 %
2979 02-12-2019 16:30:17 3.5 C 38 %
2980 02-12-2019 16:40:17 3.5 C 35 %
2981 02-12-2019 16:50:17 3.5 C 35 %
2982 02-12-2019 17:00:17 3.3 C 36 %
2983 02-12-2019 17:10:17 3.2 C 39 %
2984 02-12-2019 17:20:17 3.2 C 36 %
2985 02-12-2019 17:30:18 3.3 C 36 %
2986 02-12-2019 17:40:18 3.4 C 35 %
2987 02-12-2019 17:50:17 3.3 C 35 %
2988 02-12-2019 18:01:17 3.1 C 36 %
2989 02-12-2019 18:11:17 3.2 C 37 %
2990 02-12-2019 18:21:17 3.2 C 36 %
2991 02-12-2019 18:30:17 3 C 36 %
2992 02-12-2019 18:40:17 2.5 C 40 %
2993 02-12-2019 18:50:17 2.2 C 40 %
2994 02-12-2019 19:00:17 2.1 C 42 %
2995 02-12-2019 19:10:17 2.7 C 43 %
2996 02-12-2019 19:21:17 2.7 C 42 %
2997 02-12-2019 19:30:17 2.7 C 41 %
2998 02-12-2019 19:40:17 2.9 C 42 %
2999 02-12-2019 19:51:17 2.9 C 42 %
3000 02-12-2019 20:01:17 2.9 C 39 %
Sensor: Nr:Datum:Temp:Feuchte:
Aussen-T/F 3001 02-12-2019 20:11:17 2.8 C 38 %
3002 02-12-2019 20:21:17 2.9 C 37 %
3003 02-12-2019 20:31:17 2.9 C 38 %
3004 02-12-2019 20:40:17 2.8 C 40 %
3005 02-12-2019 20:51:17 2.7 C 42 %
3006 02-12-2019 21:00:17 2.7 C 42 %
3007 02-12-2019 21:10:17 2.7 C 42 %
3008 02-12-2019 21:21:17 2.7 C 42 %
3009 02-12-2019 21:30:18 2.7 C 42 %
3010 02-12-2019 21:40:18 2.6 C 41 %
3011 02-12-2019 21:51:17 2.6 C 42 %
3012 02-12-2019 22:01:17 2.6 C 41 %
3013 02-12-2019 22:11:17 2.6 C 41 %
3014 02-12-2019 22:21:17 2.6 C 41 %
3015 02-12-2019 22:30:18 2.5 C 40 %
3016 02-12-2019 22:40:18 2.5 C 41 %
3017 02-12-2019 22:51:17 2.4 C 41 %
3018 02-12-2019 23:01:17 2.5 C 41 %
3019 02-12-2019 23:11:17 2.4 C 42 %
3020 02-12-2019 23:21:17 2.5 C 42 %
3021 02-12-2019 23:31:17 2.5 C 42 %
3022 02-12-2019 23:41:17 2.5 C 42 %
3023 02-12-2019 23:50:18 2.5 C 42 %
3024 03-12-2019 00:01:17 2.5 C 42 %
3025 03-12-2019 00:11:17 2.5 C 42 %
Sensor: Nr:Datum:Temp:Feuchte:
Aussen-T/F 3026 03-12-2019 00:21:17 2.5 C 41 %
3027 03-12-2019 00:30:18 2.5 C 41 %
3028 03-12-2019 00:40:18 2.6 C 41 %
3029 03-12-2019 00:51:17 2.6 C 41 %
3030 03-12-2019 01:01:18 2.6 C 41 %
3031 03-12-2019 01:11:18 2.6 C 41 %
3032 03-12-2019 01:21:17 2.7 C 41 %
3033 03-12-2019 01:31:17 2.7 C 41 %
3034 03-12-2019 01:41:17 2.7 C 42 %
3035 03-12-2019 01:51:17 2.7 C 42 %
3036 03-12-2019 02:01:17 2.7 C 42 %
3037 03-12-2019 02:11:17 2.8 C 42 %
3038 03-12-2019 02:21:17 2.8 C 42 %
3039 03-12-2019 02:31:17 2.8 C 42 %
3040 03-12-2019 02:41:17 2.9 C 42 %
3041 03-12-2019 02:51:17 2.8 C 42 %
3042 03-12-2019 03:01:17 2.8 C 42 %
3043 03-12-2019 03:11:17 2.8 C 42 %
3044 03-12-2019 03:21:17 2.8 C 42 %
3045 03-12-2019 03:31:17 2.9 C 42 %
3046 03-12-2019 03:41:17 3 C 42 %
3047 03-12-2019 03:51:17 3 C 42 %
3048 03-12-2019 04:01:17 3 C 42 %
3049 03-12-2019 04:11:17 3 C 42 %
3050 03-12-2019 04:21:17 3 C 42 %
Sensor: Nr:Datum:Temp:Feuchte:
Aussen-T/F 3051 03-12-2019 04:31:17 3.1 C 42 %
3052 03-12-2019 04:41:17 3.1 C 42 %
3053 03-12-2019 04:51:17 3.1 C 42 %
3054 03-12-2019 05:01:17 3.1 C 42 %
3055 03-12-2019 05:11:17 3.1 C 42 %
3056 03-12-2019 05:21:17 3.1 C 42 %
3057 03-12-2019 05:31:17 3.2 C 42 %
3058 03-12-2019 05:41:17 3.2 C 41 %
3059 03-12-2019 05:51:17 3.2 C 41 %
3060 03-12-2019 06:01:18 3.2 C 41 %
3061 03-12-2019 06:11:18 3.2 C 41 %
3062 03-12-2019 06:21:17 3.2 C 41 %
3063 03-12-2019 06:31:17 3.3 C 41 %
3064 03-12-2019 06:41:17 3.3 C 41 %
3065 03-12-2019 06:51:18 3.3 C 41 %
3066 03-12-2019 07:01:17 3.3 C 41 %
3067 03-12-2019 07:11:17 3.3 C 41 %
3068 03-12-2019 07:21:17 3.3 C 41 %
3069 03-12-2019 07:31:17 3.2 C 41 %
3070 03-12-2019 07:41:17 3.3 C 41 %
3071 03-12-2019 07:51:17 3.3 C 42 %
3072 03-12-2019 08:01:17 3.3 C 42 %
3073 03-12-2019 08:11:17 3.4 C 42 %
3074 03-12-2019 08:21:17 3.3 C 42 %
3075 03-12-2019 08:31:17 3.4 C 42 %
Sensor: Nr:Datum:Temp:Feuchte:
Aussen-T/F 3076 03-12-2019 08:41:17 3.4 C 41 %
3077 03-12-2019 08:51:17 3.4 C 41 %
3078 03-12-2019 09:01:17 3.5 C 42 %
3079 03-12-2019 09:11:17 3.5 C 42 %
3080 03-12-2019 09:21:17 3.5 C 41 %
3081 03-12-2019 09:31:17 3.6 C 41 %
3082 03-12-2019 09:41:17 3.6 C 41 %
3083 03-12-2019 09:51:17 3.7 C 41 %
3084 03-12-2019 10:01:17 3.7 C 41 %
3085 03-12-2019 10:11:17 3.8 C 41 %
3086 03-12-2019 10:21:17 3.8 C 41 %
3087 03-12-2019 10:31:17 3.8 C 41 %
3088 03-12-2019 10:41:17 4.1 C 40 %
3089 03-12-2019 10:51:17 4.1 C 40 %
3090 03-12-2019 11:01:18 4.3 C 39 %
3091 03-12-2019 11:11:18 4.3 C 37 %
3092 03-12-2019 11:21:17 4.4 C 37 %
3093 03-12-2019 11:31:17 4.6 C 37 %
3094 03-12-2019 11:41:17 4.6 C 37 %
3095 03-12-2019 11:51:17 4.7 C 37 %
3096 03-12-2019 12:01:17 4.7 C 37 %
3097 03-12-2019 12:11:17 4.9 C 35 %
3098 03-12-2019 12:21:17 5 C 34 %
3099 03-12-2019 12:31:17 5 C 35 %
3100 03-12-2019 12:41:17 5.2 C 35 %
Sensor: Nr:Datum:Temp:Feuchte:
Aussen-T/F 3101 03-12-2019 12:51:18 5.3 C 34 %
3102 03-12-2019 13:01:17 5.6 C 34 %
3103 03-12-2019 13:11:17 5.8 C 33 %
3104 03-12-2019 13:21:17 5.8 C 32 %
3105 03-12-2019 13:31:17 5.7 C 32 %
3106 03-12-2019 13:41:17 5.9 C 32 %
3107 03-12-2019 13:51:18 6.1 C 31 %
3108 03-12-2019 14:01:17 6.1 C 31 %
3109 03-12-2019 14:11:17 6.2 C 31 %
3110 03-12-2019 14:21:17 6.1 C 31 %
3111 03-12-2019 14:31:17 6.3 C 31 %
3112 03-12-2019 14:41:17 6.2 C 30 %
3113 03-12-2019 14:51:18 6.4 C 31 %
3114 03-12-2019 15:01:17 6.2 C 30 %
3115 03-12-2019 15:11:17 6.3 C 31 %
3116 03-12-2019 15:21:17 6.3 C 31 %
3117 03-12-2019 15:31:17 6.2 C 31 %
3118 03-12-2019 15:41:17 6.1 C 32 %
3119 03-12-2019 15:51:17 6 C 33 %
3120 03-12-2019 16:01:17 5.7 C 36 %
3121 03-12-2019 16:11:17 5.6 C 39 %
3122 03-12-2019 16:21:17 5.4 C 40 %
3123 03-12-2019 16:31:18 5.3 C 41 %
3124 03-12-2019 16:41:18 5.2 C 41 %
3125 03-12-2019 16:51:17 5.2 C 41 %
Sensor: Nr:Datum:Temp:Feuchte:
Aussen-T/F 3126 03-12-2019 17:01:18 5.1 C 41 %
3127 03-12-2019 17:11:18 5.1 C 41 %
3128 03-12-2019 17:21:17 5.1 C 41 %
3129 03-12-2019 17:31:17 5 C 41 %
3130 03-12-2019 17:41:17 5 C 41 %
3131 03-12-2019 17:51:17 5 C 41 %
3132 03-12-2019 18:01:18 4.8 C 41 %
3133 03-12-2019 18:11:18 4.7 C 40 %
3134 03-12-2019 18:21:17 4.7 C 40 %
3135 03-12-2019 18:31:18 4.7 C 40 %
3136 03-12-2019 18:41:18 4.7 C 40 %
3137 03-12-2019 18:51:17 4.7 C 40 %
3138 03-12-2019 19:01:17 4.7 C 40 %
3139 03-12-2019 19:11:17 4.6 C 39 %
3140 03-12-2019 19:21:17 4.6 C 38 %
3141 03-12-2019 19:31:17 4.6 C 38 %
3142 03-12-2019 19:41:17 4.4 C 37 %
3143 03-12-2019 19:51:17 4.3 C 38 %
3144 03-12-2019 20:01:17 4.3 C 39 %
3145 03-12-2019 20:11:17 4.3 C 38 %
3146 03-12-2019 20:21:18 4.2 C 37 %
3147 03-12-2019 20:31:17 4.2 C 38 %
3148 03-12-2019 20:41:18 4.1 C 39 %
3149 03-12-2019 20:51:17 3.9 C 40 %
3150 03-12-2019 21:01:17 3.9 C 41 %
Sensor: Nr:Datum:Temp:Feuchte:
Aussen-T/F 3151 03-12-2019 21:11:17 4 C 40 %
3152 03-12-2019 21:21:17 4 C 40 %
3153 03-12-2019 21:31:17 3.8 C 40 %
3154 03-12-2019 21:41:17 3.5 C 40 %
3155 03-12-2019 21:51:17 3.3 C 40 %
3156 03-12-2019 22:01:17 2.9 C 41 %
3157 03-12-2019 22:11:17 2.8 C 42 %
3158 03-12-2019 22:21:18 2.8 C 42 %
3159 03-12-2019 22:31:18 3.3 C 42 %
3160 03-12-2019 22:41:18 3.5 C 40 %
3161 03-12-2019 22:51:17 3.2 C 38 %
3162 03-12-2019 23:01:18 2.6 C 39 %
3163 03-12-2019 23:11:18 2.5 C 41 %
3164 03-12-2019 23:21:17 2.5 C 41 %
3165 03-12-2019 23:31:17 2.2 C 40 %
3166 03-12-2019 23:41:17 2.8 C 40 %
3167 03-12-2019 23:51:17 2.6 C 38 %
3168 04-12-2019 00:01:18 2.3 C 39 %
3169 04-12-2019 00:11:18 1.7 C 41 %
3170 04-12-2019 00:21:17 1.3 C 42 %
3171 04-12-2019 00:31:17 0.9 C 43 %
3172 04-12-2019 00:41:17 0.4 C 43 %
3173 04-12-2019 00:51:17 0.6 C 45 %
3174 04-12-2019 01:01:18 0.2 C 44 %
3175 04-12-2019 01:11:18 0.2 C 45 %
Sensor: Nr:Datum:Temp:Feuchte:
Aussen-T/F 3176 04-12-2019 01:21:17 0 C 44 %
3177 04-12-2019 01:31:17 -0.1 C 45 %
3178 04-12-2019 01:41:17 0.1 C 45 %
3179 04-12-2019 01:51:18 -0.3 C 45 %
3180 04-12-2019 02:01:17 -0.3 C 45 %
3181 04-12-2019 02:11:17 -0.2 C 45 %
3182 04-12-2019 02:21:17 -0.5 C 45 %
3183 04-12-2019 02:31:18 -0.4 C 45 %
3184 04-12-2019 02:41:18 0.1 C 45 %
3185 04-12-2019 02:51:17 0.3 C 45 %
3186 04-12-2019 03:01:18 0.6 C 45 %
3187 04-12-2019 03:11:18 0.9 C 45 %
3188 04-12-2019 03:21:17 0.9 C 45 %
3189 04-12-2019 03:31:17 1 C 44 %
3190 04-12-2019 03:41:17 1 C 44 %
3191 04-12-2019 03:51:17 1 C 44 %
3192 04-12-2019 04:01:18 0.8 C 45 %
3193 04-12-2019 04:11:18 0.9 C 45 %
3194 04-12-2019 04:21:17 0.8 C 45 %
3195 04-12-2019 04:31:17 0.8 C 45 %
3196 04-12-2019 04:41:17 0.8 C 45 %
3197 04-12-2019 04:51:17 0.8 C 45 %
3198 04-12-2019 05:01:17 0.8 C 45 %
3199 04-12-2019 05:11:17 0.8 C 44 %
3200 04-12-2019 05:21:17 0.8 C 44 %
Sensor: Nr:Datum:Temp:Feuchte:
Aussen-T/F 3201 04-12-2019 05:31:17 1 C 43 %
3202 04-12-2019 05:41:17 1 C 43 %
3203 04-12-2019 05:51:18 1 C 43 %
3204 04-12-2019 06:01:17 1 C 43 %
3205 04-12-2019 06:11:17 1.1 C 43 %
3206 04-12-2019 06:21:17 1.2 C 43 %
3207 04-12-2019 06:31:17 1.2 C 43 %
3208 04-12-2019 06:41:18 1.2 C 43 %
3209 04-12-2019 06:51:17 1.2 C 43 %
3210 04-12-2019 07:01:17 1.1 C 43 %
3211 04-12-2019 07:11:17 1.1 C 43 %
3212 04-12-2019 07:21:18 1.1 C 43 %
3213 04-12-2019 07:31:17 1 C 43 %
3214 04-12-2019 07:41:17 0.9 C 44 %
3215 04-12-2019 07:51:17 1 C 43 %
3216 04-12-2019 08:01:17 0.9 C 44 %
3217 04-12-2019 08:11:17 0.9 C 44 %
3218 04-12-2019 08:21:17 0.9 C 44 %
3219 04-12-2019 08:31:17 0.9 C 44 %
3220 04-12-2019 08:41:17 1 C 42 %
3221 04-12-2019 08:51:17 1 C 42 %
3222 04-12-2019 09:01:18 1 C 42 %
3223 04-12-2019 09:11:18 1.2 C 42 %
3224 04-12-2019 09:21:18 1.2 C 42 %
3225 04-12-2019 09:31:17 1.2 C 41 %
Sensor: Nr:Datum:Temp:Feuchte:
Aussen-T/F 3226 04-12-2019 09:41:17 1.2 C 41 %
3227 04-12-2019 09:51:17 1.4 C 41 %
3228 04-12-2019 10:01:17 1.5 C 41 %
3229 04-12-2019 10:11:18 1.4 C 39 %
3230 04-12-2019 10:21:17 1.3 C 38 %
3231 04-12-2019 10:31:17 1.1 C 37 %
3232 04-12-2019 10:41:17 1.1 C 37 %
3233 04-12-2019 10:51:18 1 C 38 %
3234 04-12-2019 11:01:17 1 C 38 %
3235 04-12-2019 11:11:17 1.1 C 39 %
3236 04-12-2019 11:21:17 1.1 C 39 %
3237 04-12-2019 11:31:18 1.1 C 40 %
3238 04-12-2019 11:41:18 1 C 40 %
3239 04-12-2019 11:51:17 1.1 C 41 %
3240 04-12-2019 12:01:17 1.2 C 41 %
3241 04-12-2019 12:11:17 1.3 C 41 %
3242 04-12-2019 12:21:18 1.3 C 41 %
3243 04-12-2019 12:31:17 1.5 C 41 %
3244 04-12-2019 12:41:17 1.5 C 41 %
3245 04-12-2019 12:51:17 1.6 C 41 %
3246 04-12-2019 13:01:17 1.6 C 41 %
3247 04-12-2019 13:11:17 1.7 C 41 %
3248 04-12-2019 13:21:17 1.8 C 40 %
3249 04-12-2019 13:31:18 1.8 C 40 %
3250 04-12-2019 13:41:18 2.1 C 38 %
Sensor: Nr:Datum:Temp:Feuchte:
Aussen-T/F 3251 04-12-2019 13:51:17 2.1 C 37 %
3252 04-12-2019 14:01:17 2.1 C 37 %
3253 04-12-2019 14:11:17 2.1 C 36 %
3254 04-12-2019 14:21:17 2.1 C 36 %
3255 04-12-2019 14:31:18 2 C 36 %
3256 04-12-2019 14:41:18 2.2 C 35 %
3257 04-12-2019 14:51:17 2.1 C 36 %
3258 04-12-2019 15:01:18 2 C 37 %
3259 04-12-2019 15:11:18 1.7 C 38 %
3260 04-12-2019 15:21:17 1.7 C 40 %
3261 04-12-2019 15:31:17 1.7 C 40 %
3262 04-12-2019 15:41:17 1.8 C 39 %
3263 04-12-2019 15:51:18 1.8 C 39 %
3264 04-12-2019 16:01:17 1.6 C 37 %
3265 04-12-2019 16:11:17 1.5 C 37 %
3266 04-12-2019 16:21:17 1.4 C 37 %
3267 04-12-2019 16:31:17 1.4 C 37 %
3268 04-12-2019 16:41:17 1.2 C 37 %
3269 04-12-2019 16:51:17 1.1 C 36 %
3270 04-12-2019 17:01:17 1 C 37 %
3271 04-12-2019 17:11:17 1 C 37 %
3272 04-12-2019 17:21:18 1 C 36 %
3273 04-12-2019 17:31:17 0.9 C 38 %
3274 04-12-2019 17:41:17 0.6 C 38 %
3275 04-12-2019 17:51:18 0.7 C 39 %
Sensor: Nr:Datum:Temp:Feuchte:
Aussen-T/F 3276 04-12-2019 18:01:17 0.8 C 38 %
3277 04-12-2019 18:11:17 0.3 C 39 %
3278 04-12-2019 18:21:17 0.4 C 40 %
3279 04-12-2019 18:31:17 0.6 C 40 %
3280 04-12-2019 18:41:17 -0.2 C 40 %
3281 04-12-2019 18:51:17 -0.5 C 41 %
3282 04-12-2019 19:01:17 -0.3 C 44 %
3283 04-12-2019 19:11:17 -0.7 C 42 %
3284 04-12-2019 19:21:17 -1.1 C 42 %
3285 04-12-2019 19:31:17 -1 C 44 %
3286 04-12-2019 19:41:17 -1.2 C 44 %
3287 04-12-2019 19:51:17 -1.4 C 43 %
3288 04-12-2019 20:01:17 -1.3 C 44 %
3289 04-12-2019 20:11:17 -1.1 C 45 %
3290 04-12-2019 20:21:17 -1.5 C 44 %
3291 04-12-2019 20:31:17 -1.5 C 44 %
3292 04-12-2019 20:41:17 -1.8 C 43 %
3293 04-12-2019 20:51:18 -1.9 C 44 %
3294 04-12-2019 21:01:18 -1.9 C 44 %
3295 04-12-2019 21:11:18 -1.7 C 44 %
3296 04-12-2019 21:21:17 -2 C 43 %
3297 04-12-2019 21:31:17 -2 C 43 %
3298 04-12-2019 21:41:17 -2.4 C 43 %
3299 04-12-2019 21:51:17 -2.4 C 43 %
3300 04-12-2019 22:01:17 -2.5 C 43 %
Sensor: Nr:Datum:Temp:Feuchte:
Aussen-T/F 3301 04-12-2019 22:11:17 -2.6 C 43 %
3302 04-12-2019 22:21:17 -2.7 C 44 %
3303 04-12-2019 22:31:18 -2.8 C 43 %
3304 04-12-2019 22:41:18 -2.7 C 43 %
3305 04-12-2019 22:51:17 -2.5 C 43 %
3306 04-12-2019 23:01:17 -2.6 C 42 %
3307 04-12-2019 23:11:17 -2.9 C 42 %
3308 04-12-2019 23:21:17 -2.7 C 42 %
3309 04-12-2019 23:31:17 -2.7 C 42 %
3310 04-12-2019 23:41:17 -2.9 C 41 %
3311 04-12-2019 23:51:18 -2.9 C 42 %
3312 05-12-2019 00:01:17 -3 C 41 %
3313 05-12-2019 00:11:17 -3 C 41 %
3314 05-12-2019 00:21:17 -3.1 C 41 %
3315 05-12-2019 00:31:18 -2.8 C 41 %
3316 05-12-2019 00:41:18 -2.8 C 41 %
3317 05-12-2019 00:51:17 -2.9 C 41 %
3318 05-12-2019 01:01:17 -2.9 C 41 %
3319 05-12-2019 01:11:17 -3.2 C 41 %
3320 05-12-2019 01:21:17 -2.5 C 43 %
3321 05-12-2019 01:31:18 -2.6 C 43 %
3322 05-12-2019 01:41:18 -2.7 C 43 %
3323 05-12-2019 01:51:17 -2.6 C 43 %
3324 05-12-2019 02:01:17 -2.6 C 42 %
3325 05-12-2019 02:11:18 -2.8 C 41 %
Sensor: Nr:Datum:Temp:Feuchte:
Aussen-T/F 3326 05-12-2019 02:21:17 -3 C 41 %
3327 05-12-2019 02:31:17 -3.2 C 41 %
3328 05-12-2019 02:41:17 -3.2 C 41 %
3329 05-12-2019 02:51:17 -3.2 C 41 %
3330 05-12-2019 03:01:17 -3.4 C 40 %
3331 05-12-2019 03:11:17 -3.5 C 40 %
3332 05-12-2019 03:21:17 -3.3 C 41 %
3333 05-12-2019 03:31:17 -3.2 C 41 %
3334 05-12-2019 03:41:17 -3.6 C 40 %
3335 05-12-2019 03:51:17 -3 C 43 %
3336 05-12-2019 04:01:17 -2.7 C 43 %
3337 05-12-2019 04:11:17 -2.7 C 43 %
3338 05-12-2019 04:21:17 -2.7 C 43 %
3339 05-12-2019 04:31:18 -2.9 C 42 %
3340 05-12-2019 04:41:18 -3.3 C 40 %
3341 05-12-2019 04:51:17 -2.9 C 42 %
3342 05-12-2019 05:01:17 -2.8 C 43 %
3343 05-12-2019 05:11:17 -2.8 C 42 %
3344 05-12-2019 05:21:17 -2.7 C 43 %
3345 05-12-2019 05:31:17 -2.7 C 43 %
3346 05-12-2019 05:41:18 -2.5 C 43 %
3347 05-12-2019 05:51:17 -2.5 C 43 %
3348 05-12-2019 06:01:17 -2.6 C 43 %
3349 05-12-2019 06:11:17 -2.7 C 43 %
3350 05-12-2019 06:21:17 -2.9 C 43 %
Sensor: Nr:Datum:Temp:Feuchte:
Aussen-T/F 3351 05-12-2019 06:31:17 -2.9 C 43 %
3352 05-12-2019 06:41:17 -3 C 42 %
3353 05-12-2019 06:51:17 -2.9 C 43 %
3354 05-12-2019 07:01:17 -2.9 C 42 %
3355 05-12-2019 07:11:17 -2.9 C 42 %
3356 05-12-2019 07:21:17 -3.2 C 42 %
3357 05-12-2019 07:31:17 -3.1 C 42 %
3358 05-12-2019 07:41:18 -2.9 C 42 %
3359 05-12-2019 07:51:17 -2.9 C 42 %
3360 05-12-2019 08:01:17 -3 C 42 %
3361 05-12-2019 08:11:17 -2.8 C 43 %
3362 05-12-2019 08:21:18 -2.9 C 42 %
3363 05-12-2019 08:31:17 -2.8 C 42 %
3364 05-12-2019 08:41:17 -3 C 42 %
3365 05-12-2019 08:51:17 -3 C 42 %
3366 05-12-2019 09:01:18 -2.7 C 43 %
3367 05-12-2019 09:11:18 -2.6 C 43 %
3368 05-12-2019 09:21:17 -2.6 C 42 %
3369 05-12-2019 09:31:17 -2.6 C 42 %
3370 05-12-2019 09:41:17 -2.5 C 43 %
3371 05-12-2019 09:51:17 -2.4 C 42 %
3372 05-12-2019 10:01:18 -2.3 C 42 %
3373 05-12-2019 10:11:18 -2.4 C 42 %
3374 05-12-2019 10:21:17 -2.1 C 43 %
3375 05-12-2019 10:31:17 -1.7 C 43 %
Sensor: Nr:Datum:Temp:Feuchte:
Aussen-T/F 3376 05-12-2019 10:41:17 -2 C 42 %
3377 05-12-2019 10:51:18 -1.7 C 42 %
3378 05-12-2019 11:01:17 -1.7 C 43 %
3379 05-12-2019 11:11:17 -1.4 C 42 %
3380 05-12-2019 11:21:17 -1.2 C 41 %
3381 05-12-2019 11:31:18 -1.2 C 41 %
3382 05-12-2019 11:41:18 -0.7 C 42 %
3383 05-12-2019 11:51:17 -0.9 C 42 %
3384 05-12-2019 12:01:18 -1 C 41 %
3385 05-12-2019 12:11:18 -0.8 C 41 %
3386 05-12-2019 12:21:17 -0.6 C 41 %
3387 05-12-2019 12:31:17 -0.8 C 40 %
3388 05-12-2019 12:41:17 -0.9 C 40 %
3389 05-12-2019 12:51:18 -0.6 C 41 %
3390 05-12-2019 13:01:17 -0.5 C 40 %
3391 05-12-2019 13:11:17 -0.6 C 40 %
3392 05-12-2019 13:21:17 -0.4 C 41 %
3393 05-12-2019 13:31:17 -0.4 C 41 %
3394 05-12-2019 13:41:17 -0.2 C 41 %
3395 05-12-2019 13:51:17 0.1 C 40 %
3396 05-12-2019 14:01:18 0.1 C 40 %
3397 05-12-2019 14:11:18 0.2 C 40 %
3398 05-12-2019 14:21:17 0.2 C 40 %
3399 05-12-2019 14:31:17 0.2 C 40 %
3400 05-12-2019 14:41:17 0.2 C 40 %
Sensor: Nr:Datum:Temp:Feuchte:
Aussen-T/F 3401 05-12-2019 14:51:17 0.2 C 41 %
3402 05-12-2019 15:01:17 0.1 C 41 %
3403 05-12-2019 15:11:17 0 C 41 %
3404 05-12-2019 15:21:17 -0.1 C 42 %
3405 05-12-2019 15:31:17 -0.1 C 43 %
3406 05-12-2019 15:41:17 -0.1 C 44 %
3407 05-12-2019 15:51:18 -0.1 C 44 %
3408 05-12-2019 16:01:17 -0.4 C 44 %
3409 05-12-2019 16:11:17 -0.5 C 44 %
3410 05-12-2019 16:21:17 -0.7 C 45 %
3411 05-12-2019 16:31:18 -0.8 C 44 %
3412 05-12-2019 16:41:18 -1 C 44 %
3413 05-12-2019 16:51:17 -1 C 44 %
3414 05-12-2019 17:01:17 -1.2 C 44 %
3415 05-12-2019 17:11:17 -1.1 C 45 %
3416 05-12-2019 17:21:18 -1.2 C 45 %
3417 05-12-2019 17:31:17 -1.3 C 44 %
3418 05-12-2019 17:41:17 -1.7 C 44 %
3419 05-12-2019 17:51:17 -1.6 C 44 %
3420 05-12-2019 18:01:18 -1.8 C 43 %
3421 05-12-2019 18:11:18 -2 C 43 %
3422 05-12-2019 18:21:17 -2 C 43 %
3423 05-12-2019 18:31:17 -2 C 43 %
3424 05-12-2019 18:41:17 -2.2 C 43 %
3425 05-12-2019 18:51:18 -2.5 C 42 %
Sensor: Nr:Datum:Temp:Feuchte:
Aussen-T/F 3426 05-12-2019 19:01:17 -2.1 C 43 %
3427 05-12-2019 19:11:17 -2.1 C 44 %
3428 05-12-2019 19:21:17 -2.6 C 42 %
3429 05-12-2019 19:31:17 -2.9 C 41 %
3430 05-12-2019 19:41:17 -2.6 C 42 %
3431 05-12-2019 19:51:18 -1.9 C 43 %
3432 05-12-2019 20:01:17 -1.5 C 44 %
3433 05-12-2019 20:11:17 -1.6 C 43 %
3434 05-12-2019 20:21:17 -1.5 C 43 %
3435 05-12-2019 20:31:17 -1.9 C 42 %
3436 05-12-2019 20:41:17 -2 C 42 %
3437 05-12-2019 20:51:18 -2.1 C 42 %
3438 05-12-2019 21:01:17 -2.3 C 42 %
3439 05-12-2019 21:11:17 -2.6 C 42 %
3440 05-12-2019 21:21:17 -2.1 C 43 %
3441 05-12-2019 21:31:17 -2 C 43 %
3442 05-12-2019 21:41:17 -2 C 43 %
3443 05-12-2019 21:51:17 -2 C 43 %
3444 05-12-2019 22:01:17 -2.3 C 42 %
3445 05-12-2019 22:11:17 -2.3 C 42 %
3446 05-12-2019 22:21:18 -2.2 C 42 %
3447 05-12-2019 22:31:17 -2.4 C 42 %
3448 05-12-2019 22:41:17 -2.4 C 42 %
3449 05-12-2019 22:51:17 -2.3 C 42 %
3450 05-12-2019 23:01:17 -2.6 C 41 %
Sensor: Nr:Datum:Temp:Feuchte:
Aussen-T/F 3451 05-12-2019 23:11:17 -2.7 C 41 %
3452 05-12-2019 23:21:18 -2.7 C 42 %
3453 05-12-2019 23:31:17 -3.1 C 41 %
3454 05-12-2019 23:41:17 -3.3 C 41 %
3455 05-12-2019 23:51:17 -3.2 C 42 %
3456 06-12-2019 00:01:18 -2.9 C 42 %
3457 06-12-2019 00:11:18 -3.4 C 40 %
3458 06-12-2019 00:21:17 -3.8 C 40 %
3459 06-12-2019 00:31:17 -3.4 C 42 %
3460 06-12-2019 00:41:17 -3.2 C 42 %
3461 06-12-2019 00:51:17 -2.7 C 43 %
3462 06-12-2019 01:01:17 -2.4 C 43 %
3463 06-12-2019 01:11:17 -2.1 C 43 %
3464 06-12-2019 01:21:17 -2 C 41 %
3465 06-12-2019 01:31:18 -1.8 C 42 %
3466 06-12-2019 01:41:18 -1.6 C 43 %
3467 06-12-2019 01:51:17 -1.6 C 43 %
3468 06-12-2019 02:01:17 -1.4 C 42 %
3469 06-12-2019 02:11:17 -1.4 C 40 %
3470 06-12-2019 02:21:17 -1.6 C 40 %
3471 06-12-2019 02:31:17 -1.5 C 40 %
3472 06-12-2019 02:41:17 -1.7 C 39 %
3473 06-12-2019 02:51:17 -1.6 C 40 %
3474 06-12-2019 03:01:18 -1.4 C 39 %
3475 06-12-2019 03:11:18 -1.2 C 39 %
Sensor: Nr:Datum:Temp:Feuchte:
Aussen-T/F 3476 06-12-2019 03:21:17 -1 C 38 %
3477 06-12-2019 03:31:17 -1 C 37 %
3478 06-12-2019 03:41:17 -1 C 38 %
3479 06-12-2019 03:51:17 -1.1 C 37 %
3480 06-12-2019 04:01:17 -1.2 C 38 %
3481 06-12-2019 04:11:17 -1.3 C 37 %
3482 06-12-2019 04:21:17 -1.3 C 38 %
3483 06-12-2019 04:31:17 -1.1 C 38 %
3484 06-12-2019 04:41:17 -1.1 C 38 %
3485 06-12-2019 04:51:17 -0.8 C 38 %
3486 06-12-2019 05:01:17 -1 C 38 %
3487 06-12-2019 05:11:17 -0.8 C 37 %
3488 06-12-2019 05:21:17 -0.9 C 36 %
3489 06-12-2019 05:31:18 -1 C 37 %
3490 06-12-2019 05:41:18 -0.8 C 38 %
3491 06-12-2019 05:51:17 -0.6 C 36 %
3492 06-12-2019 06:01:17 -0.6 C 35 %
3493 06-12-2019 06:11:17 -0.6 C 36 %
3494 06-12-2019 06:21:17 -0.5 C 36 %
3495 06-12-2019 06:31:17 -0.5 C 35 %
3496 06-12-2019 06:41:17 -0.4 C 36 %
3497 06-12-2019 06:51:18 -0.4 C 37 %
3498 06-12-2019 07:01:17 -0.4 C 38 %
3499 06-12-2019 07:11:17 -0.4 C 38 %
3500 06-12-2019 07:21:17 -0.1 C 37 %
Sensor: Nr:Datum:Temp:Feuchte:
Aussen-T/F 3501 06-12-2019 07:31:17 0 C 36 %
3502 06-12-2019 07:41:17 0.2 C 34 %
3503 06-12-2019 07:51:18 0.4 C 32 %
3504 06-12-2019 08:01:17 0.4 C 32 %
3505 06-12-2019 08:11:17 0.4 C 32 %
3506 06-12-2019 08:21:17 0.4 C 35 %
3507 06-12-2019 08:31:17 0.6 C 32 %
3508 06-12-2019 08:41:17 0.5 C 35 %
3509 06-12-2019 08:51:18 0.5 C 35 %
3510 06-12-2019 09:01:17 0.6 C 36 %
3511 06-12-2019 09:11:17 0.8 C 36 %
3512 06-12-2019 09:21:17 1.2 C 33 %
3513 06-12-2019 09:31:17 1.4 C 33 %
3514 06-12-2019 09:41:17 1.5 C 33 %
3515 06-12-2019 09:51:17 1.7 C 34 %
3516 06-12-2019 10:01:17 1.8 C 33 %
3517 06-12-2019 10:11:17 1.8 C 35 %
3518 06-12-2019 10:21:18 1.9 C 36 %
3519 06-12-2019 10:31:17 1.9 C 36 %
3520 06-12-2019 10:41:17 2.4 C 35 %
3521 06-12-2019 10:51:17 2.5 C 35 %
3522 06-12-2019 11:01:18 2.7 C 35 %
3523 06-12-2019 11:11:18 3.2 C 32 %
3524 06-12-2019 11:21:17 3.3 C 32 %
3525 06-12-2019 11:31:17 3.5 C 32 %
Sensor: Nr:Datum:Temp:Feuchte:
Aussen-T/F 3526 06-12-2019 11:41:17 3.5 C 32 %
3527 06-12-2019 11:51:17 3.5 C 33 %
3528 06-12-2019 12:01:17 3.6 C 33 %
3529 06-12-2019 12:11:17 3.6 C 33 %
3530 06-12-2019 12:21:17 3.6 C 35 %
3531 06-12-2019 12:31:18 3.7 C 37 %
3532 06-12-2019 12:41:18 3.7 C 39 %
3533 06-12-2019 12:51:17 3.7 C 40 %
3534 06-12-2019 13:01:17 3.8 C 39 %
3535 06-12-2019 13:11:17 3.9 C 38 %
3536 06-12-2019 13:21:17 4 C 36 %
3537 06-12-2019 13:31:18 4.2 C 35 %
3538 06-12-2019 13:41:18 4.2 C 35 %
3539 06-12-2019 13:51:17 4.1 C 36 %
3540 06-12-2019 14:01:17 4.1 C 39 %
3541 06-12-2019 14:11:17 4.2 C 40 %
3542 06-12-2019 14:21:17 4.2 C 38 %
3543 06-12-2019 14:31:18 4.2 C 38 %
3544 06-12-2019 14:41:18 4.4 C 38 %
3545 06-12-2019 14:51:17 4.4 C 39 %
3546 06-12-2019 15:01:17 4.3 C 38 %
3547 06-12-2019 15:11:17 4.4 C 38 %
3548 06-12-2019 15:21:17 4.7 C 36 %
3549 06-12-2019 15:31:17 4.5 C 37 %
3550 06-12-2019 15:41:17 4.5 C 37 %
Sensor: Nr:Datum:Temp:Feuchte:
Aussen-T/F 3551 06-12-2019 15:51:18 4.6 C 37 %
3552 06-12-2019 16:01:18 4.8 C 38 %
3553 06-12-2019 16:11:18 5 C 34 %
3554 06-12-2019 16:21:17 5.2 C 32 %
3555 06-12-2019 16:31:17 5.1 C 32 %
3556 06-12-2019 16:41:17 5.3 C 32 %
3557 06-12-2019 16:51:17 5.2 C 31 %
3558 06-12-2019 17:01:17 5.2 C 31 %
3559 06-12-2019 17:11:17 5.3 C 31 %
3560 06-12-2019 17:21:17 5.3 C 30 %
3561 06-12-2019 17:31:18 5.5 C 30 %
3562 06-12-2019 17:41:18 5.6 C 29 %
3563 06-12-2019 17:51:17 5.5 C 30 %
3564 06-12-2019 18:01:17 5.9 C 29 %
3565 06-12-2019 18:11:17 6 C 28 %
3566 06-12-2019 18:21:18 6.2 C 29 %
3567 06-12-2019 18:31:17 6.1 C 28 %
3568 06-12-2019 18:41:17 6.1 C 29 %
3569 06-12-2019 18:51:17 5.9 C 30 %
3570 06-12-2019 19:01:17 5.6 C 31 %
3571 06-12-2019 19:11:17 5.8 C 32 %
3572 06-12-2019 19:21:17 5.9 C 31 %
3573 06-12-2019 19:31:17 6.2 C 30 %
3574 06-12-2019 19:41:17 6.5 C 28 %
3575 06-12-2019 19:51:17 6.5 C 28 %
Sensor: Nr:Datum:Temp:Feuchte:
Aussen-T/F 3576 06-12-2019 20:01:17 6.8 C 28 %
3577 06-12-2019 20:11:17 6.7 C 28 %
3578 06-12-2019 20:21:17 6.8 C 28 %
3579 06-12-2019 20:31:17 6.7 C 28 %
3580 06-12-2019 20:41:17 6.7 C 28 %
3581 06-12-2019 20:51:18 6.7 C 28 %
3582 06-12-2019 21:01:17 6.8 C 27 %
3583 06-12-2019 21:11:17 6.7 C 28 %
3584 06-12-2019 21:21:17 6.7 C 28 %
3585 06-12-2019 21:31:17 6.6 C 28 %
3586 06-12-2019 21:41:17 6.5 C 28 %
3587 06-12-2019 21:51:17 6.5 C 29 %
3588 06-12-2019 22:01:17 6.6 C 29 %
3589 06-12-2019 22:11:17 6.7 C 28 %
3590 06-12-2019 22:21:17 6.7 C 28 %
3591 06-12-2019 22:31:17 6.7 C 28 %
3592 06-12-2019 22:41:17 6.9 C 28 %
3593 06-12-2019 22:51:17 6.9 C 27 %
3594 06-12-2019 23:01:18 7 C 27 %
3595 06-12-2019 23:11:18 6.9 C 28 %
3596 06-12-2019 23:21:17 6.8 C 29 %
3597 06-12-2019 23:31:17 6.8 C 29 %
3598 06-12-2019 23:41:17 6.9 C 29 %
3599 06-12-2019 23:51:18 6.8 C 30 %
3600 07-12-2019 00:01:17 6.9 C 30 %
Sensor: Nr:Datum:Temp:Feuchte:
Aussen-T/F 3601 07-12-2019 00:11:17 7 C 28 %
3602 07-12-2019 00:21:17 7.2 C 28 %
3603 07-12-2019 00:31:17 7.2 C 28 %
3604 07-12-2019 00:41:17 7.2 C 28 %
3605 07-12-2019 00:51:17 7.4 C 28 %
3606 07-12-2019 01:01:17 7.4 C 28 %
3607 07-12-2019 01:11:17 7.6 C 28 %
3608 07-12-2019 01:21:17 7.7 C 28 %
3609 07-12-2019 01:31:18 7.8 C 28 %
3610 07-12-2019 01:41:18 7.6 C 29 %
3611 07-12-2019 01:51:17 7.6 C 29 %
3612 07-12-2019 02:01:17 7.5 C 30 %
3613 07-12-2019 02:11:17 7.7 C 31 %
3614 07-12-2019 02:21:17 7.5 C 31 %
3615 07-12-2019 02:31:17 7.1 C 35 %
3616 07-12-2019 02:41:17 7.2 C 38 %
3617 07-12-2019 02:51:17 7.3 C 35 %
3618 07-12-2019 03:01:17 7.4 C 35 %
3619 07-12-2019 03:11:17 7.6 C 33 %
3620 07-12-2019 03:21:17 8.4 C 30 %
3621 07-12-2019 03:31:17 8.5 C 29 %
3622 07-12-2019 03:41:17 8.7 C 28 %
3623 07-12-2019 03:51:17 9 C 27 %
3624 07-12-2019 04:01:18 8.4 C 29 %
3625 07-12-2019 04:11:18 8.5 C 29 %
Sensor: Nr:Datum:Temp:Feuchte:
Aussen-T/F 3626 07-12-2019 04:21:17 8 C 30 %
3627 07-12-2019 04:31:17 7.9 C 30 %
3628 07-12-2019 04:41:17 8 C 30 %
3629 07-12-2019 04:51:17 8 C 30 %
3630 07-12-2019 05:01:17 7.7 C 30 %
3631 07-12-2019 05:11:17 8 C 30 %
3632 07-12-2019 05:21:17 8 C 30 %
3633 07-12-2019 05:31:17 7.8 C 31 %
3634 07-12-2019 05:41:17 8.2 C 30 %
3635 07-12-2019 05:51:18 7.2 C 31 %
3636 07-12-2019 06:01:18 7.6 C 30 %
3637 07-12-2019 06:11:18 8.7 C 26 %
3638 07-12-2019 06:21:17 8.6 C 26 %
3639 07-12-2019 06:31:18 8.2 C 26 %
3640 07-12-2019 06:41:18 8.1 C 26 %
3641 07-12-2019 06:51:17 7.5 C 27 %
3642 07-12-2019 07:01:17 6.8 C 30 %
3643 07-12-2019 07:11:17 7.1 C 28 %
3644 07-12-2019 07:21:17 7.3 C 27 %
3645 07-12-2019 07:31:17 6.8 C 30 %
3646 07-12-2019 07:41:17 6.3 C 31 %
3647 07-12-2019 07:51:18 7.8 C 28 %
3648 07-12-2019 08:01:18 8 C 27 %
3649 07-12-2019 08:11:18 7.9 C 28 %
3650 07-12-2019 08:21:17 8.1 C 28 %
Sensor: Nr:Datum:Temp:Feuchte:
Aussen-T/F 3651 07-12-2019 08:31:17 8.1 C 27 %
3652 07-12-2019 08:41:17 8.3 C 28 %
3653 07-12-2019 08:51:17 8.4 C 27 %
3654 07-12-2019 09:01:17 8.4 C 27 %
3655 07-12-2019 09:11:17 8.3 C 28 %
3656 07-12-2019 09:21:17 8.2 C 28 %
3657 07-12-2019 09:31:17 8.1 C 29 %
3658 07-12-2019 09:41:17 8.3 C 28 %
3659 07-12-2019 09:51:18 8.6 C 27 %
3660 07-12-2019 10:01:17 8.6 C 27 %
3661 07-12-2019 10:11:17 8.8 C 27 %
3662 07-12-2019 10:21:17 9 C 26 %
3663 07-12-2019 10:31:17 9.1 C 25 %
3664 07-12-2019 10:41:17 9.1 C 26 %
3665 07-12-2019 10:51:18 9.2 C 25 %
3666 07-12-2019 11:01:18 9 C 26 %
3667 07-12-2019 11:11:18 8.4 C 29 %
3668 07-12-2019 11:21:17 8.3 C 30 %
3669 07-12-2019 11:31:17 8.4 C 30 %
3670 07-12-2019 11:41:17 8.5 C 30 %
3671 07-12-2019 11:51:17 8.6 C 28 %
3672 07-12-2019 12:01:17 8.8 C 27 %
3673 07-12-2019 12:11:17 8.9 C 27 %
3674 07-12-2019 12:21:17 9.2 C 25 %
3675 07-12-2019 12:31:18 9.4 C 25 %
Sensor: Nr:Datum:Temp:Feuchte:
Aussen-T/F 3676 07-12-2019 12:41:18 9.5 C 25 %
3677 07-12-2019 12:51:17 9.5 C 25 %
3678 07-12-2019 13:01:17 9.7 C 23 %
3679 07-12-2019 13:11:17 10 C 20 %
3680 07-12-2019 13:21:17 9.8 C 20 %
3681 07-12-2019 13:31:17 9.8 C 20 %
3682 07-12-2019 13:41:17 9.9 C 20 %
3683 07-12-2019 13:51:17 9.9 C 20 %
3684 07-12-2019 14:01:17 9.8 C 20 %
3685 07-12-2019 14:11:17 9.7 C 20 %
3686 07-12-2019 14:21:17 9.9 C 20 %
3687 07-12-2019 14:31:18 9.9 C 20 %
3688 07-12-2019 14:41:18 9.9 C 20 %
3689 07-12-2019 14:51:17 9.9 C 20 %
3690 07-12-2019 15:01:17 9.9 C 20 %
3691 07-12-2019 15:11:17 9.7 C 21 %
3692 07-12-2019 15:21:17 9.6 C 21 %
3693 07-12-2019 15:31:17 9.7 C 21 %
3694 07-12-2019 15:41:17 9.6 C 20 %
3695 07-12-2019 15:51:17 9.4 C 23 %
3696 07-12-2019 16:01:17 9 C 25 %
3697 07-12-2019 16:11:17 8.9 C 25 %
3698 07-12-2019 16:21:18 8.8 C 25 %
3699 07-12-2019 16:31:17 8.6 C 26 %
3700 07-12-2019 16:41:18 8.5 C 26 %
Sensor: Nr:Datum:Temp:Feuchte:
Aussen-T/F 3701 07-12-2019 16:51:17 8.2 C 27 %
3702 07-12-2019 17:01:17 8.1 C 29 %
3703 07-12-2019 17:11:17 8.2 C 28 %
3704 07-12-2019 17:21:17 8.1 C 28 %
3705 07-12-2019 17:31:18 8.2 C 28 %
3706 07-12-2019 17:41:18 8.3 C 27 %
3707 07-12-2019 17:51:17 8.1 C 27 %
3708 07-12-2019 18:01:18 8 C 28 %
3709 07-12-2019 18:11:18 8 C 27 %
3710 07-12-2019 18:21:17 7.8 C 28 %
3711 07-12-2019 18:31:17 7.7 C 29 %
3712 07-12-2019 18:41:17 7.6 C 30 %
3713 07-12-2019 18:51:17 7.6 C 30 %
3714 07-12-2019 19:01:17 7.5 C 31 %
3715 07-12-2019 19:11:17 7.5 C 31 %
3716 07-12-2019 19:21:17 7.5 C 32 %
3717 07-12-2019 19:31:17 7.7 C 31 %
3718 07-12-2019 19:41:17 7.6 C 30 %
3719 07-12-2019 19:51:17 7.7 C 30 %
3720 07-12-2019 20:01:18 7.4 C 30 %
3721 07-12-2019 20:11:18 7.3 C 31 %
3722 07-12-2019 20:21:17 7.3 C 31 %
3723 07-12-2019 20:31:17 7.4 C 30 %
3724 07-12-2019 20:41:17 7.6 C 30 %
3725 07-12-2019 20:51:17 7.6 C 30 %
Sensor: Nr:Datum:Temp:Feuchte:
Aussen-T/F 3726 07-12-2019 21:01:17 7.5 C 30 %
3727 07-12-2019 21:11:17 7.6 C 30 %
3728 07-12-2019 21:21:17 8 C 28 %
3729 07-12-2019 21:31:17 8.1 C 28 %
3730 07-12-2019 21:41:17 8.2 C 28 %
3731 07-12-2019 21:51:17 7.9 C 28 %
3732 07-12-2019 22:01:17 8.2 C 28 %
3733 07-12-2019 22:11:17 8.1 C 27 %
3734 07-12-2019 22:21:17 7.8 C 28 %
3735 07-12-2019 22:31:18 7.7 C 30 %
3736 07-12-2019 22:41:18 7.6 C 30 %
3737 07-12-2019 22:51:17 7.5 C 31 %
3738 07-12-2019 23:01:17 7.4 C 32 %
3739 07-12-2019 23:11:17 7.6 C 31 %
3740 07-12-2019 23:21:17 7.6 C 32 %
3741 07-12-2019 23:31:17 7.5 C 32 %
3742 07-12-2019 23:41:17 7.7 C 31 %
3743 07-12-2019 23:51:18 7.9 C 28 %
3744 08-12-2019 00:01:17 8.1 C 27 %
3745 08-12-2019 00:11:17 8.9 C 23 %
3746 08-12-2019 00:21:17 8.9 C 21 %
3747 08-12-2019 00:31:18 9 C 21 %
3748 08-12-2019 00:41:18 8.9 C 23 %
3749 08-12-2019 00:51:17 8.5 C 25 %
3750 08-12-2019 01:01:18 8.3 C 25 %
Sensor: Nr:Datum:Temp:Feuchte:
Aussen-T/F 3751 08-12-2019 01:11:18 8.5 C 25 %
3752 08-12-2019 01:21:17 8.4 C 26 %
3753 08-12-2019 01:31:17 8.9 C 25 %
3754 08-12-2019 01:41:17 8.8 C 25 %
3755 08-12-2019 01:51:18 9.2 C 20 %
3756 08-12-2019 02:01:17 9.2 C 20 %
3757 08-12-2019 02:11:17 8.9 C 20 %
3758 08-12-2019 02:21:17 9 C 20 %
3759 08-12-2019 02:31:17 9.1 C 20 %
3760 08-12-2019 02:41:18 9 C 20 %
3761 08-12-2019 02:51:17 9.1 C 20 %
3762 08-12-2019 03:01:17 9 C 20 %
3763 08-12-2019 03:11:17 9.1 C 20 %
3764 08-12-2019 03:21:17 9.1 C 20 %
3765 08-12-2019 03:31:17 9.3 C 20 %
3766 08-12-2019 03:41:17 9.3 C 20 %
3767 08-12-2019 03:51:17 9.4 C 20 %
3768 08-12-2019 04:01:17 9.7 C 20 %
3769 08-12-2019 04:11:18 9.6 C 20 %
3770 08-12-2019 04:21:17 9.5 C 20 %
3771 08-12-2019 04:31:17 9.6 C 20 %
3772 08-12-2019 04:41:17 9.6 C 20 %
3773 08-12-2019 04:51:17 9.5 C 20 %
3774 08-12-2019 05:01:17 9.6 C 20 %
3775 08-12-2019 05:11:17 9.5 C 21 %
Sensor: Nr:Datum:Temp:Feuchte:
Aussen-T/F 3776 08-12-2019 05:21:17 9.5 C 21 %
3777 08-12-2019 05:31:17 9.4 C 23 %
3778 08-12-2019 05:41:17 9.5 C 23 %
3779 08-12-2019 05:51:17 9.2 C 25 %
3780 08-12-2019 06:01:17 9.3 C 25 %
3781 08-12-2019 06:11:18 9.5 C 25 %
3782 08-12-2019 06:21:17 9.9 C 21 %
3783 08-12-2019 06:31:17 9.8 C 23 %
3784 08-12-2019 06:41:17 9.7 C 25 %
3785 08-12-2019 06:51:17 9.9 C 23 %
3786 08-12-2019 07:01:18 10 C 21 %
3787 08-12-2019 07:11:18 10.1 C 20 %
3788 08-12-2019 07:21:17 9.9 C 21 %
3789 08-12-2019 07:31:17 10 C 21 %
3790 08-12-2019 07:41:17 10.1 C 20 %
3791 08-12-2019 07:51:17 10 C 20 %
3792 08-12-2019 08:01:17 10 C 20 %
3793 08-12-2019 08:11:17 10.2 C 20 %
3794 08-12-2019 08:21:17 10.1 C 20 %
3795 08-12-2019 08:31:17 10.3 C 21 %
3796 08-12-2019 08:41:17 10.1 C 21 %
3797 08-12-2019 08:51:17 10.3 C 21 %
3798 08-12-2019 09:01:17 10.3 C 21 %
3799 08-12-2019 09:11:17 10.1 C 21 %
3800 08-12-2019 09:21:17 10.2 C 21 %
Sensor: Nr:Datum:Temp:Feuchte:
Aussen-T/F 3801 08-12-2019 09:31:17 10.3 C 21 %
3802 08-12-2019 09:41:17 10.4 C 21 %
3803 08-12-2019 09:51:17 10.4 C 21 %
3804 08-12-2019 10:01:17 10.4 C 21 %
3805 08-12-2019 10:11:17 10.5 C 21 %
3806 08-12-2019 10:21:17 10.5 C 22 %
3807 08-12-2019 10:31:17 10.5 C 22 %
3808 08-12-2019 10:41:17 10.1 C 25 %
3809 08-12-2019 10:51:17 10.2 C 25 %
3810 08-12-2019 11:01:17 10.5 C 25 %
3811 08-12-2019 11:11:17 10.6 C 23 %
3812 08-12-2019 11:21:17 10.8 C 23 %
3813 08-12-2019 11:31:17 10.8 C 23 %
3814 08-12-2019 11:41:17 10.8 C 22 %
3815 08-12-2019 11:51:17 11 C 22 %
3816 08-12-2019 12:01:18 11.1 C 22 %
3817 08-12-2019 12:11:18 11.3 C 22 %
3818 08-12-2019 12:21:17 11.4 C 22 %
3819 08-12-2019 12:31:17 11.4 C 22 %
3820 08-12-2019 12:41:17 11.4 C 23 %
3821 08-12-2019 12:51:17 11.3 C 24 %
3822 08-12-2019 13:01:18 11.5 C 24 %
3823 08-12-2019 13:11:18 11.5 C 22 %
3824 08-12-2019 13:21:17 11.3 C 25 %
3825 08-12-2019 13:31:17 11.1 C 25 %
Sensor: Nr:Datum:Temp:Feuchte:
Aussen-T/F 3826 08-12-2019 13:41:17 11.4 C 25 %
3827 08-12-2019 13:51:17 11.4 C 25 %
3828 08-12-2019 14:01:17 11.5 C 25 %
3829 08-12-2019 14:11:17 11.5 C 25 %
3830 08-12-2019 14:21:17 11.5 C 25 %
3831 08-12-2019 14:31:18 11.7 C 25 %
3832 08-12-2019 14:41:18 11.7 C 25 %
3833 08-12-2019 14:51:17 11.7 C 25 %
3834 08-12-2019 15:01:18 11.8 C 25 %
3835 08-12-2019 15:11:18 11.8 C 25 %
3836 08-12-2019 15:21:18 11.7 C 25 %
3837 08-12-2019 15:31:18 11.7 C 25 %
3838 08-12-2019 15:41:18 11.8 C 25 %
3839 08-12-2019 15:51:17 11.8 C 25 %
3840 08-12-2019 16:01:17 11.7 C 25 %
3841 08-12-2019 16:11:17 11.8 C 25 %
3842 08-12-2019 16:21:18 11.7 C 25 %
3843 08-12-2019 16:31:18 11.6 C 26 %
3844 08-12-2019 16:41:18 11.4 C 27 %
3845 08-12-2019 16:51:17 9.4 C 31 %
3846 08-12-2019 17:01:17 8.9 C 33 %
3847 08-12-2019 17:11:17 8.8 C 33 %
3848 08-12-2019 17:21:17 8.7 C 34 %
3849 08-12-2019 17:31:17 9.2 C 27 %
3850 08-12-2019 17:41:17 8.5 C 33 %
Sensor: Nr:Datum:Temp:Feuchte:
Aussen-T/F 3851 08-12-2019 17:51:17 8.5 C 33 %
3852 08-12-2019 18:01:17 8.5 C 32 %
3853 08-12-2019 18:11:17 8.6 C 31 %
3854 08-12-2019 18:21:17 8.2 C 33 %
3855 08-12-2019 18:31:18 8.5 C 29 %
3856 08-12-2019 18:41:18 8.5 C 29 %
3857 08-12-2019 18:51:17 8.6 C 28 %
3858 08-12-2019 19:01:17 8.9 C 27 %
3859 08-12-2019 19:11:17 8.5 C 28 %
3860 08-12-2019 19:21:17 8.5 C 28 %
3861 08-12-2019 19:31:17 8.6 C 27 %
3862 08-12-2019 19:41:17 8 C 31 %
3863 08-12-2019 19:51:18 7.8 C 33 %
3864 08-12-2019 20:01:17 7.5 C 36 %
3865 08-12-2019 20:11:17 8.1 C 33 %
3866 08-12-2019 20:21:17 8.2 C 30 %
3867 08-12-2019 20:31:17 8.3 C 29 %
3868 08-12-2019 20:41:17 8.5 C 28 %
3869 08-12-2019 20:51:17 8.6 C 26 %
3870 08-12-2019 21:01:18 8.8 C 26 %
3871 08-12-2019 21:11:18 8.9 C 25 %
3872 08-12-2019 21:21:17 8.4 C 26 %
3873 08-12-2019 21:31:17 8.7 C 26 %
3874 08-12-2019 21:41:17 8.4 C 26 %
3875 08-12-2019 21:51:18 8.4 C 26 %
Sensor: Nr:Datum:Temp:Feuchte:
Aussen-T/F 3876 08-12-2019 22:01:17 8.5 C 26 %
3877 08-12-2019 22:11:17 7.9 C 27 %
3878 08-12-2019 22:21:17 8.1 C 26 %
3879 08-12-2019 22:31:17 8.6 C 26 %
3880 08-12-2019 22:41:17 8.8 C 26 %
3881 08-12-2019 22:51:17 8.7 C 25 %
3882 08-12-2019 23:01:17 8.8 C 25 %
3883 08-12-2019 23:11:17 8.7 C 26 %
3884 08-12-2019 23:21:17 8.8 C 25 %
3885 08-12-2019 23:31:18 8.7 C 25 %
3886 08-12-2019 23:41:18 8.5 C 25 %
3887 08-12-2019 23:51:17 8.4 C 21 %
3888 09-12-2019 00:01:18 8.7 C 20 %
3889 09-12-2019 00:11:18 8.1 C 21 %
3890 09-12-2019 00:21:17 8.4 C 21 %
3891 09-12-2019 00:31:17 8.4 C 21 %
3892 09-12-2019 00:41:17 8.5 C 20 %
3893 09-12-2019 00:51:17 8.4 C 20 %
3894 09-12-2019 01:01:17 8.4 C 20 %
3895 09-12-2019 01:11:17 8.5 C 20 %
3896 09-12-2019 01:21:18 8.1 C 20 %
3897 09-12-2019 01:31:17 8 C 20 %
3898 09-12-2019 01:41:17 8.3 C 20 %
3899 09-12-2019 01:51:17 8.2 C 20 %
3900 09-12-2019 02:01:17 7.8 C 20 %
Sensor: Nr:Datum:Temp:Feuchte:
Aussen-T/F 3901 09-12-2019 02:11:17 7.6 C 20 %
3902 09-12-2019 02:21:17 7.4 C 21 %
3903 09-12-2019 02:31:18 7.4 C 21 %
3904 09-12-2019 02:41:18 7.1 C 23 %
3905 09-12-2019 02:51:18 7.5 C 20 %
3906 09-12-2019 03:01:17 7.5 C 20 %
3907 09-12-2019 03:11:17 7.5 C 20 %
3908 09-12-2019 03:21:17 7.5 C 20 %
3909 09-12-2019 03:31:17 7.3 C 20 %
3910 09-12-2019 03:41:17 6.8 C 23 %
3911 09-12-2019 03:51:17 7.3 C 21 %
3912 09-12-2019 04:01:17 7.3 C 20 %
3913 09-12-2019 04:11:17 7.9 C 20 %
3914 09-12-2019 04:21:18 8 C 20 %
3915 09-12-2019 04:31:18 7.6 C 20 %
3916 09-12-2019 04:41:18 7.4 C 21 %
3917 09-12-2019 04:51:17 6.9 C 25 %
3918 09-12-2019 05:01:17 6.9 C 25 %
3919 09-12-2019 05:11:17 7.4 C 20 %
3920 09-12-2019 05:21:17 7.5 C 20 %
3921 09-12-2019 05:31:17 7.4 C 20 %
3922 09-12-2019 05:41:18 7.1 C 20 %
3923 09-12-2019 05:51:17 7.2 C 20 %
3924 09-12-2019 06:01:17 7.4 C 20 %
3925 09-12-2019 06:11:17 7.4 C 20 %
Sensor: Nr:Datum:Temp:Feuchte:
Aussen-T/F 3926 09-12-2019 06:21:17 7.4 C 20 %
3927 09-12-2019 06:31:17 7.6 C 20 %
3928 09-12-2019 06:41:17 7.8 C 20 %
3929 09-12-2019 06:51:18 7.7 C 20 %
3930 09-12-2019 07:01:17 7.6 C 20 %
3931 09-12-2019 07:11:18 7.5 C 20 %
3932 09-12-2019 07:21:17 7.2 C 20 %
3933 09-12-2019 07:31:17 7.2 C 20 %
3934 09-12-2019 07:41:17 7.6 C 20 %
3935 09-12-2019 07:51:18 7.5 C 20 %
3936 09-12-2019 08:01:17 7.9 C 20 %
3937 09-12-2019 08:11:17 7.8 C 20 %
3938 09-12-2019 08:21:17 7.9 C 20 %
3939 09-12-2019 08:31:17 8 C 20 %
3940 09-12-2019 08:41:17 7.9 C 20 %
3941 09-12-2019 08:51:17 7.9 C 20 %
3942 09-12-2019 09:01:17 7.8 C 20 %
3943 09-12-2019 09:11:17 7.9 C 20 %
3944 09-12-2019 09:21:17 7.5 C 20 %
3945 09-12-2019 09:31:17 7.4 C 23 %
3946 09-12-2019 09:41:17 7.5 C 21 %
3947 09-12-2019 09:51:17 7.7 C 21 %
3948 09-12-2019 10:01:17 7.9 C 21 %
3949 09-12-2019 10:11:17 7.9 C 21 %
3950 09-12-2019 10:21:17 7.9 C 20 %
Sensor: Nr:Datum:Temp:Feuchte:
Aussen-T/F 3951 09-12-2019 10:31:18 7.9 C 21 %
3952 09-12-2019 10:41:18 7.9 C 21 %
3953 09-12-2019 10:51:17 8.1 C 20 %
3954 09-12-2019 11:01:17 8 C 20 %
3955 09-12-2019 11:11:17 8.2 C 20 %
3956 09-12-2019 11:21:17 8.4 C 20 %
3957 09-12-2019 11:31:18 8.4 C 20 %
3958 09-12-2019 11:41:18 8.3 C 20 %
3959 09-12-2019 11:51:17 8.1 C 20 %
3960 09-12-2019 12:01:17 8.2 C 20 %
3961 09-12-2019 12:11:17 8 C 20 %
3962 09-12-2019 12:21:18 8.1 C 20 %
3963 09-12-2019 12:31:17 8.3 C 20 %
3964 09-12-2019 12:41:17 8.2 C 20 %
3965 09-12-2019 12:51:17 8.3 C 20 %
3966 09-12-2019 13:01:18 8.3 C 20 %
3967 09-12-2019 13:11:18 8.3 C 20 %
3968 09-12-2019 13:21:17 8.2 C 20 %
3969 09-12-2019 13:31:17 8.1 C 20 %
3970 09-12-2019 13:41:17 8.5 C 20 %
3971 09-12-2019 13:51:17 8.8 C 20 %
3972 09-12-2019 14:01:17 8.6 C 20 %
3973 09-12-2019 14:11:17 8.5 C 20 %
3974 09-12-2019 14:21:17 8.6 C 20 %
3975 09-12-2019 14:31:17 8.4 C 20 %
Sensor: Nr:Datum:Temp:Feuchte:
Aussen-T/F 3976 09-12-2019 14:41:17 7.9 C 20 %
3977 09-12-2019 14:51:18 8.4 C 20 %
3978 09-12-2019 15:01:17 7.9 C 20 %
3979 09-12-2019 15:11:17 7.3 C 25 %
3980 09-12-2019 15:21:17 7 C 27 %
3981 09-12-2019 15:31:18 7.1 C 26 %
3982 09-12-2019 15:41:18 7.1 C 25 %
3983 09-12-2019 15:51:17 7.4 C 23 %
3984 09-12-2019 16:01:18 7.5 C 20 %
3985 09-12-2019 16:11:18 7.5 C 20 %
3986 09-12-2019 16:21:17 7.6 C 20 %
3987 09-12-2019 16:31:18 7.3 C 20 %
3988 09-12-2019 16:41:18 7.4 C 20 %
3989 09-12-2019 16:51:17 7.3 C 20 %
3990 09-12-2019 17:01:18 7.1 C 20 %
3991 09-12-2019 17:11:18 7.2 C 20 %
3992 09-12-2019 17:21:17 6.7 C 25 %
3993 09-12-2019 17:31:17 6.1 C 32 %
3994 09-12-2019 17:41:17 5.9 C 36 %
3995 09-12-2019 17:51:17 6 C 34 %
3996 09-12-2019 18:01:18 6 C 30 %
3997 09-12-2019 18:11:18 6.1 C 31 %
3998 09-12-2019 18:21:17 6 C 33 %
3999 09-12-2019 18:31:17 5.8 C 35 %
4000 09-12-2019 18:41:17 5.7 C 37 %
Sensor: Nr:Datum:Temp:Feuchte:
Aussen-T/F 4001 09-12-2019 18:51:18 5.7 C 38 %
4002 09-12-2019 19:01:17 5.6 C 35 %
4003 09-12-2019 19:11:17 5.5 C 38 %
4004 09-12-2019 19:21:17 5.6 C 39 %
4005 09-12-2019 19:31:17 5.6 C 38 %
4006 09-12-2019 19:41:17 5.6 C 38 %
4007 09-12-2019 19:51:17 5.6 C 37 %
4008 09-12-2019 20:01:17 5.6 C 35 %
4009 09-12-2019 20:11:17 5.6 C 34 %
4010 09-12-2019 20:21:17 5.6 C 35 %
4011 09-12-2019 20:31:17 5.6 C 32 %
4012 09-12-2019 20:41:17 5.4 C 33 %
4013 09-12-2019 20:51:17 5.3 C 34 %
4014 09-12-2019 21:01:17 5.2 C 33 %
4015 09-12-2019 21:11:18 5.1 C 34 %
4016 09-12-2019 21:21:17 5.2 C 35 %
4017 09-12-2019 21:31:17 5.3 C 32 %
4018 09-12-2019 21:41:17 5.1 C 31 %
4019 09-12-2019 21:51:17 5 C 31 %
4020 09-12-2019 22:01:17 4.8 C 32 %
4021 09-12-2019 22:11:17 4.7 C 31 %
4022 09-12-2019 22:21:17 4.9 C 30 %
4023 09-12-2019 22:31:17 4.9 C 30 %
4024 09-12-2019 22:41:17 4.9 C 30 %
4025 09-12-2019 22:51:18 4.7 C 30 %
Sensor: Nr:Datum:Temp:Feuchte:
Aussen-T/F 4026 09-12-2019 23:01:17 4.6 C 29 %
4027 09-12-2019 23:11:17 4.5 C 29 %
4028 09-12-2019 23:21:17 4.1 C 30 %
4029 09-12-2019 23:31:18 4 C 30 %
4030 09-12-2019 23:41:18 4.1 C 29 %
4031 09-12-2019 23:51:17 4.1 C 29 %
4032 10-12-2019 00:01:17 3.7 C 30 %
4033 10-12-2019 00:11:17 4.1 C 28 %
4034 10-12-2019 00:21:17 3.4 C 30 %
4035 10-12-2019 00:31:17 3.6 C 30 %
4036 10-12-2019 00:41:17 3.1 C 31 %
4037 10-12-2019 00:51:17 3 C 31 %
4038 10-12-2019 01:01:17 2.4 C 33 %
4039 10-12-2019 01:11:17 2.4 C 36 %
4040 10-12-2019 01:21:17 2.5 C 36 %
4041 10-12-2019 01:31:18 2.8 C 34 %
4042 10-12-2019 01:41:18 2.4 C 34 %
4043 10-12-2019 01:51:17 2.4 C 33 %
4044 10-12-2019 02:01:18 2.7 C 33 %
4045 10-12-2019 02:11:18 2.9 C 32 %
4046 10-12-2019 02:21:17 2.3 C 33 %
4047 10-12-2019 02:31:17 2.1 C 35 %
4048 10-12-2019 02:41:17 1.7 C 37 %
4049 10-12-2019 02:51:17 1.6 C 39 %
4050 10-12-2019 03:01:17 1.8 C 40 %
Sensor: Nr:Datum:Temp:Feuchte:
Aussen-T/F 4051 10-12-2019 03:11:17 1.8 C 40 %
4052 10-12-2019 03:21:17 1.8 C 40 %
4053 10-12-2019 03:31:17 2 C 40 %
4054 10-12-2019 03:41:17 1.4 C 41 %
4055 10-12-2019 03:51:17 1.4 C 43 %
4056 10-12-2019 04:01:17 1.1 C 43 %
4057 10-12-2019 04:11:17 1.3 C 41 %
4058 10-12-2019 04:21:17 0.6 C 41 %
4059 10-12-2019 04:31:18 0.6 C 44 %
4060 10-12-2019 04:41:18 0.7 C 45 %
4061 10-12-2019 04:51:17 0.9 C 46 %
4062 10-12-2019 05:01:17 1.1 C 44 %
4063 10-12-2019 05:11:17 1.8 C 41 %
4064 10-12-2019 05:21:18 2.2 C 35 %
4065 10-12-2019 05:31:18 2 C 35 %
4066 10-12-2019 05:41:18 2 C 35 %
4067 10-12-2019 05:51:17 1.8 C 36 %
4068 10-12-2019 06:01:17 1.5 C 36 %
4069 10-12-2019 06:11:17 1.6 C 37 %
4070 10-12-2019 06:21:18 1.4 C 36 %
4071 10-12-2019 06:31:17 1.1 C 38 %
4072 10-12-2019 06:41:17 0.9 C 42 %
4073 10-12-2019 06:51:17 1.2 C 42 %
4074 10-12-2019 07:01:18 1.3 C 40 %
4075 10-12-2019 07:11:18 1.5 C 40 %
Sensor: Nr:Datum:Temp:Feuchte:
Aussen-T/F 4076 10-12-2019 07:21:17 1.7 C 36 %
4077 10-12-2019 07:31:17 1.2 C 37 %
4078 10-12-2019 07:41:17 0.8 C 41 %
4079 10-12-2019 07:51:17 0.8 C 41 %
4080 10-12-2019 08:01:17 0.7 C 41 %
4081 10-12-2019 08:11:17 0.8 C 41 %
4082 10-12-2019 08:21:17 0.4 C 42 %
4083 10-12-2019 08:31:18 0.6 C 42 %
4084 10-12-2019 08:41:18 0.4 C 42 %
4085 10-12-2019 08:51:17 0.4 C 43 %
4086 10-12-2019 09:01:17 0.1 C 42 %
4087 10-12-2019 09:11:17 0.5 C 44 %
4088 10-12-2019 09:21:17 0.8 C 44 %
4089 10-12-2019 09:31:17 1.4 C 42 %
4090 10-12-2019 09:41:17 1.7 C 39 %
4091 10-12-2019 09:51:17 1.8 C 39 %
4092 10-12-2019 10:01:17 2.2 C 36 %
4093 10-12-2019 10:11:17 2.5 C 35 %
4094 10-12-2019 10:21:17 2.7 C 33 %
4095 10-12-2019 10:31:17 2.7 C 33 %
4096 10-12-2019 10:41:17 2.5 C 33 %
4097 10-12-2019 10:51:17 2.4 C 35 %
4098 10-12-2019 11:01:17 2.4 C 34 %
4099 10-12-2019 11:11:17 2.5 C 34 %
4100 10-12-2019 11:21:17 2.3 C 35 %
Sensor: Nr:Datum:Temp:Feuchte:
Aussen-T/F 4101 10-12-2019 11:31:18 2.2 C 36 %
4102 10-12-2019 11:41:18 2.9 C 34 %
4103 10-12-2019 11:51:17 3.5 C 30 %
4104 10-12-2019 12:01:17 3.7 C 30 %
4105 10-12-2019 12:11:17 3.8 C 30 %
4106 10-12-2019 12:21:17 3.9 C 30 %
4107 10-12-2019 12:31:17 3.9 C 30 %
4108 10-12-2019 12:41:17 4.3 C 27 %
4109 10-12-2019 12:51:17 4.5 C 27 %
4110 10-12-2019 13:01:17 4.6 C 27 %
4111 10-12-2019 13:11:17 4.7 C 27 %
4112 10-12-2019 13:21:17 4.7 C 27 %
4113 10-12-2019 13:31:17 4.9 C 27 %
4114 10-12-2019 13:41:17 5.1 C 25 %
4115 10-12-2019 13:51:17 5 C 25 %
4116 10-12-2019 14:01:17 4.6 C 27 %
4117 10-12-2019 14:11:17 4.2 C 28 %
4118 10-12-2019 14:21:17 3.8 C 30 %
4119 10-12-2019 14:31:18 3.9 C 30 %
4120 10-12-2019 14:41:18 3.8 C 30 %
4121 10-12-2019 14:51:17 3.5 C 30 %
4122 10-12-2019 15:01:17 3.5 C 30 %
4123 10-12-2019 15:11:17 3.3 C 31 %
4124 10-12-2019 15:21:17 3.2 C 31 %
4125 10-12-2019 15:31:17 3.1 C 31 %
Sensor: Nr:Datum:Temp:Feuchte:
Aussen-T/F 4126 10-12-2019 15:41:18 3.2 C 31 %
4127 10-12-2019 15:51:17 2.9 C 31 %
4128 10-12-2019 16:01:17 2.4 C 32 %
4129 10-12-2019 16:11:17 3.1 C 31 %
4130 10-12-2019 16:21:17 3.4 C 30 %
4131 10-12-2019 16:31:17 3.5 C 28 %
4132 10-12-2019 16:41:17 3.3 C 28 %
4133 10-12-2019 16:51:17 3.3 C 26 %
4134 10-12-2019 17:01:17 2.8 C 27 %
4135 10-12-2019 17:11:17 2.7 C 27 %
4136 10-12-2019 17:21:18 2.7 C 27 %
4137 10-12-2019 17:31:17 2.7 C 27 %
4138 10-12-2019 17:41:17 2.6 C 27 %
4139 10-12-2019 17:51:17 2.4 C 28 %
4140 10-12-2019 18:01:17 2.3 C 27 %
4141 10-12-2019 18:11:17 1.7 C 31 %
4142 10-12-2019 18:21:17 1.9 C 32 %
4143 10-12-2019 18:31:17 1.8 C 33 %
4144 10-12-2019 18:41:17 1.7 C 34 %
4145 10-12-2019 18:51:17 1.6 C 35 %
4146 10-12-2019 19:01:17 1.5 C 36 %
4147 10-12-2019 19:11:17 1.5 C 36 %
4148 10-12-2019 19:21:17 1.6 C 36 %
4149 10-12-2019 19:31:17 1.5 C 36 %
4150 10-12-2019 19:41:18 1.7 C 36 %
Sensor: Nr:Datum:Temp:Feuchte:
Aussen-T/F 4151 10-12-2019 19:51:17 1.7 C 35 %
4152 10-12-2019 20:01:17 2.2 C 32 %
4153 10-12-2019 20:11:17 2.1 C 32 %
4154 10-12-2019 20:21:17 2.7 C 29 %
4155 10-12-2019 20:31:18 2.9 C 28 %
4156 10-12-2019 20:41:18 2.6 C 30 %
4157 10-12-2019 20:51:17 2.3 C 30 %
4158 10-12-2019 21:01:17 2.5 C 31 %
4159 10-12-2019 21:11:17 2.3 C 31 %
4160 10-12-2019 21:21:17 2.1 C 32 %
4161 10-12-2019 21:31:17 2 C 33 %
4162 10-12-2019 21:41:18 1.8 C 35 %
4163 10-12-2019 21:51:17 1.8 C 36 %
4164 10-12-2019 22:01:17 1.8 C 36 %
4165 10-12-2019 22:11:17 2.1 C 35 %
4166 10-12-2019 22:21:17 2.2 C 34 %
4167 10-12-2019 22:31:17 2.4 C 32 %
4168 10-12-2019 22:41:17 2.5 C 33 %
4169 10-12-2019 22:51:18 2.8 C 31 %
4170 10-12-2019 23:01:17 2.9 C 30 %
4171 10-12-2019 23:11:17 3 C 30 %
4172 10-12-2019 23:21:17 3 C 30 %
4173 10-12-2019 23:31:17 2.9 C 31 %
4174 10-12-2019 23:41:17 3.3 C 28 %
4175 10-12-2019 23:51:17 3.3 C 30 %
Sensor: Nr:Datum:Temp:Feuchte:
G-T/H 1 12-11-2019 00:09:17 10.1 C 72 %
2 12-11-2019 00:19:17 10.1 C 72 %
3 12-11-2019 00:29:17 10.1 C 72 %
4 12-11-2019 00:39:17 10.1 C 72 %
5 12-11-2019 00:49:17 10.1 C 72 %
6 12-11-2019 00:59:17 10.1 C 72 %
7 12-11-2019 01:09:17 10.1 C 72 %
8 12-11-2019 01:19:17 10.1 C 72 %
9 12-11-2019 01:29:17 10.1 C 72 %
10 12-11-2019 01:39:17 10 C 72 %
11 12-11-2019 01:49:17 10.1 C 72 %
12 12-11-2019 01:59:17 10.1 C 72 %
13 12-11-2019 02:09:17 10.1 C 72 %
14 12-11-2019 02:19:17 10 C 72 %
15 12-11-2019 02:29:17 10.1 C 72 %
16 12-11-2019 02:39:17 10.1 C 72 %
17 12-11-2019 02:49:17 10.1 C 72 %
18 12-11-2019 02:59:17 10 C 72 %
19 12-11-2019 03:09:17 10.1 C 72 %
20 12-11-2019 03:19:17 10 C 72 %
21 12-11-2019 03:29:17 10 C 72 %
22 12-11-2019 03:39:17 10 C 72 %
23 12-11-2019 03:49:17 10 C 72 %
24 12-11-2019 03:59:17 10 C 72 %
25 12-11-2019 04:09:17 10 C 72 %
Sensor: Nr:Datum:Temp:Feuchte:
G-T/H 26 12-11-2019 04:19:17 10 C 72 %
27 12-11-2019 04:29:17 10 C 72 %
28 12-11-2019 04:39:17 10 C 72 %
29 12-11-2019 04:49:17 10.1 C 72 %
30 12-11-2019 04:59:17 10 C 72 %
31 12-11-2019 05:09:17 10 C 72 %
32 12-11-2019 05:19:17 10.1 C 72 %
33 12-11-2019 05:29:17 10 C 72 %
34 12-11-2019 05:39:17 10 C 72 %
35 12-11-2019 05:49:17 10 C 72 %
36 12-11-2019 05:59:17 10 C 72 %
37 12-11-2019 06:09:17 10 C 72 %
38 12-11-2019 06:19:18 10 C 72 %
39 12-11-2019 06:29:18 10 C 72 %
40 12-11-2019 06:39:17 10 C 72 %
41 12-11-2019 06:49:17 10 C 72 %
42 12-11-2019 06:59:17 10 C 72 %
43 12-11-2019 07:09:17 10 C 72 %
44 12-11-2019 07:19:17 10 C 72 %
45 12-11-2019 07:29:17 10 C 72 %
46 12-11-2019 07:39:17 10 C 72 %
47 12-11-2019 07:49:17 10 C 72 %
48 12-11-2019 07:59:17 10 C 72 %
49 12-11-2019 08:09:17 10 C 72 %
50 12-11-2019 08:19:17 10 C 72 %
Sensor: Nr:Datum:Temp:Feuchte:
G-T/H 51 12-11-2019 08:29:17 10 C 72 %
52 12-11-2019 08:39:17 10 C 72 %
53 12-11-2019 08:49:17 10 C 72 %
54 12-11-2019 08:59:17 10 C 72 %
55 12-11-2019 09:09:17 10 C 72 %
56 12-11-2019 09:19:17 10 C 72 %
57 12-11-2019 09:29:17 10 C 72 %
58 12-11-2019 09:39:17 10 C 72 %
59 12-11-2019 09:49:17 10 C 72 %
60 12-11-2019 09:59:17 10 C 72 %
61 12-11-2019 10:09:17 10 C 72 %
62 12-11-2019 10:19:17 10 C 72 %
63 12-11-2019 10:29:17 10 C 72 %
64 12-11-2019 10:39:17 10 C 72 %
65 12-11-2019 10:49:17 10 C 72 %
66 12-11-2019 10:59:17 10.1 C 72 %
67 12-11-2019 11:09:17 10.1 C 72 %
68 12-11-2019 11:19:17 10.1 C 72 %
69 12-11-2019 11:29:17 10.1 C 72 %
70 12-11-2019 11:39:17 10.1 C 73 %
71 12-11-2019 11:49:17 10.1 C 73 %
72 12-11-2019 11:59:17 10.1 C 73 %
73 12-11-2019 12:09:17 10.1 C 73 %
74 12-11-2019 12:19:17 10.1 C 73 %
75 12-11-2019 12:29:17 10.1 C 73 %
Sensor: Nr:Datum:Temp:Feuchte:
G-T/H 76 12-11-2019 12:39:17 10.1 C 73 %
77 12-11-2019 12:49:17 10.1 C 73 %
78 12-11-2019 12:59:17 10.1 C 73 %
79 12-11-2019 13:09:17 10.1 C 73 %
80 12-11-2019 13:19:17 10.2 C 73 %
81 12-11-2019 13:29:17 10.1 C 73 %
82 12-11-2019 13:39:17 10.2 C 73 %
83 12-11-2019 13:49:17 10.2 C 73 %
84 12-11-2019 13:59:17 10.2 C 73 %
85 12-11-2019 14:09:17 10.2 C 73 %
86 12-11-2019 14:19:17 10.2 C 73 %
87 12-11-2019 14:29:17 10.2 C 73 %
88 12-11-2019 14:39:17 10.2 C 73 %
89 12-11-2019 14:49:17 10.2 C 73 %
90 12-11-2019 14:59:17 10.2 C 73 %
91 12-11-2019 15:09:17 10.2 C 73 %
92 12-11-2019 15:19:17 10.2 C 73 %
93 12-11-2019 15:29:17 10.2 C 73 %
94 12-11-2019 15:39:17 10.2 C 73 %
95 12-11-2019 15:49:17 10.2 C 73 %
96 12-11-2019 15:59:17 10.2 C 73 %
97 12-11-2019 16:09:17 10.2 C 73 %
98 12-11-2019 16:19:17 10.2 C 73 %
99 12-11-2019 16:29:17 10.3 C 73 %
100 12-11-2019 16:39:17 10.3 C 73 %
Sensor: Nr:Datum:Temp:Feuchte:
G-T/H 101 12-11-2019 16:49:17 10.3 C 73 %
102 12-11-2019 16:59:17 10.3 C 73 %
103 12-11-2019 17:09:17 10.4 C 73 %
104 12-11-2019 17:19:17 10.3 C 73 %
105 12-11-2019 17:29:17 10.3 C 73 %
106 12-11-2019 17:39:17 10.3 C 73 %
107 12-11-2019 17:49:17 10.4 C 73 %
108 12-11-2019 17:59:17 10.3 C 73 %
109 12-11-2019 18:09:17 10.3 C 73 %
110 12-11-2019 18:19:17 10.3 C 73 %
111 12-11-2019 18:29:17 10.3 C 73 %
112 12-11-2019 18:39:17 10.3 C 73 %
113 12-11-2019 18:49:17 10.4 C 73 %
114 12-11-2019 18:59:17 10.3 C 73 %
115 12-11-2019 19:09:18 10.3 C 73 %
116 12-11-2019 19:19:17 10.3 C 73 %
117 12-11-2019 19:29:17 10.3 C 73 %
118 12-11-2019 19:39:17 10.3 C 73 %
119 12-11-2019 19:49:18 10.3 C 72 %
120 12-11-2019 19:59:18 10.2 C 72 %
121 12-11-2019 20:09:17 10.2 C 72 %
122 12-11-2019 20:19:17 10.2 C 72 %
123 12-11-2019 20:29:17 10.2 C 71 %
124 12-11-2019 20:39:17 10.2 C 71 %
125 12-11-2019 20:49:17 10.2 C 71 %
Sensor: Nr:Datum:Temp:Feuchte:
G-T/H 126 12-11-2019 20:59:17 10.2 C 71 %
127 12-11-2019 21:09:17 10.2 C 71 %
128 12-11-2019 21:19:17 10.1 C 71 %
129 12-11-2019 21:29:17 10.1 C 71 %
130 12-11-2019 21:39:17 10.1 C 70 %
131 12-11-2019 21:49:17 10.1 C 70 %
132 12-11-2019 21:59:17 10.1 C 70 %
133 12-11-2019 22:09:17 10.1 C 70 %
134 12-11-2019 22:19:17 10.1 C 70 %
135 12-11-2019 22:29:17 10.1 C 70 %
136 12-11-2019 22:39:17 10.1 C 70 %
137 12-11-2019 22:49:17 10 C 70 %
138 12-11-2019 22:59:17 10 C 70 %
139 12-11-2019 23:09:17 10.1 C 70 %
140 12-11-2019 23:19:17 10.1 C 70 %
141 12-11-2019 23:29:17 10.1 C 70 %
142 12-11-2019 23:39:17 10.1 C 70 %
143 12-11-2019 23:49:17 10 C 71 %
144 12-11-2019 23:59:17 10.1 C 71 %
145 13-11-2019 00:09:17 10.1 C 71 %
146 13-11-2019 00:19:17 10.1 C 71 %
147 13-11-2019 00:29:17 10.1 C 71 %
148 13-11-2019 00:39:17 10.1 C 71 %
149 13-11-2019 00:49:17 10.1 C 71 %
150 13-11-2019 00:59:17 10.1 C 71 %
Sensor: Nr:Datum:Temp:Feuchte:
G-T/H 151 13-11-2019 01:09:17 10.1 C 71 %
152 13-11-2019 01:19:17 10.1 C 71 %
153 13-11-2019 01:29:17 10 C 71 %
154 13-11-2019 01:39:17 10 C 71 %
155 13-11-2019 01:49:17 10 C 71 %
156 13-11-2019 01:59:17 10 C 71 %
157 13-11-2019 02:09:17 10 C 71 %
158 13-11-2019 02:19:17 10 C 71 %
159 13-11-2019 02:29:17 10 C 71 %
160 13-11-2019 02:39:17 10 C 71 %
161 13-11-2019 02:49:17 10 C 71 %
162 13-11-2019 02:59:17 10 C 71 %
163 13-11-2019 03:09:17 10 C 71 %
164 13-11-2019 03:19:17 10 C 71 %
165 13-11-2019 03:29:17 10 C 71 %
166 13-11-2019 03:39:17 10 C 71 %
167 13-11-2019 03:49:17 9.9 C 72 %
168 13-11-2019 03:59:17 9.9 C 72 %
169 13-11-2019 04:09:17 9.9 C 72 %
170 13-11-2019 04:19:17 10 C 71 %
171 13-11-2019 04:29:17 10 C 71 %
172 13-11-2019 04:39:17 9.9 C 72 %
173 13-11-2019 04:49:17 10 C 71 %
174 13-11-2019 04:59:17 10 C 71 %
175 13-11-2019 05:09:17 10 C 71 %
Sensor: Nr:Datum:Temp:Feuchte:
G-T/H 176 13-11-2019 05:19:17 9.9 C 72 %
177 13-11-2019 05:29:17 9.9 C 73 %
178 13-11-2019 05:39:17 9.9 C 73 %
179 13-11-2019 05:49:17 9.9 C 73 %
180 13-11-2019 05:59:17 9.9 C 73 %
181 13-11-2019 06:09:17 9.9 C 73 %
182 13-11-2019 06:19:17 9.9 C 73 %
183 13-11-2019 06:29:17 9.9 C 73 %
184 13-11-2019 06:39:17 9.9 C 73 %
185 13-11-2019 06:49:17 9.9 C 73 %
186 13-11-2019 06:59:17 9.9 C 73 %
187 13-11-2019 07:09:17 9.8 C 73 %
188 13-11-2019 07:19:17 9.8 C 73 %
189 13-11-2019 07:29:17 9.9 C 73 %
190 13-11-2019 07:39:17 9.9 C 73 %
191 13-11-2019 07:49:17 9.8 C 73 %
192 13-11-2019 07:59:17 9.8 C 73 %
193 13-11-2019 08:09:17 9.8 C 73 %
194 13-11-2019 08:19:17 9.8 C 73 %
195 13-11-2019 08:29:17 9.8 C 73 %
196 13-11-2019 08:39:17 9.8 C 73 %
197 13-11-2019 08:49:17 9.8 C 73 %
198 13-11-2019 08:59:17 9.8 C 73 %
199 13-11-2019 09:09:17 9.8 C 73 %
200 13-11-2019 09:19:17 9.8 C 73 %
Sensor: Nr:Datum:Temp:Feuchte:
G-T/H 201 13-11-2019 09:29:17 9.8 C 73 %
202 13-11-2019 09:39:17 9.8 C 73 %
203 13-11-2019 09:49:17 9.8 C 73 %
204 13-11-2019 09:59:17 9.8 C 73 %
205 13-11-2019 10:09:17 9.8 C 73 %
206 13-11-2019 10:19:17 9.8 C 73 %
207 13-11-2019 10:29:17 9.8 C 73 %
208 13-11-2019 10:39:17 9.8 C 73 %
209 13-11-2019 10:49:17 9.9 C 73 %
210 13-11-2019 10:59:17 9.8 C 73 %
211 13-11-2019 11:09:17 9.8 C 73 %
212 13-11-2019 11:19:17 9.8 C 73 %
213 13-11-2019 11:29:17 9.9 C 73 %
214 13-11-2019 11:39:17 9.9 C 73 %
215 13-11-2019 11:49:17 9.9 C 73 %
216 13-11-2019 11:59:17 9.9 C 73 %
217 13-11-2019 12:09:17 10 C 72 %
218 13-11-2019 12:19:17 9.9 C 73 %
219 13-11-2019 12:29:17 9.9 C 73 %
220 13-11-2019 12:39:17 9.9 C 73 %
221 13-11-2019 12:49:17 10 C 72 %
222 13-11-2019 12:59:17 10 C 72 %
223 13-11-2019 13:09:17 10 C 72 %
224 13-11-2019 13:19:17 10 C 72 %
225 13-11-2019 13:29:17 10 C 72 %
Sensor: Nr:Datum:Temp:Feuchte:
G-T/H 226 13-11-2019 13:39:17 10 C 72 %
227 13-11-2019 13:49:17 10 C 72 %
228 13-11-2019 13:59:17 10 C 72 %
229 13-11-2019 14:09:17 10 C 72 %
230 13-11-2019 14:19:17 10 C 72 %
231 13-11-2019 14:29:17 10 C 72 %
232 13-11-2019 14:39:17 10 C 72 %
233 13-11-2019 14:49:17 10 C 72 %
234 13-11-2019 14:59:17 10 C 72 %
235 13-11-2019 15:09:17 10 C 72 %
236 13-11-2019 15:19:17 10 C 72 %
237 13-11-2019 15:29:17 10.1 C 72 %
238 13-11-2019 15:39:17 10.1 C 73 %
239 13-11-2019 15:49:17 10.1 C 73 %
240 13-11-2019 15:59:17 10.1 C 73 %
241 13-11-2019 16:09:17 10.1 C 73 %
242 13-11-2019 16:19:17 10.1 C 73 %
243 13-11-2019 16:29:17 10.1 C 73 %
244 13-11-2019 16:39:17 10.1 C 73 %
245 13-11-2019 16:49:17 10.1 C 72 %
246 13-11-2019 16:59:17 10.1 C 72 %
247 13-11-2019 17:09:17 10.1 C 72 %
248 13-11-2019 17:19:17 10.1 C 72 %
249 13-11-2019 17:29:17 10.1 C 72 %
250 13-11-2019 17:39:17 10.1 C 73 %
Sensor: Nr:Datum:Temp:Feuchte:
G-T/H 251 13-11-2019 17:49:17 10.1 C 73 %
252 13-11-2019 17:59:17 10.1 C 73 %
253 13-11-2019 18:09:17 10.1 C 73 %
254 13-11-2019 18:19:17 10.2 C 73 %
255 13-11-2019 18:29:17 10.2 C 73 %
256 13-11-2019 18:39:17 10.1 C 73 %
257 13-11-2019 18:49:17 10.2 C 73 %
258 13-11-2019 18:59:17 10.2 C 73 %
259 13-11-2019 19:09:18 10.2 C 73 %
260 13-11-2019 19:19:17 10.2 C 73 %
261 13-11-2019 19:29:17 10.2 C 73 %
262 13-11-2019 19:39:17 10.2 C 73 %
263 13-11-2019 19:49:17 10.2 C 73 %
264 13-11-2019 19:59:17 10.2 C 73 %
265 13-11-2019 20:09:17 10.2 C 73 %
266 13-11-2019 20:19:17 10.2 C 73 %
267 13-11-2019 20:29:17 10.2 C 73 %
268 13-11-2019 20:39:17 10.2 C 73 %
269 13-11-2019 20:49:17 10.2 C 73 %
270 13-11-2019 20:59:17 10.2 C 73 %
271 13-11-2019 21:09:17 10.2 C 73 %
272 13-11-2019 21:19:17 10.2 C 73 %
273 13-11-2019 21:29:17 10.2 C 73 %
274 13-11-2019 21:39:17 10.2 C 73 %
275 13-11-2019 21:49:17 10.2 C 73 %
Sensor: Nr:Datum:Temp:Feuchte:
G-T/H 276 13-11-2019 21:59:17 10.2 C 73 %
277 13-11-2019 22:09:17 10.2 C 73 %
278 13-11-2019 22:19:17 10.2 C 73 %
279 13-11-2019 22:29:17 10.2 C 73 %
280 13-11-2019 22:39:17 10.2 C 73 %
281 13-11-2019 22:49:17 10.2 C 73 %
282 13-11-2019 22:59:17 10.1 C 73 %
283 13-11-2019 23:09:17 10.2 C 73 %
284 13-11-2019 23:19:17 10.2 C 73 %
285 13-11-2019 23:29:17 10.1 C 73 %
286 13-11-2019 23:39:17 10.1 C 72 %
287 13-11-2019 23:49:17 10.1 C 72 %
288 13-11-2019 23:59:17 10.1 C 72 %
289 14-11-2019 00:09:17 10.1 C 72 %
290 14-11-2019 00:19:17 10.1 C 72 %
291 14-11-2019 00:29:17 10.1 C 71 %
292 14-11-2019 00:39:17 10 C 71 %
293 14-11-2019 00:49:17 10.1 C 71 %
294 14-11-2019 00:59:17 10.1 C 71 %
295 14-11-2019 01:09:17 10 C 71 %
296 14-11-2019 01:19:17 10 C 71 %
297 14-11-2019 01:29:17 10 C 71 %
298 14-11-2019 01:39:17 10 C 71 %
299 14-11-2019 01:49:17 10 C 71 %
300 14-11-2019 01:59:17 10 C 70 %
Sensor: Nr:Datum:Temp:Feuchte:
G-T/H 301 14-11-2019 02:09:17 10 C 70 %
302 14-11-2019 02:19:17 10 C 70 %
303 14-11-2019 02:29:17 9.9 C 71 %
304 14-11-2019 02:39:17 9.9 C 71 %
305 14-11-2019 02:49:17 9.9 C 71 %
306 14-11-2019 02:59:17 9.9 C 71 %
307 14-11-2019 03:09:17 9.9 C 71 %
308 14-11-2019 03:19:17 9.9 C 71 %
309 14-11-2019 03:29:17 9.9 C 71 %
310 14-11-2019 03:39:17 9.9 C 71 %
311 14-11-2019 03:49:17 9.9 C 71 %
312 14-11-2019 03:59:17 9.9 C 71 %
313 14-11-2019 04:09:17 9.9 C 71 %
314 14-11-2019 04:19:17 9.9 C 71 %
315 14-11-2019 04:29:17 9.9 C 71 %
316 14-11-2019 04:39:17 9.9 C 71 %
317 14-11-2019 04:49:17 9.9 C 71 %
318 14-11-2019 04:59:17 9.9 C 72 %
319 14-11-2019 05:09:17 10 C 71 %
320 14-11-2019 05:19:17 9.9 C 72 %
321 14-11-2019 05:29:17 9.9 C 72 %
322 14-11-2019 05:39:18 9.9 C 72 %
323 14-11-2019 05:49:17 9.9 C 72 %
324 14-11-2019 05:59:17 9.9 C 72 %
325 14-11-2019 06:09:17 10 C 71 %
Sensor: Nr:Datum:Temp:Feuchte:
G-T/H 326 14-11-2019 06:19:17 9.9 C 72 %
327 14-11-2019 06:29:17 10 C 71 %
328 14-11-2019 06:39:17 9.9 C 72 %
329 14-11-2019 06:49:17 9.9 C 72 %
330 14-11-2019 06:59:17 9.9 C 72 %
331 14-11-2019 07:09:17 10 C 71 %
332 14-11-2019 07:19:17 9.9 C 73 %
333 14-11-2019 07:29:17 10 C 71 %
334 14-11-2019 07:39:17 10 C 72 %
335 14-11-2019 07:49:17 10 C 72 %
336 14-11-2019 07:59:17 10 C 72 %
337 14-11-2019 08:09:17 9.9 C 73 %
338 14-11-2019 08:19:17 9.9 C 73 %
339 14-11-2019 08:29:17 9.9 C 73 %
340 14-11-2019 08:39:17 9.9 C 73 %
341 14-11-2019 08:49:17 9.9 C 73 %
342 14-11-2019 08:59:17 9.9 C 73 %
343 14-11-2019 09:09:17 9.9 C 73 %
344 14-11-2019 09:19:17 9.9 C 73 %
345 14-11-2019 09:29:17 9.9 C 73 %
346 14-11-2019 09:39:17 9.9 C 73 %
347 14-11-2019 09:49:17 9.9 C 73 %
348 14-11-2019 09:59:17 9.9 C 73 %
349 14-11-2019 10:09:17 9.9 C 73 %
350 14-11-2019 10:19:17 9.9 C 73 %
Sensor: Nr:Datum:Temp:Feuchte:
G-T/H 351 14-11-2019 10:29:17 9.9 C 73 %
352 14-11-2019 10:39:17 9.9 C 73 %
353 14-11-2019 10:49:17 9.9 C 73 %
354 14-11-2019 10:59:17 10 C 72 %
355 14-11-2019 11:09:17 10 C 72 %
356 14-11-2019 11:19:17 10 C 72 %
357 14-11-2019 11:29:17 10 C 72 %
358 14-11-2019 11:39:17 10 C 72 %
359 14-11-2019 11:49:17 10 C 72 %
360 14-11-2019 11:59:17 10 C 72 %
361 14-11-2019 12:09:17 10 C 72 %
362 14-11-2019 12:19:17 10 C 72 %
363 14-11-2019 12:29:17 10 C 72 %
364 14-11-2019 12:39:17 10 C 72 %
365 14-11-2019 12:49:17 9.7 C 71 %
366 14-11-2019 12:59:17 9.6 C 68 %
367 14-11-2019 13:09:17 9.6 C 66 %
368 14-11-2019 13:19:17 9.6 C 65 %
369 14-11-2019 13:29:17 9.6 C 64 %
370 14-11-2019 13:39:17 9.5 C 62 %
371 14-11-2019 13:49:17 9.5 C 62 %
372 14-11-2019 13:59:17 9.6 C 61 %
373 14-11-2019 14:09:17 9.6 C 60 %
374 14-11-2019 14:19:17 9.6 C 60 %
375 14-11-2019 14:29:17 9.6 C 59 %
Sensor: Nr:Datum:Temp:Feuchte:
G-T/H 376 14-11-2019 14:39:17 9.6 C 58 %
377 14-11-2019 14:49:17 9.5 C 58 %
378 14-11-2019 14:59:17 9.5 C 58 %
379 14-11-2019 15:09:17 9.5 C 57 %
380 14-11-2019 15:19:17 9.3 C 57 %
381 14-11-2019 15:29:17 9.2 C 58 %
382 14-11-2019 15:39:17 9.2 C 58 %
383 14-11-2019 15:49:17 8.9 C 60 %
384 14-11-2019 15:59:17 8.8 C 61 %
385 14-11-2019 16:09:17 8.7 C 61 %
386 14-11-2019 16:19:17 8.6 C 61 %
387 14-11-2019 16:29:17 8.4 C 61 %
388 14-11-2019 16:39:17 8 C 61 %
389 14-11-2019 16:49:17 8.2 C 62 %
390 14-11-2019 16:59:17 8.8 C 62 %
391 14-11-2019 17:09:17 8.9 C 62 %
392 14-11-2019 17:19:17 9.2 C 62 %
393 14-11-2019 17:29:17 9.3 C 63 %
394 14-11-2019 17:39:17 9.4 C 63 %
395 14-11-2019 17:49:17 9.5 C 64 %
396 14-11-2019 17:59:17 9.5 C 64 %
397 14-11-2019 18:09:17 9.5 C 64 %
398 14-11-2019 18:19:17 9.6 C 65 %
399 14-11-2019 18:29:17 9.6 C 65 %
400 14-11-2019 18:39:17 9.6 C 65 %
Sensor: Nr:Datum:Temp:Feuchte:
G-T/H 401 14-11-2019 18:49:17 9.7 C 66 %
402 14-11-2019 18:59:17 9.7 C 66 %
403 14-11-2019 19:09:17 9.7 C 66 %
404 14-11-2019 19:19:17 9.7 C 66 %
405 14-11-2019 19:29:17 9.7 C 67 %
406 14-11-2019 19:39:17 9.7 C 67 %
407 14-11-2019 19:49:17 9.7 C 67 %
408 14-11-2019 19:59:18 9.8 C 67 %
409 14-11-2019 20:09:17 9.8 C 67 %
410 14-11-2019 20:19:17 9.8 C 67 %
411 14-11-2019 20:29:17 9.8 C 67 %
412 14-11-2019 20:39:17 9.8 C 67 %
413 14-11-2019 20:49:17 9.8 C 68 %
414 14-11-2019 20:59:17 9.8 C 68 %
415 14-11-2019 21:09:17 9.8 C 68 %
416 14-11-2019 21:19:17 9.8 C 68 %
417 14-11-2019 21:29:17 9.8 C 68 %
418 14-11-2019 21:39:17 9.8 C 68 %
419 14-11-2019 21:49:17 9.8 C 68 %
420 14-11-2019 21:59:17 9.8 C 68 %
421 14-11-2019 22:09:17 9.7 C 68 %
422 14-11-2019 22:19:17 9.7 C 68 %
423 14-11-2019 22:29:17 9.7 C 68 %
424 14-11-2019 22:39:17 9.7 C 68 %
425 14-11-2019 22:49:17 9.7 C 68 %
Sensor: Nr:Datum:Temp:Feuchte:
G-T/H 426 14-11-2019 22:59:17 9.7 C 68 %
427 14-11-2019 23:09:17 9.7 C 69 %
428 14-11-2019 23:19:17 9.7 C 69 %
429 14-11-2019 23:29:17 9.7 C 69 %
430 14-11-2019 23:39:17 9.7 C 69 %
431 14-11-2019 23:49:17 9.7 C 69 %
432 14-11-2019 23:59:17 9.7 C 69 %
433 15-11-2019 00:09:17 9.7 C 69 %
434 15-11-2019 00:19:17 9.7 C 69 %
435 15-11-2019 00:29:17 9.7 C 69 %
436 15-11-2019 00:39:17 9.7 C 69 %
437 15-11-2019 00:49:17 9.7 C 69 %
438 15-11-2019 00:59:17 9.7 C 69 %
439 15-11-2019 01:09:17 9.7 C 69 %
440 15-11-2019 01:19:17 9.7 C 69 %
441 15-11-2019 01:29:17 9.7 C 69 %
442 15-11-2019 01:39:17 9.6 C 69 %
443 15-11-2019 01:49:17 9.6 C 69 %
444 15-11-2019 01:59:17 9.6 C 69 %
445 15-11-2019 02:09:17 9.6 C 69 %
446 15-11-2019 02:19:17 9.6 C 69 %
447 15-11-2019 02:29:17 9.6 C 69 %
448 15-11-2019 02:39:17 9.6 C 69 %
449 15-11-2019 02:49:17 9.6 C 69 %
450 15-11-2019 02:59:17 9.6 C 70 %
Sensor: Nr:Datum:Temp:Feuchte:
G-T/H 451 15-11-2019 03:09:17 9.6 C 70 %
452 15-11-2019 03:19:17 9.6 C 70 %
453 15-11-2019 03:29:17 9.6 C 70 %
454 15-11-2019 03:39:17 9.6 C 70 %
455 15-11-2019 03:49:17 9.6 C 70 %
456 15-11-2019 03:59:17 9.6 C 70 %
457 15-11-2019 04:09:17 9.6 C 70 %
458 15-11-2019 04:19:17 9.6 C 70 %
459 15-11-2019 04:29:17 9.6 C 70 %
460 15-11-2019 04:39:17 9.6 C 70 %
461 15-11-2019 04:49:17 9.6 C 70 %
462 15-11-2019 04:59:17 9.6 C 70 %
463 15-11-2019 05:09:17 9.5 C 70 %
464 15-11-2019 05:19:17 9.5 C 70 %
465 15-11-2019 05:29:17 9.5 C 70 %
466 15-11-2019 05:39:17 9.5 C 70 %
467 15-11-2019 05:49:17 9.5 C 70 %
468 15-11-2019 05:59:17 9.5 C 70 %
469 15-11-2019 06:09:17 9.5 C 70 %
470 15-11-2019 06:19:17 9.5 C 70 %
471 15-11-2019 06:29:17 9.5 C 70 %
472 15-11-2019 06:39:17 9.5 C 70 %
473 15-11-2019 06:49:17 9.5 C 70 %
474 15-11-2019 06:59:17 9.5 C 70 %
475 15-11-2019 07:09:17 9.5 C 70 %
Sensor: Nr:Datum:Temp:Feuchte:
G-T/H 476 15-11-2019 07:19:17 9.5 C 70 %
477 15-11-2019 07:29:17 9.5 C 70 %
478 15-11-2019 07:39:17 9.5 C 70 %
479 15-11-2019 07:49:17 9.5 C 70 %
480 15-11-2019 07:59:17 9.4 C 70 %
481 15-11-2019 08:09:17 9.4 C 70 %
482 15-11-2019 08:19:17 9.4 C 70 %
483 15-11-2019 08:29:17 9.4 C 70 %
484 15-11-2019 08:39:17 9.4 C 70 %
485 15-11-2019 08:49:17 9.5 C 70 %
486 15-11-2019 08:59:17 9.4 C 70 %
487 15-11-2019 09:09:17 9.4 C 70 %
488 15-11-2019 09:19:17 9.4 C 70 %
489 15-11-2019 09:29:17 9.4 C 70 %
490 15-11-2019 09:39:17 9.4 C 70 %
491 15-11-2019 09:49:17 9.4 C 70 %
492 15-11-2019 09:59:17 9.4 C 70 %
493 15-11-2019 10:09:17 9.4 C 70 %
494 15-11-2019 10:19:17 9.4 C 70 %
495 15-11-2019 10:29:17 9.4 C 70 %
496 15-11-2019 10:39:17 9.4 C 70 %
497 15-11-2019 10:49:17 9.4 C 70 %